     2.11           OBSERVATION DATA    G (GPS)             RINEX VERSION / TYPE
teqc 2010Oct21 OPUS Account 20111028 20:22:59UTC            PGM / RUN BY / DATE
E 1519                                                      MARKER NAME
2037                                                        MARKER NUMBER
CSMIDDLETON NGS                                             OBSERVER / AGENCY
0220316069 TRIMBLE 5700 1.30                                REC # / TYPE / VERS
60183425 TRM41249.00 NONE                                   ANT # / TYPE
  -718384.5578 -5593016.6605  2970366.5655                  APPROX POSITION XYZ
        2.0010        0.0000        0.0000                  ANTENNA: DELTA H/E/N
     1     1                                                WAVELENGTH FACT L1/2
     5    L1    L2    C1    P1    P2                        # / TYPES OF OBSERV
    15                                                      LEAP SECONDS
  2011     8    27    13    15    0.0000000     GPS         TIME OF FIRST OBS
                                                            END OF HEADER
 11  8 27 13 15  0.0000000  0  8G13G31G06G16G20G23G32G03
   -309218.00456   -232003.01853  23574247.4614                   23574244.9384
    -32518.63756    -28727.11353  23926838.9064                   23926835.8134
   -272128.30956   -187457.75553  23252270.6724                   23252267.9414
   -178161.98856   -135464.12155  20301925.4534                   20301922.2934
   -184497.31257   -137268.65055  21148080.9924                   21148078.5204
   -449518.70357   -332378.65154  21732997.2504                   21732993.3754
    -65495.56657    -51753.45255  21428717.3444                   21428715.4414
   -312554.76656   -238842.22553  23192724.9144                   23192723.2624
 11  8 27 13 15 30.0000000  0  8G13G31G06G16G20G23G32G03
   -480531.89546   -365494.32243  23541648.1094                   23541646.2424
    -51416.92246    -43453.16143  23923242.7974                   23923239.5904
   -423228.66446   -305198.35043  23223516.3444                   23223514.6684
   -276303.66846   -211938.16645  20283249.4224                   20283246.8954
   -247549.84447   -186400.55845  21136082.9064                   21136080.5004
   -606809.67647   -454943.08344  21703065.9844                   21703061.3244
    -97590.76247    -76762.74145  21422609.7194                   21422607.9844
   -486835.05946   -374645.00143  23159560.7274                   23159558.3634
 11  8 27 13 16  0.0000000  0  8G13G31G06G16G20G23G32G03
   -652288.35246   -499330.58743  23508964.3364                   23508962.1484
    -70793.68746    -58552.08843  23919555.5474                   23919552.8244
   -574549.59846   -423110.70243  23194722.3754                   23194720.1564
   -374252.85946   -288262.25245  20264610.4924                   20264607.2974
   -310472.33247   -235431.12145  21124108.8984                   21124106.1374
   -764388.73047   -577731.96244  21673079.8134                   21673074.6254
   -129671.53947   -101760.79845  21416504.9384                   21416503.1994
   -661454.46946   -510712.10743  23126331.1564                   23126328.9774
 11  8 27 13 16 30.0000000  0  8G13G31G06G16G20G23G32G03
   -824465.21946   -633494.46243  23476200.1174                   23476198.0904
    -90628.38346    -74007.76043  23915781.0864                   23915779.4924
   -726067.12546   -541176.25943  23165888.3674                   23165887.6644
   -471988.78546   -364420.14245  20246011.9924                   20246009.1454
   -373244.91047   -284344.88045  21112163.7974                   21112160.4494
   -922233.01247   -700727.54244  21643043.6174                   21643037.5594
   -161718.66847   -126732.66145  21410406.2974                   21410405.3164
   -836388.54346   -647024.28443  23093042.2814                   23093040.1134
 11  8 27 13 17  0.0000000  0  8G13G31G06G16G20G23G32G03
   -997061.86346   -767985.36444  23443356.7344                   23443354.4614
   -110921.91046    -89820.98143  23911919.7974                   23911917.8874
   -877778.90646   -659393.22643  23137018.6174                   23137018.3094
   -569512.12146   -440412.40745  20227453.5394                   20227451.3874
   -435869.51647   -333143.32445  21100246.5784                   21100243.6214
  -1080340.62147   -823928.28844  21612956.5864                   21612950.6994
   -193734.64147   -151680.22045  21404314.0864                   21404312.8164
  -1011634.74646   -783579.75043  23059693.8444                   23059692.6174
 11  8 27 13 17 30.0000000  0  8G13G31G06G16G20G23G32G03
  -1170023.63346   -902760.83443  23410443.1334                   23410440.0904
   -131621.35946   -105950.54043  23907980.4454                   23907977.9304
  -1029628.78146   -777717.79343  23108122.7504                   23108121.8754
   -666769.78546   -516197.61145  20208946.8524                   20208943.3874
   -498294.21946   -381785.99045  21088367.6564                   21088364.7664
  -1238656.96947   -947291.70244  21582829.7734                   21582824.4224
   -225668.06247   -176563.46644  21398237.7664                   21398235.6844
  -1187136.97746   -920334.73943  23026296.5784                   23026296.3874
 11  8 27 13 18  0.0000000  0  8G13G31G06G16G20G23G32G03
  -1343316.80946  -1037794.45343  23377466.2424                   23377463.5204
   -152694.16846   -122371.08343  23903970.3364                   23903968.7424
  -1181581.10946   -896122.20543  23079206.2034                   23079206.0044
   -763729.05946   -591750.33345  20190496.3134                   20190493.2344
   -560487.69946   -430248.47945  21076532.3204                   21076529.6484
  -1397147.20347  -1070790.62144  21552670.1334                   21552665.6054
   -257488.25046   -201358.47044  21392182.3914                   21392180.5594
  -1362859.15246  -1057261.12843  22992857.7034                   22992858.4614
 11  8 27 13 18 30.0000000  0  8G13G31G06G16G20G23G32G03
  -1516913.90246  -1173064.93943  23344431.3674                   23344428.5234
   -174114.65646   -139062.46843  23899894.1484                   23899892.5164
  -1333607.04346  -1014583.89743  23050276.3754                   23050275.7774
   -860364.81646   -667050.95345  20172107.1024                   20172104.2384
   -622425.32846   -478511.61245  21064746.0864                   21064743.6644
  -1555782.86747  -1194402.83644  21522483.1024                   21522478.2624
   -289170.92647   -226046.30245  21386152.8594                   21386151.3874
  -1538772.10946  -1194336.13443  22959382.8054                   22959382.8984
 11  8 27 13 19  0.0000000  0  8G13G31G06G16G20G23G32G03
  -1690789.83246  -1308552.71643  23311343.3284                   23311341.2854
   -195859.09046   -156006.26243  23895757.5394                   23895755.0744
  -1485679.60946  -1133082.06043  23021338.5474                   23021337.4694
   -956653.35247   -742080.99645  20153783.6884                   20153780.7734
   -684084.73446   -526557.93645  21053012.0084                   21053010.2734
  -1714538.65247  -1318108.68144  21492272.6254                   21492267.8674
   -320694.18447   -250609.95345  21380154.7194                   21380152.6724
  -1714849.29346  -1331539.12843  22925876.7504                   22925876.2424
 11  8 27 13 19 30.0000000  0  8G13G31G06G16G20G23G32G03
  -1864925.56246  -1444242.92643  23278206.1174                   23278203.8914
   -217909.96546   -173188.87543  23891560.0084                   23891559.3754
  -1637778.25446  -1251600.41443  22992394.2734                   22992394.1884
  -1052576.94947   -816826.68445  20135530.5704                   20135526.9264
   -745448.92246   -574374.21445  21041335.4924                   21041332.8914
  -1873394.52047  -1441892.49644  21462043.1174                   21462038.4344
   -352042.14547   -275036.99345  21374189.8204                   21374187.3054
  -1891069.30946  -1468853.41143  22892343.4534                   22892342.0164
 11  8 27 13 20  0.0000000  0  8G13G31G06G16G20G23G32G03
  -2039304.47746  -1580122.68043  23245023.5944                   23245021.4414
   -240252.28946   -190598.57343  23887308.2894                   23887307.3954
  -1789884.74246  -1370124.90143  22963450.7894                   22963449.5784
  -1148120.73447   -891276.38846  20117349.5164                   20117346.1024
   -806504.50046   -621950.04345  21029717.7584                   21029714.5704
  -2032333.17647  -1565740.82144  21431798.2814                   21431793.1214
   -383201.45747   -299317.02744  21368260.1954                   21368258.5904
  -2067413.82846  -1606264.68943  22858785.4924                   22858784.5634
 11  8 27 13 20 30.0000000  0  8G13G31G06G16G20G23G32G03
  -2213910.36746  -1716179.22343  23211797.6484                   23211795.1764
   -262871.45746   -208223.98243  23883004.6954                   23883003.1294
  -1941981.28946  -1488641.76643  22934507.1884                   22934505.1844
  -1243270.22747   -965418.86346  20099243.1334                   20099239.5664
   -867238.03947   -669274.92845  21018160.5394                   21018157.7974
  -2191337.80147  -1689640.57245  21401541.0784                   21401535.5084
   -414159.33246   -323440.10344  21362368.5314                   21362367.1174
  -2243865.20746  -1743759.18343  22825208.6094                   22825206.3834
 11  8 27 13 21  0.0000000  0  8G13G31G06G16G20G23G32G03
  -2388732.56646  -1852404.35243  23178530.6414                   23178527.8794
   -285758.30146   -226057.94343  23878650.1094                   23878648.1454
  -2094055.72346  -1607141.24843  22905568.0004                   22905566.2814
  -1338016.26247  -1039246.95045  20081212.8444                   20081210.1914
   -927641.50047   -716342.60845  21006665.5634                   21006663.3284
  -2350396.92247  -1813582.77244  21371272.6484                   21371267.8674
   -444908.39146   -347400.47944  21356517.2734                   21356515.5234
  -2420410.70346  -1881327.12643  22791612.9924                   22791611.0474
 11  8 27 13 21 30.0000000  0  8G13G31G06G16G20G23G32G03
  -2563757.50846  -1988787.41343  23145224.1254                   23145221.4844
   -308900.60946   -244090.96243  23874245.2814                   23874244.4184
  -2246092.71146  -1725611.62943  22876637.1414                   22876635.1844
  -1432347.61347  -1112751.90945  20063262.3284                   20063259.2034
   -987704.21147   -763144.76845  20995235.9614                   20995233.4024
  -2509496.12547  -1937556.21244  21340997.2344                   21340992.2584
   -475438.36346   -371190.09644  21350708.1884                   21350706.2154
  -2597034.98846  -2018956.43043  22758002.4774                   22758000.6334
 11  8 27 13 22  0.0000000  0  8G13G31G06G16G20G23G32G03
  -2738975.65646  -2125321.10943  23111880.3754                   23111877.7974
   -332290.75446   -262317.07043  23869794.7814                   23869792.7154
  -2398081.60546  -1844044.46643  22847714.7424                   22847712.3834
  -1526256.35547  -1185927.56445  20045392.1954                   20045388.7034
  -1047419.93447   -809676.57445  20983873.3054                   20983869.9144
  -2668625.43447  -2061553.09344  21310715.8364                   21310710.7424
   -505743.11346   -394804.25144  21344940.9454                   21344939.1604
  -2773726.65646  -2156638.22443  22724379.4144                   22724377.7074
 11  8 27 13 22 30.0000000  0  8G13G31G06G16G20G23G32G03
  -2914376.56646  -2261997.15943  23078502.9694                   23078499.6334
   -355919.59846   -280729.29243  23865298.6724                   23865296.8324
  -2550009.96946  -1962430.15243  22818803.9304                   22818801.7194
  -1619733.50847  -1258766.91645  20027603.9384                   20027600.8444
  -1106780.39547   -855931.52045  20972577.1564                   20972573.6564
  -2827773.42647  -2185564.54245  21280430.9224                   21280425.5784
   -535815.54346   -418237.38044  21339218.1644                   21339216.6054
  -2950473.46946  -2294363.00243  22690744.4844                   22690744.0084
 11  8 27 13 23  0.0000000  0  8G13G31G06G16G20G23G32G03
  -1514521.04746  -1171200.65543  23344886.2034                   23344883.7974
   1195645.14146    928282.10343  24160550.4454                   24160549.5234
  -1126438.38746   -853153.58443  23089700.0474                   23089698.8364
   -137345.06646   -103659.05445  20309693.1564                   20309689.2664
    409646.01646    325699.36245  21261142.8984                   21261140.1024
  -1411501.15247  -1081975.79844  21549938.3754                   21549933.7664
   1009774.99646    786118.83945  21633335.3444                   21633333.2344
  -1551834.51646  -1204514.43743  22956896.4304                   22956896.5864
 11  8 27 13 23 30.0000000  0  8G13G31G06G16G20G23G32G03
  -1690257.12946  -1308137.82643  23311445.7344                   23311442.8954
   1171564.37145    909517.81943  24155969.2194                   24155966.9384
  -1278211.19145   -971418.11443  23060817.5084                   23060817.5664
   -229935.21146   -175807.21645  20292073.4844                   20292070.5004
    351016.87546    280014.25744  21249986.8594                   21249983.4884
  -1570654.44947  -1205991.38344  21519652.8914                   21519648.3554
    980187.24246    763063.39644  21627704.1484                   21627702.9964
  -1728656.07445  -1342297.46043  22923248.8754                   22923248.5514
 11  8 27 13 24  0.0000000  0  8G13G31G06G16G20G23G32G03
  -1866152.77046  -1445199.42444  23277973.9924                   23277972.0984
   1147264.12145    890582.43042  24151343.9144                   24151343.1684
  -1429895.05945  -1089613.31843  23031952.3594                   23031953.0634
   -322075.73846   -247605.05345  20274539.8674                   20274536.5984
    292757.84846    234617.58644  21238900.1094                   21238897.5784
  -1729800.44147  -1330001.28945  21489368.1724                   21489363.7774
    950845.47346    740199.64644  21622120.2814                   21622119.9734
  -1905503.26246  -1480100.51243  22889596.8134                   22889594.9884
 11  8 27 13 24 30.0000000  0  8G13G31G06G16G20G23G32G03
  -2042197.55546  -1582377.21343  23244473.2424                   23244471.2584
   1122751.88345    871481.82243  24146680.3284                   24146678.7624
  -1581479.43745  -1207730.98643  23003107.9844                   23003107.1414
   -413759.70346   -319047.13445  20257093.6254                   20257089.8714
    234875.06646    189514.07844  21227885.5944                   21227883.0704
  -1888929.42647  -1453997.92044  21459087.0004                   21459082.2814
    921755.34846    717531.95344  21616585.2504                   21616584.0434
  -2082365.37546  -1617915.04543  22855940.6724                   22855938.6884
 11  8 27 13 25  0.0000000  0  8G13G31G06G16G20G23G32G03
  -2218387.78146  -1719668.33543  23210945.2734                   23210943.5234
   1098029.98845    852217.91143  24141975.7664                   24141974.3874
  -1732959.16446  -1325767.13743  22974283.4064                   22974281.3594
   -504985.22346   -390131.96945  20239734.0164                   20239730.4104
    177368.97346    144704.08844  21216942.4384                   21216939.7344
  -2048036.82847  -1577977.75144  21428809.9534                   21428805.1994
    892917.13346    695060.56344  21611097.5234                   21611095.8954
  -2259236.82846  -1755736.99443  22822283.2034                   22822281.0744
 11  8 27 13 25 30.0000000  0  8G13G31G06G16G20G23G32G03
  -2394718.14845  -1857068.64043  23177391.1954                   23177386.7934
   1073102.82445    832794.06143  24137232.9064                   24137231.2774
  -1884326.78946  -1443715.89343  22945479.5004                   22945477.3164
   -595748.72746   -460856.81445  20222461.0394                   20222458.4804
    120242.70346    100190.07644  21206071.7734                   21206068.9774
  -2207115.96947  -1701935.53944  21398538.1724                   21398533.9694
    864333.17646    672787.32644  21605658.1954                   21605657.0864
  -2436110.02746  -1893560.22443  22788625.3134                   22788623.2624
 11  8 27 13 26  0.0000000  0  8G13G31G06G16G20G23G32G03
  -2571185.93445  -1994576.02843  23143809.7114                   23143807.1054
   1047971.28955    813210.99853  24132449.6954                   24132449.4534
  -2035578.12546  -1561574.01443  22916696.3674                   22916695.1254
   -686049.19546   -531220.85145  20205278.0634                   20205275.3794
     63495.43046     55971.37745  21195273.2034                   21195270.8754
  -2366163.63747  -1825868.79945  21368272.5554                   21368268.0554
    836002.61746    650711.49644  21600266.9454                   21600265.9774
  -2612980.44146  -2031381.25943  22754968.2664                   22754966.4184
 11  8 27 13 26 30.0000000  0  8G13G31G06G16G20G23G32G03
  -2747778.86346  -2132180.97443  23110206.0784                   23110203.2194
   1022646.40645    793477.21843  24127630.5944                   24127631.1024
  -2186699.62546  -1679330.96943  22887939.0864                   22887937.5004
   -775876.81246   -601216.42145  20188184.5634                   20188181.2344
      7136.56647     12055.37245  21184548.5314                   21184546.2194
  -2525167.23447  -1949767.73845  21338015.1644                   21338010.8714
    807934.16046    628839.93344  21594925.7274                   21594924.5944
  -2789833.97346  -2169189.20943  22721313.3284                   22721312.3014
 11  8 27 13 27  0.0000000  0  8G13G31G06G16G20G23G32G03
  -2924496.72346  -2269883.21643  23076578.1334                   23076575.8714
                                  24122773.5784                   24122774.6524
  -2337689.96946  -1796985.75943  22859205.9924                   22859205.7584
   -865233.80146   -670845.25945  20171180.3834                   20171177.7344
    -48837.14847    -31560.59245  21173897.3984                   21173894.9804
  -2684125.51647  -2073631.34544  21307766.2344                   21307762.1254
    780124.02746    607169.60544  21589634.0864                   21589632.2154
  -2966669.23846  -2306982.91343  22687663.0864                   22687661.6054
 11  8 27 13 27 30.0000000  0  8G13G31G06G16G20G23G32G03
  -3101333.75046  -2407678.28643  23042926.5004                   23042925.2624
    971415.26655    753556.60253  24117881.6644                   24117881.1374
  -2488541.82845  -1914532.71043  22830499.3134                   22830499.1484
   -954116.39846   -740104.43445  20154267.3364                   20154263.6994
   -104423.47747    -74874.65445  21163319.5864                   21163317.4694
  -2843032.14547  -2197454.72044  21277526.7274                   21277523.0234
    752574.55946    585702.46444  21584390.7974                   21584389.9064
  -3143478.72346  -2444756.50843  22654017.1024                   22654016.5434
 11  8 27 13 28  0.0000000  0  8G13G31G06G16G20G23G32G03
  -3278287.10246  -2545564.04643  23009253.3284                   23009251.8714
    945514.69545    733374.23943  24112953.8984                   24112952.4144
  -2639250.87145  -2031968.25743  22801820.5084                   22801819.8164
  -1042524.21546   -808993.66245  20137443.8754                   20137440.2154
   -159621.97747   -117886.52745  21152816.0704                   21152812.9694
  -3001883.36346  -2321234.90144  21247298.8444                   21247294.1174
    725284.92246    564437.73044  21579198.4144                   21579197.0004
  -3320257.19146  -2582505.92943  22620377.6804                   22620376.2074
 11  8 27 13 28 30.0000000  0  8G13G31G06G16G20G23G32G03
  -3455351.05545  -2683535.99243  22975559.4924                   22975556.7624
    919428.72745    713047.39843  24107989.9304                   24107988.7734
  -2789810.38346  -2149287.35543  22773170.6644                   22773169.0904
  -1130453.95746   -877510.37245  20120711.1724                   20120708.5004
   -214430.68047   -160594.65445  21142385.6564                   21142383.2464
  -3160673.32447  -2444967.34444  21217082.3134                   21217077.6484
    698257.22746    543377.14544  21574055.2114                   21574053.9414
  -3496997.70346  -2720225.81843  22586745.3524                   22586743.4734
 11  8 27 13 29  0.0000000  0  8G13G31G06G16G20G23G32G03
  -3632522.02345  -2821591.35143  22941844.1644                   22941842.5084
    893159.34846    692577.69543  24102991.6954                   24102990.0434
  -2940215.02346  -2266485.78043  22744549.5164                   22744548.3914
  -1217904.12947   -945653.37145  20104069.7664                   20104067.0044
   -268849.40647   -202998.91745  21132030.4924                   21132027.8954
  -3319397.45747  -2568648.51044  21186877.7734                   21186873.7544
    671491.30146    522520.52244  21568961.2504                   21568960.7074
  -3673695.05146  -2857912.05143  22553120.8444                   22553119.2624
 11  8 27 13 29 30.0000000  0  8G13G31G06G16G20G23G32G03
  -3809793.38746  -2959724.87143  22908110.5474                   22908108.5084
    866711.54346    671968.89843  24097958.0784                   24097958.2114
  -3090457.15246  -2383557.56343  22715959.1174                   22715958.0944
  -1304870.41847  -1013419.33145  20087520.7504                   20087517.7304
   -322874.77347   -245096.65944  21121749.4774                   21121746.9304
  -3478048.50447  -2692272.71544  21156687.3754                   21156682.9454
    644990.04346    501870.11444  21563919.0314                   21563917.6254
  -3850340.76246  -2995558.03043  22519505.9694                   22519504.1334
 11  8 27 13 30  0.0000000  0  8G13G31G06G16G20G23G32G03
  -3987164.69946  -3097936.30943  22874359.0784                   22874356.1024
    840084.13745    651220.18043  24092891.0084                   24092891.2234
  -3240534.82046  -2500501.14943  22687400.1094                   22687399.5474
  -1391354.87147  -1080809.83545  20071063.2194                   20071059.9694
   -376509.89146   -286890.32044  21111542.6954                   21111540.3954
  -3636625.50447  -2815839.22344  21126512.0944                   21126507.0234
    618750.05546    481423.30844  21558925.0314                   21558923.9184
  -4026932.89846  -3133162.33443  22485901.2584                   22485900.2304
 11  8 27 13 30 30.0000000  0  8G13G31G06G16G20G23G32G03
  -4164627.44146  -3236218.98343  22840588.2344                   22840586.0434
    813283.98845    630336.86243  24087791.3914                   24087791.0004
  -3390438.58246  -2617309.27643  22658874.3754                   22658873.7194
  -1477351.57847  -1147820.27445  20054698.5784                   20054695.2664
   -429749.49646   -328375.75144  21101412.4064                   21101408.8284
  -3795119.26647  -2939340.86645  21096351.7114                   21096346.4224
    592776.12546    461183.79644  21553983.4924                   21553981.2624
  -4203460.72346  -3270716.44343  22452309.1094                   22452308.4024
 11  8 27 13 31  0.0000000  0  8G13G31G06G16G20G23G32G03
  -4342181.32846  -3374572.67643  22806801.2424                   22806798.5704
    786309.77045    609317.88243  24082658.7424                   24082658.5204
  -3540166.43046  -2733980.32843  22630381.1094                   22630381.8874
  -1562862.82047  -1214452.43445  20038426.2344                   20038423.0704
   -482596.71546   -369555.44144  21091355.1484                   21091352.5744
  -3953528.89847  -3062776.95444  21066207.6094                   21066202.8014
    567064.78146    441148.95144  21549090.8364                   21549088.8404
  -4379922.72746  -3408219.27943  22418729.8364                   22418729.8954
 11  8 27 13 31 30.0000000  0  8G13G31G06G16G20G23G32G03
  -2944397.56246  -2285390.46943  23072790.9304                   23072787.6684
   2334583.87145   1815765.04843  24377286.2664                   24377284.9224
  -2114289.47746  -1622907.38143  22901717.1724                   22901716.6214
    -72465.17647    -53103.63145  20322039.9224                   20322036.6414
   1040369.55546    817171.45644  21381166.4924                   21381163.6334
  -2536425.53147  -1958540.58345  21335872.5234                   21335868.1724
   2117036.00046   1648918.66544  21844039.8754                   21844039.5004
  -2980888.86746  -2318063.00043  22684956.9614                   22684956.5664
 11  8 27 13 32  0.0000000  0  8G13G31G06G16G20G23G32G03
  -3122121.45345  -2423876.62743  23038970.1564                   23038968.1454
   2307269.60546   1794481.12743  24372088.3134                   24372086.8244
  -2263650.02046  -1739292.19743  22873295.2504                   22873293.3284
   -157000.18047   -118975.08745  20305953.2974                   20305949.9064
    988309.10546    776604.80844  21371259.7584                   21371257.5824
  -2694652.43046  -2081834.29144  21305762.9924                   21305758.5434
   2091850.70346   1629293.72044  21839247.3134                   21839246.8284
  -3157201.55946  -2455449.53243  22651406.0944                   22651403.8754
 11  8 27 13 32 30.0000000  0  8G13G31G06G16G20G23G32G03
  -3299929.66045  -2562428.51743  23005134.3284                   23005133.2774
   2279783.09445   1773063.03243  24366857.6564                   24366855.8444
  -2412824.31246  -1855531.86443  22844908.4454                   22844905.9304
   -241050.62946   -184468.95145  20289959.0634                   20289955.6174
    936636.93846    736340.76244  21361426.9844                   21361424.4774
  -2852786.62947  -2205055.78044  21275671.0634                   21275666.8754
   2066923.09046   1609869.56944  21834504.1414                   21834502.8444
  -3333436.82446  -2592775.71643  22617869.3204                   22617866.6254
 11  8 27 13 33  0.0000000  0  8G13G31G06G16G20G23G32G03
  -3477817.05146  -2701042.08543  22971284.1954                   22971281.6024
   2252127.75445   1751513.27742  24361595.0864                   24361593.4964
  -2561806.52346  -1971621.85543  22816557.5864                   22816556.3674
   -324614.08647   -249583.35345  20274057.6024                   20274054.3284
    885354.55946    696380.41045  21351668.0784                   21351666.2544
  -3010822.69147  -2328200.75744  21245597.9844                   21245593.4264
   2042254.21546   1590647.01644  21829810.0314                   21829808.7074
  -3509588.07446  -2730036.36043  22584349.2114                   22584345.6134
 11  8 27 13 33 30.0000000  0  8G13G31G06G16G20G23G32G03
  -3655781.55146  -2839715.78643  22937419.4064                   22937416.0514
   2224304.75445   1729832.88643  24356299.4384                   24356299.0434
  -2710592.46945  -2087558.91643  22788244.2034                   22788244.0084
   -407690.84846   -314318.50845  20258248.6414                   20258245.1604
    834461.03546    656723.07945  21341983.9064                   21341981.8444
  -3168757.04347  -2451266.51544  21215544.3444                   21215539.1334
   2017842.73846   1571625.02444  21825164.3674                   21825163.3794
  -3685650.91846  -2867228.16943  22550844.8524                   22550841.9964
 11  8 27 13 34  0.0000000  0  8G13G31G06G16G20G23G32G03
  -3833818.81246  -2978446.19643  22903539.4694                   22903537.3134
   2196316.55145   1708023.93543  24350974.7814                   24350972.4844
  -2859177.32846  -2203339.33443  22759970.6094                   22759969.7544
   -490279.25846   -378673.15145  20242532.3834                   20242529.2234
    783956.90246    617369.13945  21332373.5474                   21332370.9104
  -3326585.19147  -2574249.50144  21185510.4694                   21185505.3634
   1993689.07046   1552803.91944  21820568.3834                   21820566.5124
  -3861619.52346  -3004346.57843  22517359.9384                   22517357.4344
 11  8 27 13 34 30.0000000  0  8G13G31G06G16G20G23G32G03
  -4011925.10946  -3117230.31343  22869646.8914                   22869644.8754
   2168165.22745   1686087.66842  24345616.9454                   24345615.9344
  -3007556.10946  -2318959.14043  22731734.8524                   22731734.8324
   -572378.18447   -442646.33645  20226909.2274                   20226906.5824
    733842.58646    578318.96845  21322836.3914                   21322834.1134
  -3484302.42647  -2697146.06344  21155498.3204                   21155493.4694
   1969792.87946   1534183.46544  21816020.5784                   21816019.6564
  -4037488.29346  -3141387.15243  22483893.1954                   22483891.6214
 11  8 27 13 35  0.0000000  0  8G13G31G06G16G20G23G32G03
  -4190099.86345  -3256067.83343  22835741.2114                   22835738.9654
   2139849.78945   1664023.64842  24340228.7424                   24340228.3754
  -3155726.52746  -2434416.67943  22703537.5864                   22703539.1134
   -653990.12146   -506240.06745  20211379.1414                   20211376.2344
    684114.47746    539569.77945  21313373.6564                   21313371.0744
  -3641908.06647  -2819955.68545  21125506.6884                   21125502.5394
   1946150.60946   1515760.86144  21811521.9844                   21811520.6214
  -4213255.83246  -3278348.82443  22450445.4534                   22450445.0824
 11  8 27 13 35 30.0000000  0  8G13G31G06G16G20G23G32G03
  -4368341.00846  -3394957.03243  22801823.6414                   22801820.8404
   2111370.32445   1641831.78142  24334809.2344                   24334809.2974
  -3303686.66846  -2549710.28643  22675382.5394                   22675383.3134
   -735116.30946   -569455.30145  20195941.3444                   20195938.1644
    634770.93046    501120.20444  21303983.9454                   21303981.2624
  -3799399.56247  -2942676.34645  21095536.9304                   21095532.8484
   1922760.19546   1497534.50844  21807071.0004                   21807069.9614
  -4388918.53146  -3415228.83743  22417018.2034                   22417017.8324
 11  8 27 13 36  0.0000000  0  8G13G31G06G16G20G23G32G03
  -4546646.93046  -3533896.79143  22767894.1174                   22767889.7344
   2082727.03945   1619512.19542  24329359.2034                   24329358.8794
  -3451433.28546  -2664837.50243  22647267.1024                   22647267.7304
   -815757.42246   -632292.53645  20180595.6174                   20180593.0984
    585809.90246    462968.72344  21294666.8984                   21294664.5124
  -3956774.47347  -3065306.17445  21065589.4224                   21065585.3444
   1899619.32846   1479502.59544  21802667.7114                   21802666.5274
  -4564472.81646  -3552024.39343  22383610.8914                   22383610.1644
 11  8 27 13 36 30.0000000  0  8G13G31G06G16G20G23G32G03
  -4725015.44546  -3672885.23043  22733949.9694                   22733947.8164
                                  24323878.4144                   24323877.2894
  -3598963.03546  -2779795.76743  22619193.3594                   22619193.0044
   -895914.22746   -694752.40945  20165342.4694                   20165339.6724
    537229.63746    425113.90544  21285422.9614                   21285420.1414
  -4114030.03147  -3187842.99745  21035665.2734                   21035660.6524
   1876726.20346   1461663.73644  21798311.1414                   21798310.0904
  -4739914.90246  -3688732.48843  22350225.2504                   22350223.5234
 11  8 27 13 37  0.0000000  0  8G13G31G06G16G20G23G32G03
  -4903446.82845  -3811922.72743  22699996.2664                   22699994.0864
                                  24318364.6334                   24318363.6804
  -3746275.02346  -2894584.28143  22591161.4064                   22591159.2154
   -975590.12546   -756837.53745  20150180.4844                   20150177.7034
    489026.22346    387552.76744  21276249.4454                   21276247.8754
  -4271166.00047  -3310286.63045  21005762.7894                   21005758.5554
   1854076.59446   1444014.64444  21794001.1414                   21793999.5204
  -4915243.51246  -3825352.12843  22316861.0784                   22316860.1764
 11  8 27 13 37 30.0000000  0  8G13G31G06G16G20G23G32G03
  -5081936.05546  -3951005.20643  22666031.0004                   22666028.5514
   1995814.84845   1551788.10242  24312819.3284                   24312819.3794
  -3893363.23046  -3009198.44743  22563171.2114                   22563168.9774
  -1054782.39146   -818545.81945  20135110.7344                   20135107.9064
    441200.98046    350286.29444  21267148.7974                   21267147.0124
  -4428176.61347  -3432632.61045  20975884.9774                   20975880.1564
   1831671.28146   1426555.88544  21789737.2814                   21789736.3984
  -5090451.98046  -3961878.20443  22283520.7504                   22283519.2424
 11  8 27 13 38  0.0000000  0  9G13G31G06G16G20G23G19G32G03
  -5260484.28145  -4090133.80243  22632054.6334                   22632052.1524
   1966516.48445   1528958.09442  24307244.4774                   24307244.0434
  -4040227.75846  -3123638.29443  22535223.2034                   22535222.0944
  -1133495.92646   -879881.08045  20120132.2114                   20120129.4844
    393748.83646    313310.53544  21258119.2734                   21258116.9734
  -4585062.56247  -3554881.43545  20946030.4454                   20946025.8444
   2859943.35515                  24477703.344
   1809505.08246   1409283.46144  21785519.2584                   21785518.4774
  -5265540.27746  -4098310.61443  22250202.5084                   22250201.1024
 11  8 27 13 38 30.0000000  0  9G13G31G06G16G20G23G19G32G03
  -5439092.38345  -4229308.90743  22598065.6174                   22598063.6454
   1937050.88745   1505997.80942  24301637.6804                   24301636.3404
  -4186868.59046  -3237903.90043  22507318.4454                   22507317.9964
  -1211734.28946   -940846.03245  20105243.9694                   20105241.4414
    346664.75446    276621.57644  21249159.0084                   21249156.7934
  -4741824.27347  -3677033.44345  20916199.5394                   20916195.1604
   2677828.73845   2148395.12552  24443047.8204                   24443046.1954
   1787573.01646   1392193.50844  21781345.8284                   21781344.9144
  -5440507.61746  -4234648.77244  22216907.0164                   22216906.4414
 11  8 27 13 39  0.0000000  0  9G13G31G06G16G20G23G19G32G03
  -5617760.98846  -4368531.17743  22564066.0394                   22564064.6914
   1907415.97345   1482905.59442  24295999.3984                   24295996.8874
  -4333285.37145  -3351994.93243  22479456.2734                   22479456.2664
  -1289501.14546  -1001443.60745  20090445.5944                   20090442.3794
    299944.66446    240216.27644  21240268.8054                   21240266.5274
  -4898461.61347  -3799088.54645  20886393.0004                   20886388.1374
   2495477.66045   2006303.48042  24408348.7194                   24408346.2504
   1765870.15646   1375282.11044  21777215.9384                   21777215.2034
  -5615353.02146  -4370891.85743  22183635.0004                   22183634.3794
 11  8 27 13 39 30.0000000  0  9G13G31G06G16G20G23G19G32G03
  -5796486.46146  -4507797.83143  22530057.1414                   22530053.7814
   1877614.01645   1459683.14542  24290326.7194                   24290325.8054
  -4479473.69545  -3465907.88643  22451637.7114                   22451637.2624
  -1366795.76246  -1061673.20545  20075736.7034                   20075733.8914
    253588.13746    204094.25944  21231447.6644                   21231445.1374
  -5054970.61347  -3921043.63145  20856610.0164                   20856605.7504
   2312894.50045   1864030.96542  24373603.6804                   24373601.0824
   1744396.16446   1358549.09244  21773130.2584                   21773128.6684
  -5790071.38346  -4507036.03344  22150387.0944                   22150386.6804
 11  8 27 13 40  0.0000000  0  9G13G31G06G16G20G23G19G32G03
  -4399837.37546  -3419499.86443  22795829.7424                   22795827.5904
   3423069.15245   2663933.79742  24584417.5004                   24584416.3404
  -3050002.57046  -2352034.34643  22723656.9144                   22723656.4694
    131805.64846    106068.12445  20360910.5234                   20360908.2774
   1783017.33246   1395857.22744  21522488.6804                   21522485.4534
  -3635920.45747  -2815290.28045  21126646.1724                   21126641.7934
   3705511.16445   2949186.90242  24638610.5704                   24638607.5514
   3298572.55946   2569595.56144  22068880.2664                   22068878.5204
  -4389229.94546  -3415471.28043  22416958.7814                   22416957.7034
 11  8 27 13 40 30.0000000  0  9G13G31G06G16G20G23G19G32G03
  -4578663.93045  -3558845.23743  22761800.4924                   22761798.0314
   3392939.91845   2640456.36342  24578683.9064                   24578683.9774
  -3195718.53146  -2465579.15843  22695928.1954                   22695927.0784
     55457.48846     46576.03845  20346382.6724                   20346379.3714
   1737387.82446   1360301.71444  21513805.1094                   21513802.9844
  -3792158.63347  -2937034.32044  21096915.3284                   21096910.5164
   3522478.67245   2806564.26343  24603779.6484                   24603777.7274
   3277555.94546   2553218.91744  22064880.5944                   22064879.0004
  -4563677.30146  -3551404.20444  22383761.9064                   22383760.9924
 11  8 27 13 41  0.0000000  0  9G13G31G06G16G20G23G19G32G03
  -4757537.34045  -3698227.13343  22727761.5234                   22727759.3714
   3362647.96945   2616852.19243  24572920.4774                   24572920.4494
  -3341193.27346  -2578936.14843  22668244.5634                   22668244.1684
    -20418.41846    -12548.08445  20331943.9064                   20331940.8284
   1692119.73046   1325027.85544  21505191.1804                   21505189.2704
  -3948257.07047  -3058669.44544  21067210.2194                   21067205.5434
   3339226.41845   2663770.38243  24568908.6564                   24568905.6054
   3256765.29746   2537018.37644  22060923.6884                   22060922.7114
  -4737983.55546  -3687227.25143  22350592.5634                   22350591.5314
 11  8 27 13 41 30.0000000  0  9G13G31G06G16G20G23G19G32G03
  -4936453.72345  -3837642.44343  22693714.5314                   22693713.1804
   3332195.17646   2593122.66043  24567126.1254                   24567124.8484
  -3486422.43746  -2692101.72343  22640609.2344                   22640607.5704
    -95821.73446    -71303.91945  20317595.0084                   20317592.2274
   1647212.37946   1290035.05644  21496645.4224                   21496643.1644
  -4104211.59947  -3180192.45444  21037533.8984                   21037528.8324
   3155758.47345   2520808.40642  24533995.0164                   24533993.4774
   3236199.96946   2520993.38444  22057010.8444                   22057009.7344
  -4912143.27746  -3822936.09343  22317451.2194                   22317449.8984
 11  8 27 13 42  0.0000000  0  9G13G31G06G16G20G23G19G32G03
  -5115411.66045  -3977090.20043  22659660.4224                   22659658.0944
   3301582.27046   2569268.38743  24561300.4774                   24561300.7974
  -3631402.99646  -2805073.56143  22613019.7194                   22613018.2934
   -170753.40646   -129692.27345  20303336.2504                   20303333.3914
   1602663.74646   1255321.79744  21488168.2344                   21488166.1884
  -4260019.57847  -3301601.30445  21007884.3834                   21007879.8244
   2972077.83645   2377680.68842  24499042.2274                   24499040.2544
   3215857.79746   2505142.27344  22053139.8594                   22053139.3404
  -5086153.12146  -3958528.13744  22284337.8204                   22284337.0514
 11  8 27 13 42 30.0000000  0  9G13G31G06G16G20G23G19G32G03
  -5294409.68045  -4116569.21942  22625597.8364                   22625596.2344
   3270808.77046   2545288.93143  24555446.1564                   24555444.2464
  -3776133.13746  -2917850.28843  22585480.3204                   22585476.7154
   -245215.60546   -187714.79345  20289165.9224                   20289163.7304
   1558471.10246   1220885.92344  21479759.0704                   21479756.6724
  -4415679.04347  -3422894.40945  20978263.6334                   20978258.6254
   2788186.89145   2234389.07442  24464048.1644                   24464046.3014
   3195735.60946   2489462.57144  22049310.4064                   22049309.8324
  -5260010.72746  -4094001.59444  22251254.4774                   22251253.4614
 11  8 27 13 43  0.0000000  0 10G13G31G06G16G20G23G19G07G32G03
  -5473447.22345  -4256079.01843  22591527.8284                   22591525.9804
   3239873.66045   2521183.52943  24549558.9144                   24549558.1564
  -3920611.16046  -3030430.49543  22557985.4614                   22557983.7504
   -319210.92646   -245373.47345  20275085.6414                   20275082.7544
   1514630.74246   1186724.55344  21471416.1334                   21471414.1724
  -4571188.92647  -3544070.94444  20948670.6094                   20948666.3204
   2604086.92245   2090934.60242  24429014.8284                   24429012.4884
   4466672.99215                  24821709.922
   3175829.92246   2473951.61244  22045522.9224                   22045522.1254
  -5433713.59446  -4229354.46044  22218199.6804                   22218199.0634
 11  8 27 13 43 30.0000000  0 10G13G31G06G16G20G23G19G07G32G03
  -5652525.55945  -4395620.61443  22557451.3054                   22557448.7814
   3208773.89845   2496949.90242  24543639.0314                   24543638.8714
  -4064837.89546  -3142814.91843  22530540.3594                   22530538.5044
   -392744.39846   -302672.33445  20261092.9304                   20261089.9144
   1471137.42646   1152833.58944  21463139.1564                   21463137.7304
  -4726550.33647  -3665131.78945  20919106.0234                   20919102.3674
   2419777.22345   1947316.66042  24393943.0944                   24393938.8284
   4311497.957 5                  24792180.648
   3156134.94946   2458604.82244  22041775.0864                   22041774.6254
  -5607261.41846  -4364586.54143  22185174.2274                   22185173.7814
 11  8 27 13 44  0.0000000  0 10G13G31G06G16G20G23G19G07G32G03
  -5831642.46545  -4535192.22043  22523366.5554                   22523363.3554
   3177509.48845   2472587.99642  24537690.2114                   24537689.6294
  -4208810.30146  -3255001.23343  22503142.5864                   22503141.3954
   -465817.29746   -359612.26445  20247187.3914                   20247184.4844
   1427988.93046   1119211.31744  21454928.6724                   21454926.7814
  -4881760.83246  -3786075.04045  20889570.9694                   20889566.7194
   2235260.14855   1803537.24153  24358830.6334                   24358827.2624
   4156285.250 5                  24762644.945
   3136648.52046   2443420.57844  22038066.4224                   22038065.4264
  -5780651.53146  -4499695.71244  22152179.0004                   22152179.3594
 11  8 27 13 44 30.0000000  0 10G13G31G06G16G20G23G19G07G32G03
  -6010792.41446  -4674789.62043  22489275.9694                   22489272.7814
   3146084.64545   2448101.01242  24531709.3524                   24531708.8284
  -4352522.00446  -3366984.36643  22475796.0554                   22475794.4104
   -538427.62546   -416191.75545  20233370.4224                   20233367.0744
   1385186.54346   1085858.74844  21446784.1254                   21446781.9304
  -5036814.52347  -3906896.12845  20860065.0394                   20860060.7034
   2050542.73445   1659601.57042  24323678.8594                   24323676.2894
   4001037.58615                  24733102.547
   3117371.51246   2428399.42044  22034399.2424                   22034397.3674
  -5953876.85246  -4634676.47543  22119215.7584                   22119215.5234
 11  8 27 13 45  0.0000000  0 10G13G31G06G16G20G23G19G07G32G03
  -6189973.71146  -4814411.43843  22455176.9924                   22455175.8204
   3114499.34845   2423489.02342  24525699.7114                   24525698.1684
  -4495970.82446  -3478762.60943  22448498.8524                   22448496.6604
   -610576.92646   -472411.99945  20219640.5234                   20219637.5084
   1342727.57446   1052773.79344  21438704.7034                   21438702.2424
  -5191708.88747  -4027593.06545  20830589.7894                   20830584.7854
                                  24288489.4614                   24288487.8204
   3845754.777 5                  24703552.398
   3098301.44146   2413539.58144  22030770.5004                   22030768.8954
  -6126934.01646  -4769526.22144  22086283.8674                   22086283.0784
 11  8 27 13 45 30.0000000  0 10G13G31G06G16G20G23G19G07G32G03
  -6369183.87946  -4954055.68143  22421076.3984                   22421073.9304
   3082754.46945   2398752.63742  24519658.3054                   24519656.1884
  -4639153.38346  -3590333.44643  22421251.8594                   22421250.6294
   -682265.75546   -528273.40045  20205998.9924                   20205996.0234
   1300610.59046   1019955.31744  21430689.6334                   21430687.6174
  -5346440.61347  -4148163.25445  20801145.0634                   20801140.4454
                                  24253263.0164                   24253261.6684
                                  24673996.070
   3079436.63446   2398839.66944  22027180.2814                   22027179.2624
  -6299818.87546  -4904241.66743  22053385.5084                   22053383.4964
 11  8 27 13 46  0.0000000  0  9G13G31G06G16G20G23G07G32G03
  -6548419.81646  -5093720.09743  22386968.2274                   22386967.0044
   3050851.15655   2373892.87152  24513587.4454                   24513584.9494
  -4782065.97346  -3701693.86544  22394056.5634                   22394055.1764
   -753495.07046   -583776.82945  20192444.7734                   20192441.1804
   1258834.07446    987402.13444  21422739.8754                   21422737.8054
  -5501006.58647  -4268604.28945  20771732.7344                   20771727.9844
                                  24644433.359
   3060775.51646   2384298.46844  22023628.7504                   22023627.6684
  -6472527.54346  -5038819.82444  22020519.9534                   22020518.0824
 11  8 27 13 46 30.0000000  0  8G13G31G06G16G20G23G32G03
  -6727680.60246  -5233403.77943  22352856.1024                   22352854.2974
   3018789.03555   2348909.28952  24507486.5634                   24507484.1764
  -4924706.99246  -3812842.68043  22366913.4694                   22366912.1724
   -824267.76246   -638924.39645  20178976.8754                   20178973.9144
   1217394.84846    955111.78044  21414854.8524                   21414852.2624
  -5655405.36347  -4388915.02045  20742351.4304                   20742346.9574
   3042314.69146   2369913.36044  22020116.3444                   22020114.1644
  -6645057.34846  -5173258.60643  21987687.6334                   21987686.8204
 11  8 27 13 47  0.0000000  0  8G13G31G06G16G20G23G32G03
  -6906958.66046  -5373100.98743  22318740.0944                   22318737.8284
   2986573.71145   2323806.48842  24501357.1644                   24501353.6844
  -5067068.43746  -3923773.63943  22339822.3284                   22339821.5594
   -894579.44146   -693712.73045  20165596.8364                   20165594.1454
   1176296.03146    923086.65244  21407033.2114                   21407031.0634
  -5809628.91447  -4509089.23145  20713003.5864                   20712999.0744
   3024057.11346   2355686.60144  22016641.2664                   22016640.6334
  -6817399.89846  -5307551.47444  21954892.3594                   21954892.1844
 11  8 27 13 47 30.0000000  0  8G13G31G06G16G20G23G32G03
  -7086253.83646  -5512811.53143  22284621.9614                   22284619.1724
   2954203.52745   2298582.84042  24495197.0784                   24495193.8164
  -5209149.35546  -4034486.02143  22312785.2894                   22312784.0234
   -964433.52346   -748144.50545  20152304.5394                   20152301.3054
   1135533.48846    891323.60144  21399276.4614                   21399274.0864
  -5963676.60547  -4629126.41245  20683689.2664                   20683684.7154
   3005998.60546   2341615.00243  22013204.5634                   22013204.0474
  -6989553.20446  -5441696.96144  21922133.0634                   21922131.8634
 11  8 27 13 48  0.0000000  0  8G13G31G06G16G20G23G32G03
  -7265562.59046  -5652532.68143  22250500.4844                   22250498.6134
   2921680.449 5                  24489007.836
  -5350945.83246  -4144976.70943  22285802.0784                   22285801.2504
  -1033830.38346   -802219.99045  20139098.5234                   20139095.4574
   1095106.27046    859821.80344  21391583.9384                   21391581.1054
  -6117544.65647  -4749023.60745  20654408.7584                   20654404.5904
   2988137.96146   2327697.54344  22009806.2734                   22009804.9734
  -7161513.04746  -5575691.59644  21889410.2814                   21889409.7934
 11  8 27 13 48 30.0000000  0  9G13G31G06G16G20G23G19G32G03
  -5869455.81246  -4564657.24743  22516171.1024                   22516168.5634
   4464426.82815                  24782582.805
  -3917029.32846  -3027639.23243  22558666.5394                   22558666.0944
    472651.89846    371662.29245  20425772.3054                   20425769.3054
   2630434.28946   2056181.27444  21683746.9844                   21683744.4104
  -4695804.66447  -3641174.27245  20924956.6414                   20924952.0704
   6048505.00055   2467437.71353  24340968.6024                   24340967.9844
   4545894.47346   3541533.72444  22306237.9384                   22306237.4344
  -5757848.91446  -4481927.31944  22156518.6024                   22156518.0944
 11  8 27 13 49  0.0000000  0  9G13G31G06G16G20G23G19G32G03
  -6048781.18046  -4704391.33643  22482045.9614                   22482044.6764
   4431603.137 5                  24776337.234
  -4058244.33246  -3137676.85943  22531794.2894                   22531794.6024
    404169.16846    318299.10245  20412740.0084                   20412737.5004
   2590675.02346   2025199.98844  21676180.8284                   21676178.6454
  -4849302.00447  -3760782.60245  20895747.5944                   20895742.6454
   5862140.95755   2322219.00653  24305506.3364                   24305504.2624
   4528426.89846   3527922.55744  22302913.8524                   22302913.3014
  -5929406.73846  -4615608.70543  22123872.2424                   22123871.0634
 11  8 27 13 49 30.0000000  0  9G13G31G06G16G20G23G19G32G03
  -6228112.34846  -4844129.94643  22447921.2344                   22447919.3244
   4398629.520 5                  24770063.055
  -4199165.08246  -3247485.18144  22504979.0234                   22504978.3134
    336140.66446    265289.84045  20399795.2274                   20399792.1134
   2551245.82046   1994475.91644  21668677.6724                   21668675.7074
  -5002610.34846  -3880243.67445  20866573.5394                   20866569.5664
   5675612.03145   2176871.87243  24270010.7974                   24270009.8914
   4511151.84846   3514461.42644  22299626.7344                   22299625.7504
  -6100758.84046  -4749129.81844  22091265.0314                   22091263.9184
 11  8 27 13 50  0.0000000  0  9G13G31G06G16G20G23G19G32G03
  -6407450.82446  -4983874.18543  22413794.3054                   22413791.9884
   4365501.883 6                  24763759.172
  -4339793.33346  -3357065.59644  22478218.5004                   22478217.3484
    268560.56646    212629.99145  20386935.1804                   20386931.8634
   2512140.02746   1964003.80044  21661235.8754                   21661234.2074
  -5155731.38346  -3999558.76945  20837436.0084                   20837431.8954
   5488916.71145   2031395.09743  24234483.7584                   24234482.5314
   4494062.57746   3501145.10144  22296375.2664                   22296374.0704
  -6271905.87146  -4882491.11244  22058697.2424                   22058695.8204
 11  8 27 13 50 30.0000000  0  9G13G31G06G16G20G23G19G32G03
  -6586794.51646  -5123622.50743  22379665.7734                   22379663.1294
   4332220.668 5                  24757426.820
  -4480126.13346  -3466415.85144  22451514.6484                   22451512.7584
    201427.33246    160318.35245  20374160.2664                   20374157.1804
   2473355.33246   1933781.90744  21653856.6254                   21653854.3244
  -5308662.50047  -4118725.89845  20808334.3134                   20808330.2814
   5302058.04355   1885790.99652  24198926.2114                   24198923.8324
   4477156.85546   3487971.72644  22293158.1094                   22293156.7304
  -6442844.89146  -5015690.32044  22026168.1484                   22026166.9104
 11  8 27 13 51  0.0000000  0  9G13G31G06G16G20G23G19G32G03
  -6766141.98846  -5263373.81543  22345537.7424                   22345535.0124
   4298786.301 5                  24751063.242
  -4620161.50446  -3575534.30844  22424866.4924                   22424864.8794
    134739.12946    108353.48945  20361470.0554                   20361467.1334
   2434889.15246   1903808.21044  21646536.0164                   21646534.5354
  -5461401.51247  -4237743.31745  20779268.8984                   20779264.9064
   5115038.52355   1740061.54752  24163338.6334                   24163333.9804
   4460431.82446   3474939.13544  22289975.1484                   22289974.3164
  -6613572.73846  -5148724.95144  21993679.9534                   21993678.3324
 11  8 27 13 51 30.0000000  0 10G13G31G06G16G20G23G19G07G32G03
  -6945490.63746  -5403126.02943  22311408.4614                   22311406.4184
   4265199.57445   3320137.75853  24744672.9454                   24744671.9494
  -4759896.30946  -3684418.51244  22398275.0234                   22398273.6724
     68494.08646     56733.93945  20348863.5164                   20348860.8674
   2396739.63346   1874081.25144  21639277.0004                   21639274.8404
  -5613945.72347  -4356608.96645  20750240.9384                   20750236.1374
   4927861.62545   1594209.48042  24127718.2114                   24127714.9414
   6149067.84415                  24618619.398
   4443885.38746   3462045.72543  22286827.1724                   22286825.3094
  -6784085.61746  -5281592.08544  21961232.5004                   21961230.3364
 11  8 27 13 52  0.0000000  0 10G13G31G06G16G20G23G19G07G32G03
  -7124835.61746  -5542875.35543  22277280.5634                   22277277.7814
   4231462.94545   3293849.37543  24738252.7734                   24738253.0704
  -4899325.78946  -3793064.80943  22371742.1094                   22371741.4574
      2693.18446      5460.49545  20336342.6254                   20336339.6644
   2358906.41446   1844600.76844  21632077.7344                   21632075.6374
  -5766290.25847  -4475319.01145  20721250.3134                   20721245.3794
   4740532.17245   1448238.58242  24092070.9224                   24092067.3364
   5993303.62945   3622223.52052  24588979.9224                   24588978.9454
   4427517.33246   3449291.31443  22283711.9694                   22283710.6524
  -6954378.17646  -5414287.56144  21928826.5944                   21928824.3984
 11  8 27 13 52 30.0000000  0 10G13G31G06G16G20G23G19G07G32G03
  -7304175.14846  -5682620.42443  22243153.7274                   22243150.6884
   4197576.52345   3267444.33343  24731803.5784                   24731805.0204
  -5038447.60246  -3901471.43444  22345268.0084                   22345267.4264
    -62665.76246    -45468.58045  20323905.0704                   20323901.9734
   2321386.59846   1815364.49444  21624937.8204                   21624935.5234
  -5918432.85247  -4593871.69644  20692298.6884                   20692293.5474
   4553053.43445   1302151.34042  24056394.9534                   24056391.2114
   5837502.81655   3500820.20752  24559330.6804                   24559330.9184
   4411325.15246   3436673.96844  22280630.4774                   22280629.6174
  -7124446.85546  -5546808.58844  21896463.5554                   21896461.7854
 11  8 27 13 53  0.0000000  0 10G13G31G06G16G20G23G19G07G32G03
  -7483508.21946  -5822360.53643  22209027.2974                   22209025.0514
   4163539.74245   3240922.12143  24725326.1334                   24725327.3014
  -5177260.36346  -4009637.22144  22318852.8054                   22318853.2114
   -127585.68446    -96055.53745  20311551.3594                   20311548.2154
   2284176.63746   1786369.66044  21617856.6564                   21617854.0864
  -6070372.22346  -4712266.02545  20663385.8204                   20663381.0704
   4365426.94945   1155948.92642  24020690.7584                   24020687.2664
   5681663.45744   3379386.87942  24529675.5554                   24529674.6174
   4395304.96546   3424190.66244  22277582.6414                   22277581.8444
  -7294289.64146  -5679153.59043  21864143.9454                   21864141.8834
 11  8 27 13 53 30.0000000  0 10G13G31G06G16G20G23G19G07G32G03
  -7662831.76646  -5962093.14243  22174903.7814                   22174901.0634
   4129353.82045   3214283.69543  24718820.2344                   24718820.9774
  -5315760.68446  -4117559.54944  22292497.2424                   22292497.5784
   -192067.56246   -146301.18945  20299280.7894                   20299277.7304
   2247275.18446   1757615.26244  21610834.8364                   21610832.0594
  -6222104.81646  -4830499.24244  20634511.8364                   20634507.5234
   4177656.67245   1009634.41442  23984958.1954                   23984954.5354
                                  24500012.7664                   24500012.2974
   4379455.26646   3411840.18144  22274566.5554                   22274565.9384
  -7463902.16446  -5811319.17244  21831867.1334                   21831865.9654
 11  8 27 13 54  0.0000000  0 10G13G31G06G16G20G23G19G07G32G03
  -7842144.98046  -6101817.73143  22140780.7274                   22140779.1134
   4095018.02045   3187528.53142  24712286.2344                   24712286.7424
  -5453947.41046  -4225237.52944  22266201.3134                   22266201.1454
   -256114.12546   -196207.61445  20287092.3754                   20287090.1724
   2210678.67646   1729098.45344  21603870.0474                   21603867.9694
  -6373629.30147  -4948570.26645  20605678.1804                   20605673.1214
   3989744.30945    863209.38742  23949200.6564                   23949195.4144
                                  24470343.750
   4363772.22746   3399619.56844  22271581.8524                   22271580.9064
  -7633282.73046  -5943304.02344  21799635.2814                   21799633.7774
 11  8 27 13 54 30.0000000  0 10G13G31G06G16G20G23G19G07G32G03
  -8021444.96146  -6241531.99543  22106660.2194                   22106658.2814
   4060533.35945   3160657.29742  24705724.7114                   24705723.3954
  -5591817.41446  -4332668.67444  22239964.7344                   22239965.0234
   -319727.00446   -245776.08945  20274988.1254                   20274984.9454
   2174384.69946   1700817.39644  21596964.1954                   21596961.6564
  -6524942.85946  -5066476.95844  20576884.1484                   20576879.4264
   3801693.23445    716676.12542  23913415.7274                   23913411.2814
   5213913.85915                  24440665.953
   4348253.90646   3387527.27543  22268628.2114                   22268627.5594
  -7802427.60946  -6075105.20344  21767447.8984                   21767446.5084
 11  8 27 13 55  0.0000000  0 10G13G31G06G16G20G23G19G07G32G03
  -8200728.36746  -6381233.28843  22072544.1094                   22072541.0824
   4025901.50845   3133671.40642  24699135.4064                   24699132.9924
  -5729366.85546  -4439850.09543  22213789.4924                   22213789.9104
   -382906.53146   -295006.92545  20262965.6884                   20262962.2304
   2138392.41846   1672771.39644  21590115.1024                   21590112.9304
  -6676041.48846  -5184216.14844  20548130.0784                   20548126.2894
   3613508.00045    570038.38342  23877604.1644                   23877602.4064
   5057919.79715                  24410982.367
   4332899.34846   3375562.63143  22265706.7734                   22265706.0514
  -7971331.91446  -6206718.90344  21735306.3134                   21735304.4344
 11  8 27 13 55 30.0000000  0 10G13G31G06G16G20G23G19G07G32G03
  -8379991.99646  -6520919.26043  22038431.8524                   22038428.2504
   3991123.44145   3106571.59643  24692517.5704                   24692515.7464
  -5866592.68746  -4546779.34643  22187676.7734                   22187676.2734
   -445653.87546   -343900.96245  20251025.1334                   20251022.2074
   2102699.83246   1644958.91844  21583323.7584                   21583321.7894
  -6826922.07846  -5301785.44545  20519418.8754                   20519414.6374
   3425192.03145    423298.73842  23841768.7814                   23841767.3634
   4901887.313 5                  24381290.938
   4317706.53946   3363724.05044  22262816.0004                   22262815.0474
  -8139991.43046  -6338141.89444  21703211.7034                   21703209.8954
 11  8 27 13 56  0.0000000  0 10G13G31G06G16G20G23G19G07G32G03
  -8559234.48046  -6660588.75843  22004323.2194                   22004319.3594
                                  24685872.0864                   24685869.8244
  -6003492.98446  -4653454.88743  22161626.1024                   22161625.6684
   -507971.58646   -392460.23045  20239166.2584                   20239162.9964
   2067303.93046   1617377.66144  21576586.7584                   21576586.0004
  -6977582.65647  -5419183.32544  20490748.8524                   20490744.7154
   3236747.52345    276458.97742  23805909.1414                   23805907.2194
   4745815.60515                  24351591.445
   4302672.35246   3352009.00344  22259955.4304                   22259954.7384
  -8308403.80546  -6469372.28544  21671164.2274                   21671161.9304
 11  8 27 13 56 30.0000000  0 10G13G31G06G16G20G23G19G07G32G03
  -7163024.96146  -5572633.27343  22270012.6954                   22270010.5274
   5496553.23845   4279633.56642  24978991.1254                   24978990.1994
  -4564638.27746  -3532269.37543  22435431.6024                   22435430.6174
   1005563.05546    786917.40345  20527182.4224                   20527179.4494
   3607626.06346   2817628.64944  21869700.6024                   21869699.3484
  -5552593.27046  -4308801.97444  20761915.9224                   20761911.4024
   4623607.07445   1357128.82042  24069820.6954                   24069817.0554
   6165131.645 5                  24621678.086
   5863217.31646   4568018.02344  22556917.2734                   22556916.8524
  -6901137.66046  -5372801.23644  21938957.4694                   21938956.5354
 11  8 27 13 57  0.0000000  0 10G13G31G06G16G20G23G19G07G32G03
  -7342213.47746  -5712260.67143  22235914.6174                   22235912.7344
   5461342.98455   4252196.95752  24972292.0634                   24972289.9924
  -4700875.78146  -3638428.49943  22409506.3834                   22409505.6844
    944103.60946    739026.89945  20515486.5554                   20515483.8674
   3572820.54746   2790507.40244  21863077.7274                   21863075.8284
  -5702801.67246  -4425847.48044  20733331.7734                   20733327.6724
   4434920.34046   1210100.36043  24033915.0784                   24033910.5474
   6008984.16815                  24591963.109
   5848497.47346   4556547.95244  22554115.5554                   22554115.3594
  -7069041.08646  -5503635.05344  21907006.9924                   21907005.1644
 11  8 27 13 57 30.0000000  0 10G13G31G06G16G20G23G19G07G32G03
  -7521374.74646  -5851866.90343  22201821.4304                   22201820.3834
   5425987.40255   4224647.13752  24965563.0004                   24965562.5124
  -4836781.07046  -3744328.71543  22383644.6414                   22383643.7154
    883067.73046    691466.45345  20503872.1564                   20503869.6684
   3538303.52746   2763610.98844  21856508.9454                   21856507.2584
  -5852783.04346  -4542716.08445  20704791.1564                   20704787.4964
   4246114.12146   1062978.80143  23997986.2274                   23997983.0314
                                  24562241.7504                   24562240.4304
   5833928.40246   4545195.35943  22551343.6174                   22551343.1994
  -7236687.93446  -5634268.94144  21875104.6564                   21875103.1994
 11  8 27 13 58  0.0000000  0  9G13G06G16G20G23G19G07G32G03
  -7700502.84846  -5991447.21643  22167734.2894                   22167732.8324
  -4972348.72746  -3849965.82743  22357846.0634                   22357845.3204
    822456.33246    644236.76645  20492338.1334                   20492335.7194
   3504075.60246   2736939.83044  21849995.8754                   21849993.9024
  -6002532.19146  -4659403.75145  20676295.6174                   20676291.0864
   4057194.41045    915768.53343  23962036.5474                   23962032.6094
                                  24532512.9304                   24532511.8244
   5819510.32046   4533960.44143  22548600.2734                   22548598.7664
  -7404071.90246  -5764697.99344  21843252.5004                   21843250.8244
 11  8 27 13 58 30.0000000  0  9G13G06G16G20G23G19G07G32G03
  -7879592.72546  -6130997.78444  22133654.5084                   22133652.4964
  -5107573.44146  -3955335.72743  22332113.7584                   22332113.2304
    762270.37046    597338.61945  20480885.1804                   20480882.6764
   3470136.84146   2710494.02744  21843538.1334                   21843535.7774
  -6152043.17246  -4775905.83245  20647844.5084                   20647840.0664
   3868167.10945    768474.63643  23926064.0234                   23926062.2034
   5540306.46555   3269238.25452  24502777.6954                   24502776.2034
   5805243.82046   4522843.58444  22545885.4844                   22545884.0434
  -7571187.16846  -5894917.62244  21811450.2894                   21811450.3594
 11  8 27 13 59  0.0000000  0  9G13G06G16G20G23G19G07G32G03
  -8058638.42246  -6270513.90543  22099583.3754                   22099581.3874
  -5242449.16046  -4060433.68943  22306447.4694                   22306446.1644
    702511.60546    550773.28545  20469513.5704                   20469510.6454
   3436488.52346   2684274.46544  21837134.3674                   21837133.2234
  -6301310.06247  -4892217.70445  20619439.6804                   20619435.7074
   3679038.89145    621101.94143  23890075.3364                   23890072.2424
   5384010.75445   3147449.36843  24473034.5474                   24473034.6294
   5791129.87146   4511845.61343  22543199.4534                   22543198.6454
  -7738026.02346  -6024921.94444  21779702.0164                   21779701.4574
 11  8 27 13 59 30.0000000  0  9G13G06G16G20G23G19G07G32G03
  -8237632.78946  -6409990.08144  22065522.6724                   22065519.7194
  -5376968.58246  -4165254.00543  22280850.0634                   22280848.4414
    643183.20746    504543.32645  20458223.5864                   20458220.4534
   3403133.11746   2658283.16044  21830787.3284                   21830785.6524
  -6450325.61346  -5008333.73545  20591083.3204                   20591079.0474
   3489818.21145    473657.30443  23854067.8754                   23854064.7974
   5227686.94545   3025638.62743  24443287.0164                   24443287.5234
   5777171.19546   4500968.64243  22540543.4144                   22540542.5044
  -7904580.40646  -6154704.61044  21748008.3134                   21748007.3714
 11  8 27 14  0  0.0000000  0  9G13G06G16G20G23G19G07G32G03
  -8416573.36346  -6549424.30043  22031470.0944                   22031468.9384
  -5511129.32446  -4269794.84143  22255320.0234                   22255318.5314
    584283.01646    458647.04545  20447014.7584                   20447012.4414
   3370068.13346   2632518.18244  21824495.1414                   21824494.0084
  -6599086.45846  -5124251.26445  20562774.9694                   20562770.6024
   3300507.95745    326142.87843  23818043.6644                   23818040.4024
   5071334.35545   2903805.34243  24413535.1644                   24413534.4104
   5763365.07846   4490210.59743  22537916.2974                   22537914.8834
  -8070847.28546  -6284263.19544  21716368.5634                   21716368.7114
 11  8 27 14  0 30.0000000  0  9G13G06G16G20G23G19G07G32G03
  -8595463.21946  -6688818.95144  21997429.3364                   21997427.3794
  -5644934.36346  -4374058.50943  22229857.5784                   22229856.2624
    525803.84446    413078.82245  20435887.2734                   20435884.3284
   3337285.60546   2606973.32244  21818256.9304                   21818255.7194
  -6747595.75646  -5239972.80744  20534514.7194                   20534509.6724
   3111105.93045    178556.97943  23782001.1254                   23781998.2934
   4914947.49645   2781945.40843  24383776.1024                   24383774.9614
   5749703.67246   4479565.22343  22535316.8204                   22535315.2854
  -8236828.87046  -6413599.46744  21684784.4454                   21684783.6174
 11  8 27 14  1  0.0000000  0  9G13G06G16G20G23G19G07G32G03
  -8774300.54346  -6828172.75943  21963397.6564                   21963395.4804
  -5778382.12946  -4478043.76843  22204463.4304                   22204462.4024
    467742.76246    367836.38345  20424838.6094                   20424836.2234
   3304782.09446   2581645.87344  21812072.2034                   21812070.6724
  -6895851.58246  -5355496.89545  20506302.3284                   20506298.0594
   2921614.54345     30901.46943  23745941.5084                   23745937.8954
   4758524.92646   2660057.71643  24354009.2344                   24354008.7344
   5736183.75846   4469030.20843  22532744.3524                   22532743.0514
  -8402522.57446  -6542711.53044  21653253.9384                   21653253.0164
 11  8 27 14  1 30.0000000  0  9G13G06G16G20G23G19G07G32G03
  -8953082.39846  -6967483.30443  21929376.1724                   21929374.2854
  -5911469.66846  -4581748.29943  22179137.0864                   22179136.5864
    410098.47346    322918.75645  20413869.5084                   20413866.6954
   3272555.41446   2556534.11844  21805938.9614                   21805937.4884
  -7043851.26646  -5470821.32645  20478139.2344                   20478134.3484
   2732037.78145   -116820.60242  23709866.1954                   23709862.2304
   4602067.31346   2538142.71443  24324236.3754                   24324236.0204
   5722803.54346   4458604.00443  22530198.0554                   22530196.2624
  -8567924.45146  -6671596.05344  21621779.0234                   21621778.7074
 11  8 27 14  2  0.0000000  0  9G13G06G16G20G23G19G07G32G03
  -9131806.42646  -7106748.81343  21895366.0394                   21895364.2624
  -6044194.78946  -4685170.46743  22153880.5704                   22153879.3244
    352869.07246    278324.41845  20402978.9384                   20402976.3204
   3240603.64846   2531636.60544  21799858.9774                   21799857.4654
  -7191591.85246  -5585943.86845  20450024.9614                   20450020.2034
   2542378.68045   -264606.91443  23673775.3284                   23673771.6214
   4445574.17246   2416199.95843  24294455.7504                   24294455.7274
   5709560.45746   4448284.63043  22527677.8364                   22527677.0164
  -8733030.97346  -6800250.49944  21590359.9384                   21590359.7074
 11  8 27 14  2 30.0000000  0  9G13G06G16G20G23G19G07G32G03
  -9310471.14146  -7245968.03543  21861367.3594                   21861365.2274
  -6176556.10546  -4788309.15843  22128693.4454                   22128691.4694
    296051.33246    234050.78045  20392166.7424                   20392164.6174
   3208922.65246   2506950.08344  21793830.4614                   21793828.7934
  -7339071.91446  -5700863.41745  20421960.0394                   20421956.1484
   2352639.08245   -412455.83543  23637669.0234                   23637666.4654
   4289043.83645   2294228.19343  24264670.0784                   24264668.4844
   5696450.93446   4438069.32443  22525182.4924                   22525182.7034
  -8897840.28946  -6928673.31544  21558997.3674                   21558996.8754
 11  8 27 14  3  0.0000000  0  9G13G06G16G20G23G19G07G32G03
  -9489072.66846  -7385138.09343  21827381.3754                   21827378.6564
  -6308549.94146  -4891161.48943  22103575.5314                   22103573.6644
    239644.71646    190097.60745  20381433.0164                   20381430.6994
   3177511.10546   2482473.47244  21787853.8674                   21787851.4264
  -7486287.42846  -5815576.78045  20393945.9304                   20393941.9614
   2162824.09445   -560363.58643  23601549.3594                   23601545.0944
   4132477.53545   2172228.46543  24234876.5944                   24234875.2074
   5683473.95346   4427957.32843  22522713.5004                   22522712.9774
  -9062347.60546  -7056860.81543  21527692.1024                   21527690.7814
 11  8 27 14  3 30.0000000  0  9G13G06G16G20G23G19G07G32G03
  -9667612.14846  -7524259.72543  21793405.8754                   21793403.7074
  -6440177.57446  -4993728.47143  22078527.0704                   22078526.0594
    183643.77046    146460.40845  20370776.1174                   20370773.9614
   3146363.22546   2458202.33643  21781926.3204                   21781923.7664
  -7633239.33646  -5930084.80745  20365982.5164                   20365977.7154
   1972933.07845   -708330.55543  23565413.9774                   23565410.8094
   3975871.34046   2050197.62143  24205075.2734                   24205074.6374
   5670623.39546   4417943.85643  22520268.1804                   22520267.3404
  -9226552.94146  -7184813.00643  21496445.1564                   21496444.0204
 11  8 27 14  4  0.0000000  0  9G13G06G16G20G23G19G07G32G03
  -9846088.84846  -7663332.47243  21759443.3284                   21759440.5044
  -6571438.63346  -5096009.81743  22053549.4924                   22053548.5314
    128044.64546    103136.38945  20360196.4694                   20360193.3754
   3115474.71146   2434133.25244  21776048.3284                   21776046.2384
  -7779927.04346  -6044386.92045  20338068.5084                   20338064.2704
   1782967.41045   -856355.65943  23529262.9924                   23529261.5704
   3819222.95345   1928133.99543  24175266.0474                   24175265.1954
   5657895.01646   4408025.59243  22517846.0634                   22517846.3324
  -9390455.18446  -7312529.04544  21465255.7114                   21465254.9844
 11  8 27 14  4 30.0000000  0  9G13G06G16G20G23G19G07G32G03
  -8449076.02346  -6574750.99843  22025286.0784                   22025283.3914
  -5126907.65646  -3970401.26743  22328434.6804                   22328433.7734
   1648265.85546   1287724.30645  20649484.9694                   20649481.8834
   4660262.28946   3637863.74944  22070011.4844                   22070010.3754
  -6350924.53146  -4930878.47745  20609998.8674                   20609994.7814
   3168355.42655    223167.54953  23792894.2344                   23792891.6094
   5237955.94545   3033640.17943  24445242.7344                   24445241.0434
   7220705.41046   5625799.84343  22815238.9614                   22815239.0394
  -7978626.69546  -6212402.94044  21733918.2114                   21733917.4804
 11  8 27 14  5  0.0000000  0  9G13G06G16G20G23G19G07G32G03
  -8627422.03146  -6713721.95243  21991347.5234                   21991345.0354
  -5257430.44946  -4072107.33244  22303597.0864                   22303596.3554
   1593462.36346   1245020.24645  20639055.5084                   20639053.0514
   4629882.27746   3614190.99344  22064231.0084                   22064229.5554
  -6497077.94946  -5044764.27745  20582185.8674                   20582182.3984
   2978248.39545     75032.27943  23756717.4384                   23756715.5434
   5081220.27055   2911508.46753  24415416.1804                   24415415.5984
   7208212.03946   5616064.64644  22812862.4774                   22812861.9024
  -8141914.53946  -6339640.23344  21702845.1174                   21702845.4534
 11  8 27 14  5 30.0000000  0  9G13G06G16G20G23G19G07G32G03
  -8805695.67246  -6852636.50143  21957422.9844                   21957421.6174
  -5387577.87146  -4173520.91544  22278831.4064                   22278830.4734
   1539056.34846   1202625.92945  20628702.9304                   20628699.9224
   4599755.60246   3590715.61744  22058497.6804                   22058496.2034
  -6642957.39546  -5158436.55245  20554426.5784                   20554422.2624
   2788078.55955    -73151.89553  23720529.8914                   23720527.2774
   4924443.45345   2789344.70843  24385582.7664                   24385582.5864
   7195835.30146   5606420.34143  22810506.8204                   22810506.6024
  -8304887.53146  -6466632.20744  21671833.3674                   21671832.6094
 11  8 27 14  6  0.0000000  0  9G13G06G16G20G23G19G07G32G03
  -8983894.09445  -6991492.39043  21923513.1024                   21923511.0474
  -5517347.21946  -4274639.86944  22254136.6094                   22254135.5704
   1485046.25046   1160540.11745  20618425.5164                   20618422.7344
   4569880.40646   3567436.22944  22052811.6024                   22052811.0234
  -6788559.70746  -5271892.91745  20526718.8754                   20526715.0864
   2597850.03545   -221381.82143  23684330.8284                   23684327.1524
   4767625.84455   2667149.14953  24355741.7194                   24355740.8914
   7183573.37146   5596865.57143  22808173.8054                   22808173.0784
  -8467541.52745  -6593375.59244  21640880.6024                   21640880.5554
 11  8 27 14  6 30.0000000  0  9G13G06G16G20G23G19G07G32G03
  -9162016.63746  -7130289.18843  21889617.4144                   21889615.3054
  -5646738.44946  -4375464.17144  22229514.0394                   22229513.1094
   1431427.66446   1118759.35745  20608221.6024                   20608219.3754
   4540251.87546   3544349.01744  22047174.3444                   22047172.9924
  -6933884.52346  -5385133.02545  20499064.8674                   20499060.5864
   2407563.88345   -369656.73743  23648121.3524                   23648116.1094
   4610764.98845   2544919.88243  24325891.2584                   24325891.3674
   7171421.58246   5587396.52643  22805861.0704                   22805859.9534
  -8629875.96546  -6719869.93444  21609989.7894                   21609989.3954
 11  8 27 14  7  0.0000000  0  9G13G06G16G20G23G19G07G32G03
  -9340060.62946  -7269024.78743  21855735.6484                   21855735.1134
  -5775748.79746  -4475991.80344  22204963.5554                   22204963.6174
   1378199.32446   1077282.75245  20598092.9844                   20598090.5124
   4510867.77746   3521452.22944  22041583.1254                   22041581.7074
  -7078928.59846  -5498154.40745  20471464.1334                   20471460.1024
   2217224.18045   -517973.24043  23611898.9454                   23611895.7814
   4453860.83245   2422656.92543  24296033.5234                   24296033.6524
   7159377.94546   5578011.76243  22803569.5084                   22803568.5984
  -8791887.05546  -6846112.34144  21579160.0234                   21579158.5824
 11  8 27 14  7 30.0000000  0  9G13G06G16G20G23G19G07G32G03
  -9518023.70346  -7407697.30243  21821871.7424                   21821869.4804
  -5904376.24246  -4576220.96443  22180487.2814                   22180486.1644
   1325358.95346   1036108.39045  20588037.6484                   20588035.0354
   4481725.11746   3498743.62044  22036036.6094                   22036035.4494
  -7223689.58246  -5610955.16645  20443916.9064                   20443913.1724
   2026833.05545   -666329.90642  23575669.1884                   23575665.3714
   4296913.05945   2300359.90643  24266167.2584                   24266166.9924
   7147439.76646   5568709.25143  22801298.1564                   22801296.9384
  -8953571.82846  -6972100.45544  21548392.9774                   21548390.7424
 11  8 27 14  8  0.0000000  0  9G13G06G16G20G23G19G07G32G03
  -9695902.48046  -7546304.14743  21788022.9774                   21788020.8874
  -6032618.36745  -4676149.93443  22156083.7814                   22156082.0354
   1272905.02746    995235.20845  20578055.8834                   20578053.5984
   4452821.95746   3476221.61344  22030536.7664                   22030535.1804
  -7368164.53146  -5723533.05245  20416424.2114                   20416420.3524
   1836395.19545   -814722.99642  23539430.0634                   23539425.7894
   4139922.14155   2178029.35453  24236292.8364                   24236292.5084
   7135605.18045   5559487.40643  22799044.7734                   22799045.2664
  -9114926.52046  -7097831.37144  21517687.4144                   21517685.2894
 11  8 27 14  8 30.0000000  0  9G13G06G16G20G23G19G07G32G03
  -9873696.76646  -7684845.14243  21754189.0084                   21754187.2504
  -6160475.00846  -4775778.48143  22131753.2814                   22131751.0904
   1220832.98846    954659.60645  20568147.0554                   20568144.4694
   4424153.57846   3453882.51844  22025082.0084                   22025080.2774
  -7512352.91046  -5835887.62845  20388986.2344                   20388982.2704
   1645911.35555   -963151.84653  23503182.8754                   23503178.4774
   3982884.85955   2055662.59753  24206410.0784                   24206410.3164
   7123869.26245   5550342.46243  22796811.7734                   22796811.9184
  -9275949.77046  -7223303.96843  21487046.2034                   21487043.8204
 11  8 27 14  9  0.0000000  0  9G13G06G16G20G23G19G07G32G03
 -10051401.99646  -7823316.75443  21720372.8834                   21720370.5354
  -6287941.66045  -4875103.12444  22107497.2504                   22107495.7114
   1169143.34846    914381.96145  20558310.3984                   20558308.3874
   4395719.65646   3431726.15643  22019671.1254                   22019669.5984
  -7656249.94146  -5948015.22145  20361603.2974                   20361599.1254
   1455387.19945  -1111612.20343  23466927.1644                   23466923.9224
   3825803.64145   1933261.60243  24176518.8364                   24176517.7584
   7112232.21945   5541274.51143  22794597.9774                   22794597.9494
  -9436636.20346  -7348514.15344  21456467.2664                   21456466.0084
 11  8 27 14  9 30.0000000  0  9G13G06G16G20G23G19G07G32G03
 -10229014.68045  -7961716.25043  21686574.3204                   21686571.4614
  -6415015.89845  -4974122.02043  22083316.2194                   22083314.2424
   1117833.93046    874400.56845  20548547.2114                   20548544.1214
   4367517.87546   3409750.68443  22014303.2034                   22014302.8754
  -7799852.52746  -6059913.35744  20334276.5164                   20334272.4924
   1264826.51245  -1260100.98443  23430664.2894                   23430661.1844
   3668678.45745   1810826.39543  24146618.3984                   24146617.8794
   7100691.92246   5532282.01643  22792401.5554                   22792402.3444
  -9596982.26645  -7473459.12544  21425955.3754                   21425953.3014
 11  8 27 14 10  0.0000000  0  9G13G06G16G20G23G19G07G32G03
 -10406532.55945  -8100041.88243  21652793.5004                   21652791.2734
  -6541695.72745  -5072833.57244  22059209.3444                   22059209.3634
   1066902.78546    834713.96245  20538855.0004                   20538852.3714
   4339545.24645   3387953.79544  22008981.7034                   22008979.5634
  -7943158.27746  -6171580.16644  20307006.6254                   20307002.0664
   1074232.37145  -1408615.80043  23394395.5784                   23394392.3364
   3511508.81345   1688356.52643  24116710.4924                   24116709.4804
   7089245.57845   5523362.72343  22790223.6334                   22790223.4884
  -9756984.69545  -7598136.33444  21395507.7664                   21395506.3794
 11  8 27 14 10 30.0000000  0  9G13G06G16G20G23G19G07G32G03
 -10583953.74246  -8238292.16543  21619031.2034                   21619029.4104
  -6667979.94145  -5171236.85544  22035178.7194                   22035178.6334
   1016346.92646    795319.75645  20529234.3984                   20529231.8444
   4311798.70345   3366332.97944  22003702.1954                   22003699.9614
  -8086165.39546  -6283014.29944  20279793.0554                   20279788.8634
                                  23358119.6094                   23358117.7234
   3354294.14545   1565851.57243  24086793.6564                   24086792.2384
   7077890.25445   5514514.38843  22788062.8284                   22788062.4804
  -9916641.66446  -7722544.32743  21365125.9304                   21365124.5124
 11  8 27 14 11  0.0000000  0  9G13G06G16G20G23G19G07G32G03
 -10761273.75445  -8376463.59843  21585288.8054                   21585286.5944
  -6793864.91845  -5269329.04944  22011223.8134                   22011223.3634
    966165.78946    756217.53945  20519685.4694                   20519682.7974
   4284276.96945   3344887.44043  21998463.9454                   21998462.9494
  -8228869.84446  -6394212.55544  20252637.0864                   20252633.0394
    692957.32055  -1705713.11353  23321840.2814                   23321837.5314
   3197035.30155   1443312.23353  24056866.8834                   24056866.5744
   7066624.53945   5505735.77243  22785919.2734                   22785918.0594
 -10075948.39545  -7846679.41943  21334810.1644                   21334809.4574
 11  8 27 14 11 30.0000000  0  9G13G06G16G20G23G19G07G32G03
 -10938489.91045  -8514554.11643  21551565.7814                   21551563.9064
  -6919348.16845  -5367108.19644  21987344.9224                   21987344.6884
    916357.52346    717405.85045  20510207.2114                   20510204.7194
   4256978.06645   3323615.51344  21993269.4614                   21993268.0634
  -8371268.43446  -6505172.49844  20225539.2194                   20225535.7774
                                  23285556.4534                   23285554.0864
   3039732.53945   1320738.65343  24026933.8984                   24026932.1024
   7055446.80145   5497025.77543  22783792.1414                   22783791.3594
 -10234900.84445  -7970538.45744  21304562.4534                   21304561.9654
 11  8 27 14 12  0.0000000  0  9G13G06G16G20G23G19G07G32G03
 -11115601.40645  -8652563.08643  21517863.1724                   21517860.7464
  -7044429.87945  -5464574.48044  21963542.4064                   21963541.7034
    866917.65246    678881.25445  20500799.1884                   20500796.4924
   4229896.92245   3302513.25444  21988116.4534                   21988115.5354
  -8513361.04746  -6615894.03645  20198500.7664                   20198496.5704
                                  23249269.8134                   23249266.4064
   2882383.34445   1198128.79343  23996992.0864                   23996989.4264
   7044352.23045   5488380.52743  22781680.7114                   22781680.1334
 -10393498.43445  -8094120.96544  21274383.0474                   21274381.7854
 11  8 27 14 12 30.0000000  0  9G13G06G16G20G23G19G07G32G03
  -9717178.61745  -7562883.03643  21783973.0944                   21783971.1374
  -5593682.32445  -4334121.78943  22239609.9614                   22239609.8284
   2393267.47746   1868244.71645  20791253.7814                   20791251.3164
   5778453.33245   4509180.49243  22282797.3364                   22282796.4264
  -7079718.66446  -5498770.09444  20471313.0704                   20471309.9614
   1696310.25455   -923879.48753  23512773.1724                   23512768.7304
   4300414.25455   2303087.94253  24266833.9064                   24266832.2034
   8608760.18446   6707399.65943  23079379.1804                   23079376.8714
  -8976311.19945  -6989819.24944  21544064.7974                   21544064.0554
 11  8 27 14 13  0.0000000  0  9G13G06G16G20G23G19G07G32G03
  -9894071.61345  -7700721.70443  21750311.8674                   21750309.7734
  -5717952.77745  -4430955.94744  22215962.0704                   22215961.8094
   2344560.25445   1830291.02845  20781985.7034                   20781982.9144
   5751801.77745   4488413.01443  22277725.5314                   22277723.8134
  -7221189.46946  -5609007.07344  20444392.6024                   20444388.5744
   1505588.39145  -1072493.88343  23476479.8054                   23476476.1174
   4142973.77045   2180407.00143  24236874.6254                   24236873.3324
   8597826.64845   6698879.88543  23077297.3284                   23077297.4104
  -9134187.52345  -7112839.70944  21514021.9614                   21514020.9144
 11  8 27 14 13 30.0000000  0  9G13G06G16G20G23G19G07G32G03
 -10070850.77745  -7838471.72643  21716672.3284                   21716670.2774
  -5841814.79345  -4527471.76743  22192392.2894                   22192391.8554
   2296215.71946   1792619.94645  20772785.7974                   20772783.0354
   5725361.04746   4467809.76444  22272693.9924                   22272692.5234
  -7362345.71546  -5718998.93744  20417531.4384                   20417526.8554
                                  23440184.2274                   23440181.2624
                                  24206905.1414                   24206904.1604
   8586969.84045   6690419.95643  23075231.1334                   23075232.0864
  -9291698.52045  -7235575.52144  21484048.7344                   21484047.7344
 11  8 27 14 14  0.0000000  0  9G13G06G16G20G23G19G07G32G03
 -10247512.43445  -7976130.12243  21683054.2344                   21683052.5944
  -5965264.85545  -4623666.58344  22168900.0004                   22168900.3554
   2248233.48446   1755231.16645  20763654.8134                   20763652.3444
   5699130.20745   4447370.12343  22267702.8914                   22267700.9534
  -7503183.00446  -5828742.26544  20390730.4224                   20390726.3054
   1124121.13345  -1369741.05343  23403888.4844                   23403885.4884
   3827955.14845   1934937.96043  24176927.4304                   24176927.6174
   8576188.91445   6682019.11743  23073180.2034                   23073181.1844
  -9448839.92645  -7358023.32944  21454145.7344                   21454144.2194
 11  8 27 14 14 30.0000000  0  9G13G06G16G20G23G19G07G32G03
 -10424055.27045  -8113695.95543  21649458.9064                   21649457.6094
  -6088302.57045  -4719540.15044  22145486.6564                   22145486.8204
   2200609.84446   1718121.81845  20754592.8284                   20754589.7624
   5673104.87946   4427090.55943  22262749.6644                   22262748.2424
  -7643700.55946  -5938236.46944  20363991.1724                   20363986.8594
    933382.59046  -1518368.41843  23367591.6174                   23367588.9774
   3670376.43845   1812149.27343  24146941.4454                   24146940.9144
   8565479.84455   6673674.34053  23071141.9774                   23071142.3914
  -9605610.09045  -7480181.91744  21424312.4924                   21424311.8444
 11  8 27 14 15  0.0000000  0  9G13G06G16G20G23G19G07G32G03
 -10600479.79345  -8251169.57943  21615887.0394                   21615884.4224
  -6210929.26645  -4815093.43044  22122151.1254                   22122151.7584
   2153339.37146   1681287.68845  20745597.0784                   20745595.0634
   5647279.05145   4406966.47743  22257834.3984                   22257834.0204
  -7783899.00446  -6047482.01645  20337312.4844                   20337308.2734
    742641.63745  -1666997.70943  23331294.6724                   23331292.7274
   3512747.60545   1689321.76243  24116945.7194                   24116944.6214
   8554836.96945   6665381.08243  23069117.2344                   23069117.1564
  -9762008.86745  -7602051.04344  21394550.6174                   21394550.1094
 11  8 27 14 15 30.0000000  0  9G13G06G16G20G23G19G07G32G03
 -10776779.54346  -8388546.00744  21582338.0394                   21582335.8204
  -6333139.34045  -4910322.04144  22098895.8754                   22098895.3984
   2106423.39846   1644729.73445  20736669.9144                   20736666.8874
   5621653.78145   4386998.64043  22252959.2734                   22252957.9964
  -7923771.96946  -6156473.94545  20310695.3524                   20310691.6724
    551905.47355  -1815623.26253  23294999.7504                   23294995.5044
                                  24086941.3364                   24086940.2464
   8544261.49646   6657140.32243  23067104.8914                   23067104.3244
  -9918029.94946  -7723625.94044  21364860.2034                   21364860.5944
 11  8 27 14 16  0.0000000  0  9G13G06G16G20G23G19G07G32G03
 -10952953.38347  -8525824.32244  21548813.3134                   21548811.3554
  -6454932.30146  -5005225.65043  22075718.8364                   22075718.7384
   2059858.40647   1608445.28345  20727808.8134                   20727805.9104
   5596225.12946   4367184.05243  22248120.7974                   22248118.8404
  -8063318.56247  -6265211.52245  20284140.8284                   20284136.8324
    361176.18045  -1964243.44143  23258704.3834                   23258701.2344
   3197348.07045   1443555.80542  24056927.7344                   24056927.1334
   8533749.53946   6648949.15643  23065105.1414                   23065104.4924
 -10073671.34446  -7844904.94344  21335243.5234                   21335243.1564
 11  8 27 14 16 30.0000000  0  9G13G06G16G20G23G19G07G32G03
 -11128993.98047  -8662998.79744  21515314.0554                   21515312.0434
  -6576301.85246  -5099799.29544  22052623.7734                   22052623.4614
   2013646.36347   1572435.85745  20719015.0394                   20719012.2384
   5570994.59846   4347523.78043  22243319.5784                   22243317.4574
  -8202531.63747  -6373689.26145  20257648.8914                   20257645.3204
    170461.63346  -2112852.15543  23222412.9694                   23222409.1484
   3039579.72345   1320619.44343  24026904.8524                   24026904.4924
   8523303.25846   6640809.08443  23063117.3364                   23063116.9064
 -10228925.75046  -7965882.40344  21305700.4844                   21305698.8674
 11  8 27 14 17  0.0000000  0  9G13G06G16G20G23G19G07G32G03
 -11304900.62147  -8800068.88744  21481839.8674                   21481838.4694
  -6697248.18846  -5194043.14344  22029608.9384                   22029608.1914
   1967783.33646   1536698.40545  20710287.4614                   20710284.5234
   5545957.74646   4328014.48443  22238555.2424                   22238552.9614
  -8341410.86747  -6481906.85445  20231221.6174                   20231217.3324
    -20236.71546  -2261448.21443  23186125.7034                   23186120.2274
   2881765.28945   1197647.14842  23996873.2114                   23996872.8164
   8512918.15246   6632716.67743  23061140.8444                   23061141.7194
 -10383792.01246  -8086557.41944  21276230.2114                   21276229.1564
 11  8 27 14 17 30.0000000  0  9G13G06G16G20G23G19G07G32G03
 -11480671.85547  -8937033.45444  21448391.9224                   21448390.1914
  -6817770.73046  -5287956.81444  22006674.3284                   22006673.3244
   1922265.38746   1501229.85744  20701625.4844                   20701622.8014
   5521110.59446   4308653.00344  22233826.9774                   22233825.0824
  -8479955.09047  -6589863.39145  20204857.4774                   20204853.1174
   -210916.65646  -2410029.96243  23149839.1254                   23149835.6484
   2723902.47745   1074637.19142  23966833.2274                   23966832.2154
   8502590.31646   6624668.92543  23059175.0634                   23059176.2034
 -10538268.71946  -8206928.86044  21246834.5084                   21246832.9534
 11  8 27 14 18  0.0000000  0  9G13G06G16G20G23G19G07G32G03
 -11656306.61747  -9073891.69444  21414969.8134                   21414967.6914
  -6937869.30546  -5381540.09144  21983820.9224                   21983819.5044
   1877088.91846   1466027.40844  20693028.2734                   20693025.7974
   5496448.94146   4289436.09443  22229133.5164                   22229132.2234
  -8618163.22347  -6697558.04845  20178556.7734                   20178553.2234
   -401576.11346  -2558595.83343  23113558.4144                   23113554.6214
   2565990.26645    951588.69142  23936784.3054                   23936782.7734
   8492315.85546   6616662.69843  23057221.2734                   23057220.2194
 -10692354.37146  -8326995.59944  21217513.1884                   21217511.7934
 11  8 27 14 18 30.0000000  0  9G13G06G16G20G23G19G07G32G03
 -11831802.08647  -9210641.41444  21381574.1254                   21381571.3284
  -7057541.93046  -5474791.45044  21961047.5784                   21961046.3594
   1832251.92646   1431089.49945  20684496.0394                   20684493.8284
   5471970.20746   4270361.66944  22224475.7504                   22224474.6884
  -8756032.70747  -6804988.81945  20152321.6094                   20152317.5394
   -592211.68746  -2707142.97343  23077281.3054                   23077278.0744
   2408028.21545    828501.36742  23906724.2194                   23906723.1524
   8482092.64846   6608696.46043  23055274.8524                   23055274.7304
 -10846045.56246  -8446754.95644  21188266.6174                   21188265.0084
 11  8 27 14 19  0.0000000  0  9G13G06G16G20G23G19G07G32G03
 -12007154.51647  -9347279.64744  21348205.7584                   21348203.0204
  -7176786.03946  -5567708.94044  21938355.5004                   21938354.4064
   1787752.67647   1396414.75045  20676028.5164                   20676026.3794
   5447672.40246   4251428.27143  22219851.4924                   22219851.2034
  -8893560.02747  -6912152.97345  20126150.9694                   20126147.3714
   -782819.03146  -2855668.14543  23041010.7734                   23041007.1214
   2250017.08645    705375.78942  23876656.7194                   23876654.5864
   8471918.77046   6600768.66543  23053338.7734                   23053338.6484
 -10999338.63746  -8566204.12544  21159095.0944                   21159094.1914
 11  8 27 14 19 30.0000000  0  9G13G06G16G20G23G19G07G32G03
 -12182360.94147  -9483804.12644  21314865.3204                   21314863.3204
  -7295599.80546  -5660291.07644  21915746.4304                   21915745.3674
   1743589.15647   1362001.57945  20667624.7194                   20667622.5234
   5423553.11746   4232633.94343  22215261.7814                   22215261.0434
  -9030742.64547  -7019048.51845  20100045.8054                   20100042.1524
   -973394.41046  -3004168.41043  23004744.1174                   23004742.3204
   2091956.83245    582211.95742  23846578.3284                   23846577.5784
   8461792.12546   6592877.68443  23051412.0004                   23051412.7584
 -11152230.38346  -8685340.56044  21130001.5164                   21130000.1174
 11  8 27 14 20  0.0000000  0  9G13G06G16G20G23G19G07G32G03
 -12357415.25047  -9620210.07844  21281553.0084                   21281551.9924
  -7413978.03146  -5752533.83744  21893219.2344                   21893217.7624
   1699762.76247   1327851.11345  20659285.3524                   20659282.7774
   5399613.00446   4213979.23543  22210706.9454                   22210705.1604
  -9167574.52347  -7125670.76045  20074007.9924                   20074003.5824
  -1163930.85246  -3152638.34643  22968486.7734                   22968483.1604
   1933850.62945    459012.24642  23816492.6094                   23816490.6024
   8451713.68445   6585024.36443  23049493.8674                   23049495.1994
 -11304714.82847  -8804159.61244  21100984.9774                   21100983.5864
 11  8 27 14 20 30.0000000  0  9G13G06G16G20G23G19G07G32G03
 -10956890.84447  -8528892.33544  21548064.2814                   21548062.8794
  -5956497.27746  -4616834.56043  22170569.1254                   22170567.0944
   3231690.26647   2521560.84045  20950801.3204                   20950799.3914
   6951267.99646   5423061.01844  22505977.1724                   22505975.6804
  -7728631.04747  -6004416.12945  20347829.7274                   20347825.6134
    220999.19946  -2073472.02743  23232029.9694                   23232026.6454
   3351121.05145   1563378.83242  24086189.5944                   24086188.8554
  10017099.15245   7804805.15543  23347376.9924                   23347378.3444
  -9881366.14847  -7695056.74244  21371839.2664                   21371837.6764
 11  8 27 14 21  0.0000000  0  9G13G06G16G20G23G19G07G32G03
 -11131634.69147  -8665056.37344  21514811.1174                   21514809.4344
  -6074001.68746  -4708396.46343  22148208.1414                   22148206.9694
   3188528.43847   2487928.21645  20942587.6804                   20942585.4844
   6927675.87146   5404677.44443  22501488.3054                   22501486.1214
  -7864757.00447  -6110488.29245  20321925.9064                   20321921.2974
     30548.85246  -2221874.86843  23195788.9534                   23195785.0904
   3192919.76245   1440105.06642  24056085.0474                   24056083.7934
  10007107.50046   7797019.29643  23345475.5394                   23345476.3914
 -10033029.18047  -7813235.73144  21342979.0164                   21342977.1134
 11  8 27 14 21 30.0000000  0  9G13G06G16G20G23G19G07G32G03
 -11306218.39147  -8801095.61644  21481589.6884                   21481586.9104
  -6191065.95746  -4799615.35944  22125931.9064                   22125930.3874
   3145696.51647   2454552.64445  20934437.2344                   20934434.2584
   6904254.57846   5386427.00243  22497031.7974                   22497028.6214
  -8000525.48447  -6216281.91845  20296090.0084                   20296085.5044
   -159852.34846  -2370239.39443  23159555.9224                   23159552.9614
   3034671.31345   1316794.55542  24025971.4224                   24025969.6094
   9997156.41445   7789265.04943  23343582.8364                   23343582.8714
 -10184276.29347  -7931090.64944  21314196.7814                   21314195.7544
 11  8 27 14 22  0.0000000  0  9G13G06G16G20G23G19G07G32G03
 -11480642.30947  -8937010.36844  21448397.8594                   21448395.0904
  -6307691.62546  -4890492.48444  22103739.5784                   22103737.7384
   3103188.48847   2421429.48145  20926348.1094                   20926345.2274
   6880997.86746   5368304.81143  22492604.8284                   22492603.1684
  -8135937.20347  -6321797.54545  20270321.7194                   20270317.6884
   -350204.37146  -2518565.66043  23123333.0164                   23123330.0124
   2876372.43445   1193444.85542  23995848.0084                   23995846.3554
   9987240.11746   7781538.00343  23341695.4844                   23341695.5514
 -10335108.22747  -8048622.02944  21285494.0944                   21285492.7074
 11  8 27 14 22 30.0000000  0  9G13G06G16G20G23G19G07G32G03
 -11654901.70347  -9072796.88444  21415236.9614                   21415235.0944
  -6423875.11646  -4981025.11244  22081630.3594                   22081628.0944
   3061004.21146   2388558.59945  20918320.2734                   20918317.6844
   6857905.43046   5350310.60443  22488211.7034                   22488209.9024
  -8270987.71547  -6427031.69845  20244622.5634                   20244618.4654
   -540501.52346  -2666849.12643  23087121.0164                   23087118.0314
   2718025.18845   1070057.33242  23965716.0314                   23965713.5434
   9977358.17246   7773837.66043  23339814.8134                   23339815.2664
 -10485519.89146  -8165825.91344  21256871.9774                   21256870.3754
 11  8 27 14 23  0.0000000  0  9G13G06G16G20G23G19G07G32G03
 -11828995.22747  -9208454.15944  21382108.6334                   21382106.0354
  -6539616.39146  -5071213.05444  22059605.1174                   22059603.6414
   3019139.82846   2355936.98744  20910353.8674                   20910351.4454
   6834972.97746   5332441.14143  22483847.0704                   22483845.9694
  -8405675.87147  -6531983.52445  20218992.6644                   20218988.2074
   -730741.70746  -2815088.23843  23050919.9924                   23050916.4454
   2559627.85545    946630.82442  23935573.2274                   23935570.4654
   9967506.79746   7766161.23343  23337940.8674                   23337940.5864
 -10635510.12146  -8282701.41644  21228329.5234                   21228327.0274
 11  8 27 14 23 30.0000000  0  9G13G06G16G20G23G19G07G32G03
 -12002918.28547  -9343978.59144  21349011.9064                   21349009.6174
  -6654912.09446  -5161053.84343  22037665.2344                   22037663.5084
   2977594.91047   2323564.30545  20902448.4224                   20902445.1454
   6812199.62546   5314695.55743  22479512.7034                   22479512.6094
  -8539997.80547  -6636649.95045  20193432.0554                   20193427.4614
   -920919.35546  -2963278.57643  23014730.0944                   23014726.5124
   2401181.57045    823166.19142  23905422.1334                   23905420.1054
   9957685.34846   7758508.07643  23336071.8054                   23336071.0634
 -10785074.07846  -8399244.74344  21199868.6094                   21199866.8404
 11  8 27 14 24  0.0000000  0  9G13G06G16G20G23G19G07G32G03
 -12176667.89147  -9479367.88144  21315948.4534                   21315946.3204
  -6769759.94146  -5250545.68443  22015809.9774                   22015809.1414
   2936367.69547   2291439.16445  20894603.1334                   20894600.2734
   6789582.71946   5297071.96043  22475209.7894                   22475208.6254
  -8673950.77047  -6741028.90245  20167941.5004                   20167937.1294
  -1111030.60246  -3111417.12143  22978553.2034                   22978549.3364
   2242687.10945    699664.05542  23875262.1954                   23875259.2194
   9947891.63745   7750876.39842  23334208.9064                   23334207.4534
 -10934208.71547  -8515453.53644  21171489.4304                   21171487.1564
 11  8 27 14 24 30.0000000  0 10G13G10G06G16G20G23G19G07G32G03
 -12350248.27046  -9614625.34344  21282917.1884                   21282914.9224
  12283737.89815                  24572111.039
  -6884166.30146  -5339693.52643  21994039.0314                   21994038.2344
   2895448.27347   2259553.85645  20886817.0474                   20886814.2734
   6767112.62846   5279562.76143  22470934.2584                   22470932.4534
  -8807539.47347  -6845123.99745  20142519.8134                   20142515.9224
  -1301079.64846  -3259507.26343  22942388.1724                   22942384.6334
   2084136.48045    576118.06342  23845090.7034                   23845088.1094
   9938116.17245   7743259.01242  23332348.7814                   23332347.4104
 -11082918.58247  -8631331.33444  21143190.9454                   21143188.9774
 11  8 27 14 25  0.0000000  0 10G13G10G06G16G20G23G19G07G32G03
 -12523663.61746  -9749754.17144  21249917.0784                   21249915.1604
  12124039.418 5                  24541722.891
  -6998136.37146  -5428501.37644  21972351.5704                   21972349.5474
   2854827.57847   2227901.32145  20879086.3834                   20879084.3554
   6744779.56346   5262160.27443  22466684.8134                   22466682.1374
  -8940768.59047  -6948938.90145  20117167.8834                   20117163.2774
  -1491069.42646  -3407551.22143  22906234.2424                   22906230.4494
   1925522.84045    452523.09042  23814907.4224                   23814906.1644
   9928349.44546   7735648.45143  23330490.0004                   23330488.7544
 -11231207.72746  -8746881.29444  21114972.6884                   21114970.3244
 11  8 27 14 25 30.0000000  0 10G13G10G06G16G20G23G19G07G32G03
 -12696912.54746  -9884753.31244  21216948.4304                   21216946.5784
  11964690.738 5                  24511399.914
  -7111669.86746  -5516969.06544  21950746.6174                   21950745.8524
   2814501.75847   2196478.58245  20871412.9064                   20871410.3244
   6722579.37946   5244861.34743  22462459.9774                   22462457.4414
  -9073637.10247  -7052472.81245  20091883.5704                   20091879.0274
  -1680997.96545  -3555547.46443  22870091.6884                   22870089.3954
   1766844.56345    328877.63742  23784712.9454                   23784709.9614
   9918587.65646   7728041.70143  23328631.3984                   23328632.1334
 -11379074.49246  -8862102.14344  21086833.9844                   21086832.0004
 11  8 27 14 26  0.0000000  0 10G13G10G06G16G20G23G19G07G32G03
 -12869987.57047 -10019616.98644  21184013.3984                   21184011.6954
  11805698.047 5                  24481144.523
  -7224761.14146  -5605092.10544  21929226.3914                   21929225.0664
   2774472.78946   2165287.16345  20863795.2504                   20863792.4414
   6700513.95346   5227667.41343  22458261.2814                   22458259.0944
  -9206137.99647  -7155720.27545  20066669.6024                   20066665.3364
  -1870857.14846  -3703489.66643  22833962.5474                   22833960.0004
   1608106.19945    205185.34042  23754504.7664                   23754503.8284
   9908832.90246   7720440.56343  23326776.5394                   23326776.2814
 -11526512.05146  -8976988.55444  21058777.1644                   21058776.3094
 11  8 27 14 26 30.0000000  0 10G13G10G06G16G20G23G19G07G32G03
 -13042883.85546 -10154341.35744  21151112.7584                   21151110.3984
  11647065.211 5                  24450956.148
  -7337406.51646  -5692867.72644  21907791.1334                   21907790.3444
   2734740.69146   2134327.07645  20856234.3984                   20856231.2504
   6678582.64846   5210577.97343  22454087.3754                   22454086.1564
  -9338267.22347  -7258678.10745  20041526.1094                   20041521.6564
  -2060641.27046  -3851373.37343  22797847.3984                   22797844.7624
   1449309.41845     81447.64542  23724286.5704                   23724285.3404
   9899084.80146   7712844.46443  23324921.3754                   23324921.6724
 -11673515.77046  -9091536.90644  21030803.1954                   21030802.3324
 11  8 27 14 27  0.0000000  0 10G13G10G06G16G20G23G19G07G32G03
 -13215597.34046 -10288923.27844  21118246.6954                   21118244.3134
  11488795.734 5                  24420839.047
  -7449603.43046  -5780293.90344  21886440.3754                   21886440.0704
   2695304.34446   2103597.42444  20848730.3054                   20848727.1024
   6656784.05546   5193591.96543  22449939.9534                   22449938.3484
  -9470020.72347  -7361343.18445  20016454.8444                   20016450.1724
  -2250345.55146  -3999194.86543  22761748.8674                   22761745.4884
   1290455.594 5                  23694059.281
   9889342.44145   7705252.85243  23323067.5084                   23323068.2854
 -11820081.75446  -9205744.13344  21002912.5314                   21002911.5204
 11  8 27 14 27 30.0000000  0 10G13G10G06G16G20G23G19G07G32G03
 -13388121.12546 -10423357.38744  21085416.0784                   21085413.9614
  11330895.207 5                  24390791.078
  -7561346.47346  -5867366.41844  21865176.3914                   21865176.2734
   2656165.05947   2073099.24444  20841282.2894                   20841279.1024
   6635119.28146   5176710.25343  22445817.1254                   22445816.3594
  -9601392.52347  -7463710.81945  19991454.7344                   19991451.0554
  -2439962.63746  -4146948.42043  22725665.9224                   22725662.1914
   1131548.22715                  23663819.414
   9879607.00845   7697666.74242  23321213.8364                   23321215.0314
 -11966203.30546  -9319605.05344  20975107.1094                   20975105.7734
 11  8 27 14 28  0.0000000  0 10G13G10G06G16G20G23G19G07G32G03
 -13560458.64846 -10557646.35544  21052621.6024                   21052619.2894
  11173359.176 5                  24360812.219
  -7672640.55946  -5954089.11144  21843997.0784                   21843997.4494
   2617314.41047   2042825.98444  20833889.6024                   20833886.3594
   6613579.26246   5159925.76443  22441717.9924                   22441716.9024
  -9732386.85947  -7565784.32645  19966527.6564                   19966523.5744
  -2629495.07846  -4294636.00843  22689598.7974                   22689595.0784
    972581.10214                  23633567.492
   9869870.16045   7690079.47342  23319360.6414                   23319361.8554
 -12111883.56646  -9433122.11944  20947385.1484                   20947383.5314
 11  8 27 14 28 30.0000000  0 10G13G10G06G16G20G23G19G07G32G03
 -12157178.50046  -9464181.30044  21319656.3134                   21319654.8164
  12591617.395 5                  24630700.266
  -6208057.86746  -4812855.90244  22122698.4844                   22122698.5944
   4154173.99246   3240378.85545  21126344.4694                   21126341.2774
   8167584.82846   6370839.08043  22737435.1724                   22737434.1604
  -8287573.91047  -6439956.06545  20241466.1644                   20241462.4344
  -1243510.09846  -3214647.56043  22953342.6414                   22953339.2934
   2388981.78114                  23903100.719
  11435552.41445   8910091.49642  23617301.8364                   23617300.7384
 -10681693.11746  -8318687.98444  21219541.2504                   21219539.8634
 11  8 27 14 29  0.0000000  0 10G13G10G06G16G20G23G19G07G32G03
 -12329127.64146  -9598167.63744  21286936.3364                   21286933.8094
  12434822.785 5                  24600862.352
  -6318442.87146  -4898870.21044  22101693.3834                   22101692.5824
   4115900.84047   3210555.59045  21119061.1644                   21119058.6844
   8146293.89546   6354248.71343  22733383.4774                   22733382.8404
  -8417798.32047  -6541429.63345  20216685.7584                   20216681.7234
  -1432854.93446  -3362188.99143  22917312.0084                   22917307.5084
                                  23872828.656
  11425812.55145   8902501.86342  23615448.4774                   23615448.3364
 -10826476.82046  -8431506.41044  21191990.1174                   21191988.7074
 11  8 27 14 29 30.0000000  0 10G13G10G06G16G20G23G19G07G32G03
 -12500875.27346  -9731996.92144  21254253.8364                   21254251.0474
  12278404.691 5                  24571097.195
  -6428368.14546  -4984526.26744  22080775.1954                   22080774.3984
   4077915.95746   3180956.95445  21111833.1334                   21111830.4694
   8125126.62946   6337754.70243  22729355.7894                   22729354.4064
  -8547631.19947  -6642598.12945  20191979.4844                   20191975.4694
  -1622097.70746  -3509650.90343  22881299.7734                   22881296.4304
   2070768.945 5                  23842547.078
  11416070.70345   8894910.68842  23613594.8524                   23613594.5904
 -10970805.07446  -8543969.97044  21164525.3364                   21164523.9414
 11  8 27 14 30  0.0000000  0 10G13G10G06G16G20G23G19G07G32G03
 -12672419.55547  -9865667.76244  21221610.0784                   21221607.6134
  12122363.87145   9478339.70653  24541404.1954                   24541403.8324
  -6537833.63746  -5069824.04644  22059944.2424                   22059943.9024
   4040215.74246   3151580.16645  21104658.3594                   21104656.5664
   8104079.02746   6321353.86143  22725351.1334                   22725349.3754
  -8677071.49647  -6743460.69645  20167347.5704                   20167343.4574
  -1811235.92245  -3657031.28343  22845307.8594                   22845305.1024
                                  23812253.961
  11406323.47745   8887315.30343  23611739.1484                   23611739.7424
 -11114676.39546  -8656077.49744  21137147.4924                   21137146.0984
 11  8 27 14 30 30.0000000  0 10G13G10G06G16G20G23G19G07G32G03
 -12843755.75047  -9999176.49244  21189004.8364                   21189003.9924
  11966703.58645   9357045.99943  24511782.6564                   24511782.9734
  -6646836.33246  -5154761.23944  22039202.2424                   22039201.5594
   4002799.77747   3122424.86245  21097538.8754                   21097536.6094
   8083149.92246   6305045.39443  22721368.7194                   22721367.1294
  -8806115.02347  -6844014.11045  20142791.6094                   20142787.3634
  -2000264.14546  -3804325.94143  22809336.4534                   22809334.2854
   1752340.32815                  23781950.266
  11396570.08245   8879715.22343  23609883.3754                   23609884.4774
 -11258086.44946  -8767825.58944  21109857.5394                   21109856.3284
 11  8 27 14 31  0.0000000  0 10G13G10G06G16G20G23G19G07G32G03
 -13014884.60947 -10132523.64744  21156441.2734                   21156439.1604
  11811422.27345   9236047.51943  24482233.2814                   24482234.1954
  -6755378.33646  -5239339.42344  22018547.3204                   22018546.2544
   3965662.46547   3093486.68145  21090471.8444                   21090469.6024
   8062333.50446   6288824.68343  22717407.5784                   22717406.3364
  -8934762.92247  -6944259.24845  20118310.4064                   20118306.5864
  -2189182.24646  -3951534.87144  22773387.3754                   22773384.7934
                                  23751637.219
  11386804.91845   8872105.78443  23608025.2814                   23608026.5084
 -11401035.93446  -8879214.79744  21082654.3284                   21082654.0744
 11  8 27 14 31 30.0000000  0 10G13G10G06G16G20G23G19G07G32G03
 -13185801.39547 -10265705.52744  21123916.7274                   21123914.8754
  11656523.44545   9115347.07442  24452757.8914                   24452757.6134
  -6863456.48846  -5323556.18844  21997980.1954                   21997980.0984
   3928803.30147   3064765.23745  21083457.4534                   21083455.4694
   8041628.90646   6272691.12843  22713466.9614                   22713466.2384
  -9063011.64847  -7044193.31645  20093905.4224                   20093901.6524
  -2377984.63346  -4098653.58543  22737459.6644                   22737456.4344
                                  23721313.789
  11377027.34045   8864486.74843  23606164.2974                   23606166.5234
 -11543520.75046  -8990241.92845  21055540.7974                   21055540.3594
 11  8 27 14 32  0.0000000  0 10G13G10G06G16G20G23G19G07G32G03
 -13356502.75447 -10398719.56444  21091433.4224                   21091431.2934
  11502009.09845   8994946.19942  24423353.9844                   24423354.2894
  -6971069.72746  -5407410.65444  21977501.9384                   21977501.7894
   3892219.67247   3036258.47945  21076496.3054                   21076493.6724
   8021033.60946   6256642.79843  22709547.6884                   22709546.5904
  -9190858.36347  -7143814.16245  20069576.9304                   20069573.0944
  -2566667.61746  -4245679.25944  22701553.9224                   22701551.1914
   1274283.50814                  23690980.063
  11367235.25045   8856856.44142  23604301.5634                   23604303.1994
 -11685538.21546  -9100904.88445  21028515.9694                   21028515.3914
 11  8 27 14 32 30.0000000  0 10G13G10G06G16G20G23G19G07G32G03
 -13526983.23847 -10531561.48244  21058991.9844                   21058990.1024
  11347883.68845   8874848.44942  24394024.1024                   24394025.6484
  -7078213.80146  -5490899.57544  21957113.4924                   21957112.7074
   3855912.31647   3007966.98645  21069587.2034                   21069583.9734
   8000547.82046   6240679.75943  22705649.0474                   22705648.4264
  -9318297.88347  -7243117.69545  20045326.3834                   20045322.1214
  -2755224.77046  -4392606.84243  22665673.2114                   22665669.0044
   1114824.777 5                  23660635.672
  11357429.23445   8849215.24043  23602435.2114                   23602437.8794
 -11827083.04747  -9211199.54845  21001581.0314                   21001580.2194
 11  8 27 14 33  0.0000000  0 10G13G10G06G16G20G23G19G07G32G03
 -13697243.85947 -10664232.06644  21026591.7034                   21026590.7194
  11194144.49245   8755051.69143  24364769.4614                   24364770.8244
  -7184891.80546  -5574025.25644  21936813.3834                   21936812.1214
   3819874.88747   2979885.82444  21062729.2274                   21062726.3594
   7980164.80546   6224796.79643  22701771.3284                   22701770.1484
  -9445332.30147  -7342105.56245  20021152.3524                   20021148.6684
  -2943656.38346  -4539436.65643  22629816.0004                   22629811.9734
    955309.840 5                  23630282.227
  11347602.64545   8841557.97943  23600565.5704                   23600567.2734
 -11968156.60947  -9321127.00445  20974735.7734                   20974734.4024
 11  8 27 14 33 30.0000000  0 10G13G10G06G16G20G23G19G07G32G03
 -13867280.20747 -10796727.92444  20994235.3914                   20994233.3204
  11040794.99645   8635558.44542  24335587.5554                   24335588.6374
  -7291100.82846  -5656785.53944  21916602.8364                   21916600.6374
   3784106.41847   2952014.25244  21055922.8364                   21055920.0594
   7959883.39546   6208992.92243  22697911.2734                   22697911.0234
  -9571957.75047  -7440774.75945  19997056.1884                   19997052.4184
  -3131957.52746  -4686164.79343  22593982.0394                   22593979.2974
    795740.414 4                  23599917.094
  11337754.78945   8833884.23042  23598693.1724                   23598692.7894
 -12108754.92247  -9430684.12645  20947980.3284                   20947979.3204
 11  8 27 14 34  0.0000000  0 10G13G10G06G16G20G23G19G07G32G03
 -14037089.59447 -10929046.90544  20961921.4384                   20961919.7384
  10887836.39145   8516369.86742  24306480.8364                   24306481.8204
  -7396840.02746  -5739179.74243  21896480.1954                   21896478.8914
   3748604.30947   2924350.27244  21049166.7034                   21049164.4414
   7939700.57446   6193266.05643  22694071.2734                   22694070.8324
  -9698172.28547  -7539123.75345  19973038.8984                   19973034.8094
  -3320124.55546  -4832788.41743  22558175.6884                   22558172.3444
    636116.09414                  23569540.563
  11327883.08645   8826191.85242  23596813.3984                   23596813.4024
 -12248875.97347  -9539869.34645  20921316.1484                   20921315.2304
 11  8 27 14 34 30.0000000  0 10G13G10G06G16G20G23G19G07G32G03
 -14206667.15647 -11061185.26444  20929651.9694                   20929649.9304
  10735272.34845   8397488.76242  24277449.5864                   24277448.9844
  -7502106.54746  -5821205.59343  21876449.2034                   21876447.3404
   3713368.37547   2896893.67145  21042461.3914                   21042459.3054
   7919615.79346   6177615.49043  22690249.8134                   22690248.3754
  -9823971.67647  -7637149.26045  19949099.0784                   19949095.8134
  -3508151.98846  -4979303.26943  22522394.6954                   22522392.1094
    476439.047 5                  23539155.352
  11317987.23445   8818480.69142  23594929.9224                   23594930.1914
 -12388515.46347  -9648679.37544  20894743.1804                   20894742.0864
 11  8 27 14 35  0.0000000  0 10G13G10G06G16G20G23G19G07G32G03
 -14376013.13347 -11193143.16344  20897426.5634                   20897424.6914
  10583101.21545   8278913.82842  24248492.2894                   24248490.1334
  -7606902.55946  -5902864.80643  21856506.5164                   21856505.1484
   3678392.75447   2869639.92145  21035806.4144                   21035803.9384
   7899623.17646   6162036.72743  22686445.6334                   22686444.4574
  -9949357.38747  -7734852.43445  19925239.6414                   19925235.9734
  -3696039.39546  -5125708.96643  22486641.1954                   22486638.2034
    316705.55915                  23508759.469
  11308061.72746   8810746.38342  23593042.5864                   23593041.9024
 -12527674.11746  -9757114.66444  20868261.8914                   20868260.7194
 11  8 27 14 35 30.0000000  0 10G13G10G06G16G20G23G19G07G32G03
 -14545123.44147 -11324917.40244  20865246.2114                   20865244.1254
  10431325.93445   8160647.25442  24219611.2734                   24219607.4384
  -7711225.68446  -5984155.59943  21836655.8834                   21836653.5084
   3643676.30947   2842588.13245  21029200.2734                   21029197.5084
   7879721.01646   6146528.46643  22682657.9844                   22682657.1764
 -10074325.78547  -7832230.41245  19901458.7584                   19901455.2384
  -3883781.98846  -5272001.88043  22450915.1094                   22450911.5944
    156916.809 5                  23478352.688
  11298105.28146   8802987.98243  23591148.5554                   23591148.2194
 -12666348.52047  -9865172.63744  20841874.1484                   20841871.7774
 11  8 27 14 36  0.0000000  0 10G13G10G06G16G20G23G19G07G32G03
 -13138568.69947 -10228900.72244  21132904.3134                   21132902.1174
  11855374.039 5                  24490597.836
  -6239650.64146  -4837473.70243  22116686.2194                   22116684.7584
   5184638.85547   4043338.14445  21322435.2034                   21322432.8984
   9435328.23846   7358689.86643  22978679.3914                   22978679.3524
  -8623449.50047  -6701677.45545  20177552.0784                   20177547.6054
  -2495948.91446  -4190573.47144  22715011.7584                   22715007.7154
   1572499.609 5                  23747728.961
  12863536.98845  10022804.73343  23889040.5944                   23889040.3634
 -11229110.69947  -8745247.03944  21115370.5704                   21115368.6214
 11  8 27 14 36 30.0000000  0 10G13G10G06G16G20G23G19G07G32G03
 -13307199.56247 -10360301.39144  21100814.9614                   21100813.2974
  11704394.340 5                  24461867.313
  -6343025.48846  -4918025.57043  22097014.7584                   22097013.1884
   5150433.46147   4016684.55644  21315926.3834                   21315923.7894
   9415598.71945   7343316.13043  22974925.2894                   22974924.7154
  -8747577.34847  -6798400.47445  20153930.6414                   20153926.7304
  -2683391.58246  -4336632.67543  22679342.0164                   22679339.2154
   1412600.500 5                  23717300.484
  12853511.50045  10014992.55043  23887131.8754                   23887133.0944
 -11366809.96946  -8852545.13344  21089167.7974                   21089165.5634
 11  8 27 14 37  0.0000000  0 10G13G10G06G16G20G23G19G07G32G03
 -13475584.89547 -10491510.73544  21068772.8754                   21068770.2704
  11553816.355 5                  24433212.859
  -6445923.44946  -4998205.79643  22077433.5784                   22077432.2774
   5116481.40646   3990228.40444  21309465.3674                   21309462.2934
   9395952.91445   7328007.66143  22971186.9534                   22971186.4144
  -8871280.22347  -6894792.31345  20130390.5474                   20130386.7734
  -2870677.12146  -4482569.42544  22643702.5554                   22643699.3014
   1252647.434 5                  23686862.438
  12843449.58245  10007152.03443  23885217.0864                   23885218.3244
 -11504016.50447  -8959459.34645  21063057.9534                   21063056.7974
 11  8 27 14 37 30.0000000  0 10G13G10G06G16G20G23G19G07G32G03
 -13643722.03546 -10622526.64944  21036777.0004                   21036774.3324
  11403641.055 5                  24404636.852
  -6548343.76646  -5078013.86243  22057944.0634                   22057942.6374
   5082780.09446   3963967.55944  21303051.5314                   21303049.6024
   9376387.86346   7312762.02443  22967463.7504                   22967462.3594
  -8994556.56647  -6990851.81845  20106932.2424                   20106928.1884
  -3057802.46146  -4628381.34144  22608093.2734                   22608090.6764
   1092639.977 5                  23656415.461
  12833348.38345   9999280.82842  23883294.5394                   23883296.0434
 -11640728.66447  -9065988.29244  21037042.8054                   21037041.2934
 11  8 27 14 38  0.0000000  0 10G13G10G06G16G20G23G19G07G32G03
 -13811611.82446 -10753349.84644  21004828.4144                   21004826.4304
  11253866.203 5                  24376133.859
  -6650289.42646  -5157452.05244  22038544.7664                   22038542.9654
   5049323.35946   3937897.32544  21296685.1024                   21296682.8754
   9356897.28546   7297574.43943  22963755.6174                   22963753.8674
  -9117407.87947  -7086580.13145  20083554.3594                   20083550.4224
  -3244768.20346  -4774068.89143  22572514.4534                   22572512.2544
    932574.29315                  23625955.055
  12823201.78945   9991374.19942  23881364.6724                   23881364.2774
 -11776947.86747  -9172133.12245  21011121.1644                   21011119.7774
 11  8 27 14 38 30.0000000  0 10G13G10G06G16G20G23G19G07G32G03
 -13979244.37947 -10883972.61944  20972929.0554                   20972926.8094
  11104500.38714                  24347710.352
  -6751751.98046  -5236513.83244  22019237.2424                   22019235.3794
   5016116.28547   3912021.65344  21290366.6094                   21290364.0864
   9337485.45746   7282448.23343  22960061.6644                   22960059.6094
  -9239824.94947  -7181970.04745  20060258.9064                   20060255.3554
  -3431562.41846  -4919622.80144  22536968.8834                   22536966.0594
    772458.059 5                  23595485.734
  12813014.93845   9983436.20742  23879426.2664                   23879425.6604
 -11912664.37147  -9277886.20944  20985295.4144                   20985294.2344
 11  8 27 14 39  0.0000000  0 10G13G10G06G16G20G23G19G07G32G03
 -14146619.54347 -11014394.84344  20941078.9534                   20941076.1254
  10955541.941 5                  24319365.102
  -6852734.12946  -5315201.17944  22000020.7814                   22000019.8524
   4983153.05147   3886335.97944  21284093.9384                   21284091.3284
   9318146.78946   7267379.02643  22956382.4064                   22956379.1884
  -9361808.85247  -7277022.45345  20037046.8134                   20037042.8954
  -3618185.37546  -5065043.22044  22501455.7194                   22501452.9064
    612287.87514                  23565006.086
  12802782.35545   9975462.64842  23877478.6334                   23877478.3794
 -12047879.52747  -9383248.68244  20959564.4144                   20959563.4304
 11  8 27 14 39 30.0000000  0 10G13G10G06G16G20G23G19G07G32G03
 -14313735.00847 -11144614.64844  20909277.8984                   20909275.2194
  10806991.957 5                  24291096.438
  -6953235.42646  -5393513.90244  21980896.3284                   21980894.7544
   4950430.62147   3860837.96344  21277867.1884                   21277864.3554
   9298877.95346   7252364.28543  22952714.0634                   22952712.4104
  -9483358.08647  -7371736.13145  20013916.8444                   20013912.7384
  -3804633.95346  -5210327.77343  22465976.1884                   22465973.0514
                                  23534515.219
  12792501.03145   9967451.08642  23875522.0704                   23875522.4064
 -12182591.71146  -9488219.19344  20933928.9614                   20933928.1254
 11  8 27 14 40  0.0000000  0 10G13G10G06G16G20G23G19G07G32G03
 -14480589.71147 -11274631.31244  20877526.2814                   20877524.0594
  10658849.691 5                  24262905.961
  -7053256.73046  -5471452.60843  21961863.1484                   21961861.2114
   4917945.35247   3835524.70144  21271685.0704                   21271682.9804
   9279674.60245   7237400.58242  22949059.6174                   22949058.3714
  -9604472.76247  -7466111.21645  19990869.0004                   19990864.9064
  -3990906.21646  -5355474.99144  22430529.6334                   22430526.4574
    291781.75814                  23504016.859
  12782167.05945   9959398.52342  23873554.9384                   23873556.0744
 -12316800.35946  -9592797.37144  20908390.0944                   20908388.8204
 11  8 27 14 40 30.0000000  0 10G13G10G06G16G20G23G19G07G32G03
 -14647179.10547 -11404441.17844  20845825.3524                   20845823.4694
  10511118.305 5                  24234794.742
  -7152795.60946  -5549015.35444  21942921.9614                   21942920.1764
   4885696.46546   3810395.69045  21265548.7194                   21265546.5354
   9260535.78945   7222487.18042  22945417.5004                   22945417.6764
  -9725148.74647  -7560144.44545  19967905.0864                   19967901.0004
  -4176996.59046  -5500480.40644  22395117.1484                   22395115.1524
    131446.10514                  23473504.477
  12771779.92645   9951304.53942  23871579.0164                   23871578.7584
 -12450502.16846  -9696980.58244  20882947.9064                   20882945.8914
 11  8 27 14 41  0.0000000  0 10G13G10G06G16G20G23G19G07G32G03
 -14813501.35547 -11534042.91544  20814174.8364                   20814173.0354
  10363798.309 5                  24206759.703
  -7251852.68046  -5626202.67744  21924071.2114                   21924069.7624
   4853680.14846   3785447.88744  21259456.3754                   21259454.0204
   9241457.65645   7207621.02743  22941788.1024                   22941788.1954
  -9845385.64847  -7653835.52645  19945025.1414                   19945020.5864
  -4362902.97746  -5645342.50044  22359740.6644                   22359739.2504
    -28945.57815                  23442983.516
  12761335.86345   9943166.11742  23869591.5394                   23869590.8444
 -12583695.79746  -9800767.84544  20857601.5634                   20857600.1334
 11  8 27 14 41 30.0000000  0 10G13G10G06G16G20G23G19G07G32G03
 -14979555.89547 -11663436.05444  20782576.0634                   20782573.9734
                                  24178802.953
  -7350429.10946  -5703015.45144  21905313.4064                   21905311.4884
   4821891.94546   3760677.80844  21253407.3054                   21253404.2304
   9222435.41445   7192798.46843  22938167.8524                   22938168.5164
  -9965183.22347  -7747184.28545  19922228.1094                   19922224.0084
  -4548623.73846  -5790059.94644  22324399.4454                   22324396.8834
   -189394.945 5                  23412452.055
  12750830.93045   9934980.33242  23867593.3834                   23867593.8134
 -12716380.88346  -9904158.80144  20832352.4064                   20832351.4694
 11  8 27 14 42  0.0000000  0 10G13G10G06G16G20G23G19G07G32G03
 -15145336.39547 -11792615.64344  20751029.1174                   20751027.1374
  10070393.73415                  24150927.820
  -7448520.71146  -5779450.50344  21886646.1564                   21886645.4654
   4790333.21547   3736086.56444  21247401.6884                   21247399.1484
   9203469.70346   7178019.83443  22934559.6414                   22934559.2234
 -10084536.54747  -7840186.89345  19899516.7664                   19899512.0704
  -4734152.22346  -5934627.54344  22289094.6804                   22289092.0164
   -349898.836 5                  23381909.148
  12740265.83645   9926747.68442  23865582.5944                   23865585.1764
 -12848552.51646 -10007149.67544  20807201.2274                   20807199.6644
 11  8 27 14 42 30.0000000  0 10G13G10G06G16G20G23G19G07G32G03
 -15310841.07047 -11921580.32344  20719534.8834                   20719532.0824
   9924313.820 5                  24123130.242
  -7546128.60246  -5855508.60044  21868072.2274                   21868071.7034
   4758999.88747   3711670.90544  21241439.2894                   21241436.5474
   9184556.34446   7163282.04243  22930960.8444                   22930959.9774
 -10203444.98047  -7932842.82445  19876888.8284                   19876884.3094
  -4919486.07846  -6079043.50144  22253826.0634                   22253823.7774
   -510458.883 5                  23351355.336
  12729637.04345   9918465.34842  23863560.1564                   23863563.5514
 -12980210.43046 -10109740.29344  20782147.5084                   20782146.3524
 11  8 27 14 43  0.0000000  0 10G13G10G06G16G20G23G19G07G32G03
 -15476071.94947 -12050331.64044  20688092.6024                   20688089.9064
   9778645.652 5                  24095410.586
  -7643256.46646  -5931192.63544  21849589.9774                   21849588.6604
   4727885.21947   3687425.67345  21235518.5944                   21235516.1644
   9165688.57046   7148579.85843  22927370.1804                   22927368.8134
 -10321911.14147  -8025154.13145  19854345.3754                   19854340.9734
  -5104625.98846  -6223308.36943  22218595.8364                   22218592.5944
   -671079.258 5                  23320791.047
  12718937.77345   9910128.10443  23861524.7344                   23861527.9414
 -13111356.59846 -10211932.12144  20757191.3054                   20757190.0944
 11  8 27 14 43 30.0000000  0 10G13G10G06G16G20G23G19G07G32G03
 -14065597.68046 -10951260.75644  20956496.1884                   20956494.5664
  11208817.859 5                  24367564.234
  -6164477.66846  -4778897.50044  22130991.1174                   22130991.1604
   6272410.21547   4890951.58245  21529431.7034                   21529429.9964
  10722286.63346   8361513.31243  23223581.2814                   23223579.3634
  -8864506.55147  -6889514.19345  20131680.0164                   20131675.9884
  -3714139.65246  -5139812.48444  22483196.1174                   22483193.6374
    743668.05945   -468402.42652  23590007.4304                   23590006.5044
  14283588.63345  11129336.41842  24159267.9144                   24159270.6174
 -11666562.25847  -9086118.34445  21032126.9384                   21032125.9414
 11  8 27 14 44  0.0000000  0 10G13G10G06G16G20G23G19G07G32G03
 -14230269.85946 -11079576.70544  20925160.3674                   20925158.4024
  11063979.109 5                  24340002.297
  -6260641.40646  -4853830.30244  22112692.9304                   22112691.7344
   6241727.58646   4867043.02944  21523592.6414                   21523591.4924
  10703503.82046   8346877.25143  23220007.0314                   23220005.5904
  -8982080.22747  -6981130.05245  20109306.5004                   20109302.7894
  -3898879.13746  -5283765.26144  22448042.1094                   22448039.1524
    582929.36745   -593653.46142  23559420.0784                   23559418.7464
  14272743.77045  11120885.70342  24157204.4064                   24157205.4924
 -11796677.22747  -9187506.63444  21007366.9224                   21007366.2074
 11  8 27 14 44 30.0000000  0 10G13G10G06G16G20G23G19G07G32G03
 -14394659.80946 -11207672.76244  20893877.7734                   20893875.8524
  10919555.094 5                  24312518.836
  -6356323.96146  -4928388.13444  22094484.7814                   22094483.4344
   6211255.76646   4843298.73444  21517794.1484                   21517792.8834
  10684757.51645   8332269.66842  23216439.1414                   23216438.4384
  -9099206.70347  -7072397.45845  20087018.1334                   20087014.0434
  -4083414.46146  -5427558.98244  22412926.1334                   22412923.1294
    422129.56315                  23528821.734
  14261820.87145  11112374.23842  24155126.5314                   24155125.7664
 -11926275.47747  -9288492.28644  20982704.6024                   20982704.5204
 11  8 27 14 45  0.0000000  0 10G13G10G06G16G20G23G19G07G32G03
 -14558766.94546 -11335548.45144  20862649.2344                   20862647.0434
  10775545.449 5                  24285115.102
  -6451526.52046  -5002571.94244  22076369.2034                   22076367.3674
   6180990.71946   4819715.57544  21512035.2584                   21512033.1294
  10666043.52345   8317687.32043  23212877.8754                   23212877.4104
  -9215886.25847  -7163316.60045  20064814.9844                   20064810.8164
  -4267744.28546  -5571192.59543  22377849.2034                   22377845.9964
    261267.00415                  23498208.680
  14250815.96545  11103798.82442  24153031.5864                   24153031.1914
 -12055356.84447  -9389075.16444  20958141.8134                   20958141.3834
 11  8 27 14 45 30.0000000  0 10G13G10G06G16G20G23G19G07G32G03
 -14722584.92246 -11463198.79144  20831475.5164                   20831473.8324
  10631954.17615                  24257789.688
  -6546245.51246  -5076378.95444  22058343.9774                   22058343.4964
   6150933.28946   4796294.16144  21506315.0944                   21506312.8014
  10647362.46945   8303130.55343  23209322.9694                   23209322.8794
  -9332113.45347  -7253883.25545  20042697.3524                   20042693.5164
  -4451861.53146  -5714660.55744  22342812.8444                   22342809.3134
    100345.066 5                  23467587.547
  14239730.02745  11095160.34042  24150922.8284                   24150922.5164
 -12183916.34446  -9489251.39244  20933677.7814                   20933677.0204
 11  8 27 14 46  0.0000000  0 10G13G10G06G16G20G23G19G07G32G03
 -14886117.26246 -11590626.59244  20800356.5554                   20800354.8094
  10488776.105 5                  24230543.570
  -6640486.78546  -5149813.72544  22040410.4924                   22040409.4454
   6121074.31647   4773027.38244  21500634.1804                   21500630.5434
  10628705.12945   8288592.23842  23205772.9224                   23205772.7234
  -9447893.25447  -7344101.29445  20020665.6484                   20020660.9694
  -4635769.16446  -5857965.17344  22307815.4844                   22307812.9024
    -60642.67215                  23436950.641
  14228554.34445  11086451.88342  24148795.7194                   24148797.2464
 -12311958.60947  -9589024.61744  20909311.9924                   20909310.9534
 11  8 27 14 46 30.0000000  0 10G13G10G06G16G20G23G19G07G32G03
 -15049360.09046 -11717828.82144  20769292.3524                   20769291.0784
  10346013.590 4                  24203376.891
  -6734248.60546  -5222874.89944  22022568.8834                   22022567.5864
   6091413.00847   4749914.61844  21494990.4144                   21494986.3014
  10610069.87145   8274071.22343  23202227.0004                   23202226.7034
  -9563222.53147  -7433968.27045  19998718.8444                   19998715.0704
  -4819462.48846  -6001102.80643  22272859.8914                   22272857.7074
   -221695.234 5                  23406306.086
  14217287.82445  11077672.73442  24146651.8204                   24146654.0434
 -12439480.84447  -9688392.61844  20885045.4454                   20885044.0554
 11  8 27 14 47  0.0000000  0 10G13G10G06G16G20G23G19G07G32G03
 -15212310.93046 -11844803.47244  20738284.2034                   20738282.2854
  10203667.03914                  24176288.203
  -6827531.25446  -5295562.65744  22004817.7814                   22004815.8134
   6061946.36747   4726953.54844  21489382.3524                   21489379.4614
  10591453.83246   8259565.11643  23198684.3444                   23198683.9064
  -9678100.29347  -7523483.42245  19976858.0944                   19976854.2074
  -5002938.39546  -6144071.05244  22237946.2974                   22237943.4224
   -382812.871 5                  23375645.086
  14205927.88745  11068820.64142  24144490.3134                   24144492.0704
 -12566481.66847  -9787354.27345  20860877.7894                   20860876.6254
 11  8 27 14 47 30.0000000  0 10G13G10G06G16G20G23G19G07G32G03
 -15374964.37946 -11971546.42344  20707332.0784                   20707330.4224
  10061740.12514                  24149281.602
  -6920331.72346  -5367874.74044  21987158.4614                   21987157.0864
   6032674.87946   4704144.58644  21483811.7734                   21483810.1414
  10572856.99246   8245073.96942  23195146.0704                   23195145.3324
  -9792522.03947  -7612643.22745  19955084.6024                   19955080.6604
  -5186190.83646  -6286865.13844  22203074.9384                   22203071.7274
   -543992.969 5                  23344974.500
  14194474.69945  11059895.92642  24142310.8204                   24142312.0474
 -12692956.80547  -9885906.33845  20836810.6954                   20836809.6844
 11  8 27 14 48  0.0000000  0 10G13G10G06G16G20G23G19G07G32G03
 -15537320.05546 -12098057.33344  20676437.0944                   20676435.4344
   9920231.53515                  24122353.992
  -7012652.10246  -5439812.73944  21969590.0634                   21969589.4454
   6003593.18046   4681483.51644  21478277.5394                   21478276.0314
  10554274.01245   8230593.64243  23191609.4384                   23191608.4184
  -9906488.69147  -7701448.42345  19933397.1644                   19933393.4804
  -5369218.75846  -6429484.25144  22168246.1484                   22168242.0984
                                  23314290.469
  14182923.47745  11050894.87942  24140111.4304                   24140113.6254
 -12818906.80147  -9984049.22145  20812843.1804                   20812842.3094
 11  8 27 14 48 30.0000000  0 10G13G10G06G16G20G23G19G07G32G03
 -15699375.50446 -12224334.30444  20645599.1644                   20645597.4024
                                  24095504.914
  -7104492.16846  -5511376.42544  21952113.4614                   21952112.7384
   5974698.62546   4658968.23244  21472779.2664                   21472777.5704
  10535701.93445   8216121.77043  23188075.6564                   23188074.3094
 -10019998.77047  -7789897.84445  19911797.0554                   19911793.1684
  -5552018.88346  -6571925.89344  22133459.4694                   22133456.2424
   -866547.93015                  23283594.031
  14171271.80545  11041815.49642  24137895.3754                   24137896.6644
 -12944330.46147 -10081781.94045  20788975.5944                   20788974.7304
 11  8 27 14 49  0.0000000  0 10G13G10G06G16G20G23G19G07G32G03
 -15861129.21946 -12350376.16544  20614818.2504                   20614816.2544
                                  24068737.805
  -7195853.25446  -5582566.89644  21934728.3054                   21934726.8444
   5945987.60946   4636596.00144  21467315.6954                   21467313.1914
  10517136.91445   8201655.44942  23184542.7664                   23184540.8524
 -10133052.03947  -7877991.31745  19890284.0704                   19890279.9024
  -5734589.23846  -6714188.49944  22098717.7974                   22098713.9614
  -1027924.324 5                  23252885.406
  14159515.99245  11032654.96542  24135658.7974                   24135660.3014
 -13069227.80147 -10179104.56244  20765208.6804                   20765207.2934
 11  8 27 14 49 30.0000000  0 10G13G10G06G16G20G23G19G07G32G03
 -16022580.46947 -12476182.31244  20584094.7344                   20584092.5204
   9498217.32015                  24042048.313
  -7286737.07046  -5653385.45744  21917433.5474                   21917432.6644
   5917455.90246   4614363.47944  21461886.6884                   21461883.6174
  10498574.11345   8187190.89143  23181011.3914                   23181009.1764
 -10245649.12147  -7965729.32045  19868857.4304                   19868853.5314
  -5916928.03946  -6856270.68844  22064019.3524                   22064016.5084
  -1189369.184 5                  23222162.578
  14147651.77045  11023410.01642  24133400.9064                   24133402.8754
 -13193598.78947 -10276017.03444  20741541.7814                   20741540.1214
 11  8 27 14 50  0.0000000  0 10G13G10G06G16G20G23G19G07G32G03
 -16183726.11346 -12601750.35444  20553429.9144                   20553427.5164
   9358382.395 4                  24015438.375
  -7377142.78946  -5723831.48544  21900229.4694                   21900229.3054
   5889101.64146   4592269.19244  21456491.5394                   21456487.7734
  10480011.38746   8172726.34743  23177478.0554                   23177477.7544
 -10357787.95747  -8053110.23245  19847518.3134                   19847514.5784
  -6099031.59046  -6998169.49744  22029366.8364                   22029363.7704
  -1350881.961 5                  23191428.258
  14135677.18045  11014079.05142  24131123.5944                   24131124.8284
 -13317441.75847 -10372518.05344  20717974.6174                   20717973.4534
 11  8 27 14 50 30.0000000  0 10G13G10G06G16G20G23G19G07G32G03
 -16344563.06246 -12727077.82244  20522823.4844                   20522821.6954
                                  23988906.031
  -7467070.02046  -5793904.68144  21883118.6254                   21883115.5784
   5860922.07846   4570311.01944  21451128.5704                   21451125.4534
  10461446.32046   8158259.95743  23173945.8674                   23173945.5594
 -10469466.69147  -8140132.63645  19826265.8674                   19826262.7704
  -6280896.27046  -7139882.25644  21994758.5234                   21994756.0084
  -1512462.410 5                  23160679.445
  14123590.33245  11004660.57442  24128822.1724                   24128824.6024
 -13440754.89547 -10468606.21744  20694509.3284                   20694507.7734
 11  8 27 14 51  0.0000000  0  9G13G06G16G20G23G19G07G32G03
 -14929661.78146 -11624557.31544  20792070.2504                   20792068.6484
  -5981094.39546  -4636001.59544  22165889.6644                   22165887.7424
   7408337.89146   5776089.54644  21745591.9384                   21745589.4344
  12018298.21945   9371391.21743  23470204.9924                   23470204.3364
  -9005258.56247  -6999191.27545  20104895.9534                   20104892.0004
  -4887090.96146  -6053800.13244  22259990.9774                   22259987.7974
    -98683.492 5                  23429713.688
  15686810.93445  12222754.45742  24426293.2584                   24426295.4494
 -11988111.00446  -9336675.92144  20970938.3284                   20970936.3914
 11  8 27 14 51 30.0000000  0  9G13G06G16G20G23G19G07G32G03
 -15089867.97746 -11749393.29944  20761583.8754                   20761582.3914
  -6070059.04746  -4705324.69343  22148959.6024                   22148958.0354
   7380506.53946   5754402.73244  21740295.7584                   21740294.1484
  11999725.50845   9356918.90643  23466671.2274                   23466669.8284
  -9116007.31247  -7085489.01145  20083820.8754                   20083817.3054
  -5068462.05546  -6195128.22544  22225476.8524                   22225473.6804
   -260393.96545  -1250788.43452  23398940.6024                   23398940.9734
  15674497.89545  12213159.78142  24423949.6724                   24423952.3674
 -12110354.72347  -9431930.79845  20947676.1334                   20947674.2624
 11  8 27 14 52  0.0000000  0  9G13G06G16G20G23G19G07G32G03
 -15249753.36346 -11873979.32844  20731158.6954                   20731156.9104
  -6158541.17646  -4774271.86244  22132121.1484                   22132120.2344
   7352846.66846   5732849.52944  21735032.3364                   21735030.4534
  11981146.11345   9342441.33642  23463135.7194                   23463133.7424
  -9226287.90647  -7171421.96045  20062835.3134                   20062831.2934
  -5249580.08646  -6336259.16244  22191011.3204                   22191008.3244
   -422168.40645  -1376846.39842  23368156.3364                   23368155.8594
  15662069.56655  12203475.21952  24421584.6884                   24421586.5634
 -12232060.77746  -9526766.68544  20924516.1644                   20924514.6254
 11  8 27 14 52 30.0000000  0  9G13G06G16G20G23G19G07G32G03
 -15409315.81246 -11998313.69544  20700795.7194                   20700793.3914
  -6246540.60946  -4842842.85944  22115375.9534                   22115375.2734
   7325355.93446   5711428.16744  21729800.8444                   21729798.9804
  11962557.13345   9327956.33642  23459596.8914                   23459596.5664
  -9336098.94147  -7256989.01445  20041939.2974                   20041935.1054
  -5430441.82846  -6477190.39644  22156595.0474                   22156592.3134
   -584006.75845  -1502954.14542  23337360.0864                   23337359.8364
  15649523.44945  12193698.87942  24419197.8284                   24419199.1644
 -12353227.69946  -9621182.50344  20901458.7894                   20901457.6524
 11  8 27 14 53  0.0000000  0  9G13G06G16G20G23G19G07G32G03
 -15568552.79746 -12122394.44644  20670493.0004                   20670491.2034
  -6334058.10946  -4911038.35744  22098722.6804                   22098721.3204
   7298031.31346   5690136.26744  21724601.9774                   21724599.0124
  11943955.40245   9313461.42642  23456056.9924                   23456056.4104
  -9445439.53147  -7342189.49945  20021132.7504                   20021128.5984
  -5611044.52346  -6617919.74844  22122227.6564                   22122224.6484
   -745909.53945  -1629112.18742  23306550.5554                   23306550.2274
  15636856.715 5                  24416787.617
 -12473854.54347  -9715177.44444  20878505.1414                   20878502.8914
 11  8 27 14 53 30.0000000  0  9G13G06G16G20G23G19G07G32G03
 -15727462.73046 -12246220.39644  20640253.4064                   20640251.8594
  -6421094.69946  -4978859.09244  22082159.8054                   22082158.4614
   7270869.24646   5668970.91944  21719432.0864                   21719430.0004
  11925336.97345   9298953.47342  23452515.3204                   23452512.7974
  -9554309.71547  -7427023.42445  20000415.1334                   20000411.2234
  -5791385.87146  -6758445.42944  22087909.5704                   22087906.5864
   -907877.81245  -1755321.22743  23275728.7664                   23275727.6484
  15624066.14515                  24414353.461
 -12593941.34047  -9808751.57144  20855652.1644                   20855651.0394
 11  8 27 14 54  0.0000000  0  9G13G06G16G20G23G19G07G32G03
 -15886044.17246 -12369790.30644  20610076.4844                   20610075.0164
  -6507651.27046  -5046305.79044  22065688.3444                   22065687.6134
   7243866.18446   5647929.52944  21714294.1174                   21714291.6374
  11906698.40645   9284429.82343  23448968.6094                   23448966.1954
  -9662708.77047  -7511490.24545  19979787.5314                   19979783.6054
  -5971463.47746  -6898765.61744  22053641.2814                   22053638.8484
  -1069912.70345  -1881582.18442  23244894.6484                   23244893.2464
  15611148.301 5                  24411896.734
 -12713487.71947  -9901904.59344  20832904.1334                   20832901.9694
 11  8 27 14 54 30.0000000  0  9G13G06G16G20G23G19G07G32G03
 -16044291.57446 -12493099.97844  20579963.2274                   20579961.8714
  -6593725.41446  -5113376.57244  22049309.1024                   22049308.2114
   7217022.40246   5627012.24043  21709186.3364                   21709183.2234
  11888039.51646   9269890.42643  23445418.3364                   23445416.6174
  -9770632.94547  -7595587.02145  19959250.6954                   19959246.2544
  -6151271.13346  -7038875.46344  22019425.2344                   22019422.4104
  -1232011.28545  -2007892.79742  23214048.7344                   23214047.1994
  15598103.590 5                  24409414.047
 -12832489.77046  -9994633.46944  20810257.8524                   20810257.0004
 11  8 27 14 55  0.0000000  0  9G13G06G16G20G23G19G07G32G03
 -16202205.65646 -12616149.90744  20549913.2114                   20549911.3524
  -6679320.35946  -5180073.95644  22033020.8364                   22033020.1994
   7190332.30946   5606214.72244  21704107.1254                   21704104.4184
  11869354.37145   9255330.34943  23441862.3364                   23441862.3554
  -9878084.20347  -7679315.29645  19938803.0944                   19938798.8364
  -6330808.77746  -7178774.90244  21985260.2114                   21985257.5124
  -1394176.64845  -2134255.43742  23183188.6804                   23183189.0664
  15584926.55915                  24406904.992
 -12950949.38346 -10086939.67144  20787715.8364                   20787714.3364
 11  8 27 14 55 30.0000000  0  9G13G06G16G20G23G19G07G32G03
 -16359786.05946 -12738939.84644  20519925.8754                   20519924.6914
  -6764438.59846  -5246399.86344  22016822.2664                   22016822.7854
   7163791.16846   5585533.25244  21699056.3134                   21699054.3014
  11850638.06345   9240746.21942  23438300.5164                   23438300.6604
  -9985063.61747  -7762675.88645  19918445.4144                   19918441.2664
  -6510075.59446  -7318463.29844  21951146.8204                   21951144.2624
  -1556411.48445  -2260672.16442  23152316.1024                   23152317.0634
  15571612.465 4                  24404370.523
 -13068868.25446 -10178824.51844  20765276.4454                   20765274.9494
 11  8 27 14 56  0.0000000  0  9G13G06G16G20G23G19G07G32G03
 -16517029.35946 -12861467.08544  20490004.3754                   20490002.1804
  -6849079.38746  -5312353.74943  22000716.2274                   22000715.4694
   7137397.44146   5564966.67444  21694034.3754                   21694032.1604
  11831888.43045   9226136.01642  23434732.4614                   23434732.3484
 -10091568.93447  -7845667.05345  19898178.0634                   19898174.0124
  -6689067.32446  -7457937.34744  21917085.9454                   21917082.8284
  -1718714.67245  -2387142.11342  23121431.7274                   23121431.3984
  15558159.87515                  24401812.234
 -13186243.82846 -10270286.04344  20742941.3984                   20742939.3204
 11  8 27 14 56 30.0000000  0  9G13G06G16G20G23G19G07G32G03
 -16673933.06646 -12983729.72144  20460146.4774                   20460144.4694
  -6933243.12146  -5377935.93544  21984700.4694                   21984699.6764
   7111148.56646   5544512.98244  21689038.9844                   21689037.6174
  11813103.25045   9211498.12542  23431157.5704                   23431158.4414
 -10197599.29347  -7928288.12545  19878001.0084                   19877997.2384
  -6867780.84846  -7597194.62544  21883077.7274                   21883074.0864
  -1881086.25845  -2513665.44142  23090534.3204                   23090533.0594
  15544566.555 5                  24399227.344
 -13303075.26247 -10361323.52444  20720708.8834                   20720707.5354
 11  8 27 14 57  0.0000000  0  9G13G06G16G20G23G19G07G32G03
 -16830498.31646 -13105728.59744  20430352.7734                   20430351.3484
  -7016933.99246  -5443149.63043  21968774.8364                   21968774.3674
   7085037.90646   5524166.96844  21684070.8444                   21684068.7344
  11794274.91845   9196826.61742  23427574.6564                   23427575.8324
 -10303157.68047  -8010541.42545  19857914.4844                   19857910.4654
  -7046216.97346  -7736235.76344  21849123.7424                   21849119.3054
  -2043530.53945  -2640245.34842  23059621.3134                   23059619.9224
  15530825.969 5                  24396612.750
 -13419365.78946 -10451939.51344  20698579.3204                   20698577.9964
 11  8 27 14 57 30.0000000  0  9G13G06G16G20G23G19G07G32G03
 -16986720.84846 -13227460.42344  20400624.7114                   20400623.4534
  -7100150.27346  -5507993.48144  21952939.7114                   21952938.1054
   7059065.13746   5503928.41544  21679128.1804                   21679125.9734
  11775403.29345   9182121.37243  23423983.7274                   23423984.8914
 -10408240.61347  -8092424.25345  19837917.6484                   19837913.2464
  -7224370.36746  -7875056.56644  21815221.3444                   21815218.3014
  -2206045.355 5                  23028696.750
  15516938.01645  12090384.32452  24393969.9304                   24393970.8634
 -13535112.30546 -10542131.64244  20676553.2664                   20676552.6884
 11  8 27 14 58  0.0000000  0  9G13G06G16G20G23G19G07G32G03
 -17142594.46546 -13348920.40344  20370963.1174                   20370961.1414
  -7182888.35546  -5572464.75844  21937195.4384                   21937193.8164
   7033231.34046   5483798.11544  21674212.5474                   21674209.5784
  11756489.32445   9167383.13943  23420385.8284                   23420385.4924
 -10512843.66447  -8173933.14945  19818012.6254                   19818008.1884
  -7402234.09846  -8013651.64844  21781374.7584                   21781371.9264
  -2368626.930 5                  22997758.445
  15502904.09445  12079448.66842  24391298.2274                   24391300.3364
 -13650310.01646 -10631896.09544  20654632.0474                   20654630.6884
 11  8 27 14 58 30.0000000  0  9G13G06G16G20G23G19G07G32G03
 -15722692.22746 -12242503.09344  20641162.0234                   20641159.7424
  -5689727.06646  -4408962.50943  22221334.5474                   22221333.2544
   8582954.39846   6691374.52143  21969114.5864                   21969111.6414
  13312949.88745  10380209.39843  23716569.9064                   23716569.9224
  -9041543.07847  -7027465.18345  20097991.6024                   20097987.5004
  -6004379.73046  -6924414.46544  22047377.7034                   22047375.0944
   -955850.762 5                  23266600.563
  17064141.39155  13295997.02052  24688391.0864                   24688393.5474
 -12189535.21546  -9493630.03344  20932608.0864                   20932606.7704
 11  8 27 14 59  0.0000000  0  9G13G06G16G20G23G19G07G32G03
 -15877860.83246 -12363413.70644  20611633.6954                   20611631.9494
  -5771511.07846  -4472690.36243  22205771.4224                   22205770.5274
   8557391.15646   6671455.06044  21964250.1094                   21964247.0434
  13293942.06645  10365398.04742  23712953.1484                   23712953.0944
  -9145183.41047  -7108223.90645  20078269.2814                   20078265.3444
  -6181655.10246  -7062551.09444  22013642.9924                   22013640.6454
  -1118566.520 5                  23235636.047
  17049807.81645  13284827.81642  24685665.3594                   24685665.1644
 -12303633.71946  -9582537.94344  20910895.8674                   20910894.8484
 11  8 27 14 59 30.0000000  0  9G13G06G16G20G23G19G07G32G03
 -16032673.38346 -12484046.86745  20582174.2274                   20582171.9924
  -5852818.21546  -4536046.62644  22190298.6334                   22190298.2274
   8531959.26246   6651637.95944  21959410.7344                   21959408.0944
  13274883.24245  10350546.93842  23709324.8204                   23709325.7034
  -9248340.76647  -7188606.29145  20058639.2424                   20058635.0744
  -6358631.48046  -7200454.76244  21979965.4844                   21979963.7544
  -1281349.203 5                  23204659.266
  17035321.15645  13273539.40242  24682908.0004                   24682908.5084
 -12417180.91846  -9671016.32544  20889288.8984                   20889287.8634
 11  8 27 15  0  0.0000000  0  9G13G06G16G20G23G19G07G32G03
 -16187125.92246 -12604399.49045  20552783.1954                   20552780.5044
  -5933647.94946  -4599030.85843  22174918.1094                   22174916.6174
   8506657.39146   6631922.19344  21954596.0944                   21954594.5984
  13255772.37145  10335655.16842  23705687.9304                   23705688.2114
  -9351013.18447  -7268610.78945  20039100.9844                   20039096.9454
  -6535304.61346  -7338122.12344  21946345.8134                   21946342.8554
  -1444197.78145  -2173232.67252  23173670.3524                   23173670.1644
  17020680.00845  13262130.58242  24680122.3364                   24680123.5084
 -12530175.05146  -9759063.70844  20867786.6484                   20867785.8364
 11  8 27 15  0 30.0000000  0  9G13G06G16G20G23G19G07G32G03
 -16341212.89846 -12724467.25645  20523461.3134                   20523459.7194
  -6013997.56646  -4661641.01143  22159627.9844                   22159626.4144
   8481486.42646   6612308.40144  21949805.8134                   21949804.1804
  13236609.41045  10320722.91442  23702042.6254                   23702042.1254
  -9453196.52047  -7348234.20745  20019656.6174                   20019652.8834
  -6711668.02346  -7475548.14444  21912785.6094                   21912781.7544
  -1607108.81645  -2300176.30142  23142669.9064                   23142669.7624
  17005885.58245  13250602.30942  24677305.8284                   24677308.4654
 -12642612.13346  -9846677.05744  20846390.8444                   20846389.9804
 11  8 27 15  1  0.0000000  0  9G13G06G16G20G23G19G07G32G03
 -16494935.94146 -12844251.43245  20494208.7974                   20494206.5274
  -6093871.39146  -4723880.36043  22144428.2344                   22144426.8634
   8456440.02046   6592791.69444  21945039.8364                   21945037.8874
  13217387.56345  10305744.74242  23698385.1024                   23698384.6094
  -9554893.79747  -7427478.86445  20000304.2194                   20000300.6564
  -6887722.66446  -7612733.52244  21879283.4534                   21879279.1954
                                  23111654.6644                   23111655.4844
  16990931.09815                  24674461.695
 -12754495.40247  -9933858.83245  20825100.0944                   20825099.3554
 11  8 27 15  1 30.0000000  0  9G13G06G16G20G23G19G07G32G03
 -16648290.30947 -12963748.33745  20465026.7424                   20465024.3914
  -6173268.10246  -4785747.92643  22129319.5234                   22129318.1884
   8431517.69146   6573371.62744  21940297.2114                   21940295.3134
  13198106.52745  10290720.46142  23694716.0004                   23694715.8094
  -9656101.96947  -7506342.37845  19981044.8444                   19981040.9144
  -7063463.30546  -7749674.25844  21845841.4304                   21845837.3284
                                  23080627.3594                   23080629.8204
  16975816.832 5                  24671586.164
 -12865821.97347 -10020606.82744  20803915.3984                   20803914.2114
 11  8 27 15  2  0.0000000  0  9G13G06G16G20G23G19G07G32G03
 -16801272.67247 -13082955.38945  20435914.5944                   20435912.3754
  -6252186.88346  -4847243.10343  22114302.1094                   22114300.4494
   8406718.07846   6554047.23144  21935578.6644                   21935575.3794
  13178764.35945  10275648.51242  23691036.1484                   23691035.2894
  -9756819.13347  -7584823.30745  19961879.0474                   19961875.0004
  -7238885.62146  -7886366.98444  21812459.5084                   21812455.8444
  -2096234.93455  -2681313.48852  23049590.9384                   23049591.8164
  16960541.270 5                  24668677.875
 -12976589.85247 -10106919.46644  20782836.8444                   20782835.8284
 11  8 27 15  2 30.0000000  0  9G13G06G16G20G23G19G07G32G03
 -16953879.12547 -13201869.51045  20406874.5704                   20406872.4964
  -6330626.96946  -4908365.28043  22099375.1024                   22099374.2774
   8382040.06646   6534817.49244  21930881.4304                   21930879.3284
  13159359.56345  10260527.81342  23687341.8754                   23687342.5594
  -9857043.15647  -7662919.96245  19942806.7194                   19942803.1214
  -7413985.31246  -8022808.25844  21779138.9844                   21779136.5004
  -2259402.50445  -2808457.11742  23018542.3204                   23018541.1484
                                  24665741.438
 -13086797.85547 -10192795.84544  20761865.0234                   20761863.6174
 11  8 27 15  3  0.0000000  0  9G13G06G16G20G23G19G07G32G03
 -17106109.48447 -13320490.56845  20377905.7974                   20377904.2814
  -6408591.59446  -4969116.95443  22084540.1334                   22084538.5164
   8357479.24246   6515679.13744  21926208.7344                   21926206.0234
  13139887.60945  10245354.77342  23683637.3754                   23683636.8754
  -9956775.71147  -7740633.66345  19923828.4774                   19923824.6334
  -7588761.51246  -8158997.49944  21745880.1804                   21745877.3984
  -2422634.37545  -2935650.80142  22987481.3984                   22987479.4924
  16929499.52015                  24662771.648
 -13196446.98446 -10278236.74644  20740999.2584                   20740997.6684
 11  8 27 15  3 30.0000000  0  9G13G06G16G20G23G19G07G32G03
 -17257961.55946 -13438816.85845  20349009.5474                   20349007.3634
  -6486081.39846  -5029498.64343  22069793.2814                   22069792.1294
   8333032.42646   6496629.64344  21921556.7894                   21921554.8874
  13120345.33245  10230126.99242  23679919.2424                   23679918.1524
 -10056015.66047  -7817963.50745  19904943.0944                   19904939.8554
  -7763211.30146  -8294932.40444  21712682.8834                   21712680.6884
  -2585930.64845  -3062894.62142  22956405.0864                   22956405.6174
  16913726.06615                  24659770.922
 -13305536.82446 -10363241.85344  20720240.2504                   20720239.3954
 11  8 27 15  4  0.0000000  0  9G13G06G16G20G23G19G07G32G03
 -17409433.36746 -13556846.84945  20320185.5004                   20320183.7734
  -6563096.93446  -5089510.76443  22055137.4774                   22055136.7584
   8308697.43846   6477667.26644  21916925.4384                   21916923.4064
  13100729.99645  10214842.20742  23676187.7114                   23676185.2664
 -10154762.53947  -7894909.14945  19886152.9224                   19886149.1024
  -7937331.87946  -8430610.74344  21679549.2344                   21679546.5514
  -2749291.32845  -3190188.62142  22925318.5864                   22925318.6884
  16897781.22315                  24656735.656
 -13414066.93746 -10447810.77344  20699587.7974                   20699586.7384
 11  8 27 15  4 30.0000000  0  9G13G06G16G20G23G19G07G32G03
 -17560524.22746 -13674579.98045  20291434.2974                   20291432.1294
  -6639640.45746  -5149155.10643  22040571.0164                   22040571.5664
   8284470.04346   6458788.77444  21912315.2584                   21912313.2664
  13081037.11745  10199496.97342  23672439.5704                   23672437.5594
 -10253017.77047  -7971471.69845  19867455.6724                   19867451.8794
  -8111122.02746  -8566031.61244  21646477.7194                   21646475.1414
  -2912718.20345  -3317534.24242  22894220.1024                   22894219.9344
  16881660.83215                  24653669.141
 -13522038.82446 -10531944.74944  20679041.7734                   20679040.6214
 11  8 27 15  5  0.0000000  0  8G13G06G16G20G23G19G07G03
 -17711230.77047 -13792013.63244  20262755.1484                   20262752.9804
  -6715712.10246  -5208431.72443  22026096.2274                   22026094.9144
   8260348.40646   6439992.63144  21907725.4534                   21907722.7384
  13061264.79345  10184089.83242  23668676.6484                   23668675.0274
 -10350779.55147  -8047649.73645  19848852.3984                   19848848.3014
  -8284577.64546  -8701191.83444  21613470.0004                   21613467.3794
  -3076210.60945  -3444930.86342  22863109.0394                   22863107.5044
 -13629451.36346 -10615642.83444  20658601.6954                   20658600.8794
 11  8 27 15  5 30.0000000  0  8G13G06G16G20G23G19G07G03
 -17861550.93446 -13909146.23345  20234150.4384                   20234148.3874
  -6791312.41846  -5267341.10643  22011709.5784                   22011708.8984
   8236330.12546   6421277.00843  21903154.3204                   21903151.5904
  13041410.17645  10168618.65242  23664897.0394                   23664896.6134
 -10448047.18747  -8123442.73645  19830342.7974                   19830338.7384
  -8457695.87946  -8836089.09744  21580526.4384                   21580523.5634
  -3239768.39545  -3572378.45742  22831984.6094                   22831982.8714
 -13736303.59046 -10698904.32544  20638268.2274                   20638267.1414
 11  8 27 15  6  0.0000000  0  8G13G06G16G20G23G19G07G03
 -16436049.68746 -12798366.03445  20505414.6094                   20505412.5744
  -5291012.68046  -4098276.41144  22297206.9304                   22297206.5274
   9787841.34846   7630246.74044  22198397.5704                   22198394.8634
  14596898.98045  11380687.71542  23960896.9304                   23960896.5744
  -8969389.46947  -6971241.93545  20111721.8204                   20111718.1024
  -7055040.36746  -7743110.77344  21847443.5554                   21847440.5004
  -1827958.17245  -2472266.58642  23100643.0394                   23100641.0164
 -12267164.19546  -9554120.40244  20917836.6644                   20917835.3634
 11  8 27 15  6 30.0000000  0  8G13G06G16G20G23G19G07G03
 -16585566.99246 -12914873.00845  20476962.1334                   20476960.1054
  -5365650.55146  -4156435.80343  22283003.6954                   22283002.5164
   9764045.68046   7611704.60643  22193869.4924                   22193866.6174
  14576894.84845  11365099.94542  23957090.8754                   23957090.8054
  -9065644.58247  -7046245.92945  20093405.2344                   20093401.4144
  -7227452.00846  -7877457.46844  21814634.3524                   21814631.8714
  -1991623.50445  -2599798.00042  23069499.1094                   23069495.5434
 -12372872.40246  -9636490.43544  20897720.8674                   20897719.7664
 11  8 27 15  7  0.0000000  0  8G13G06G16G20G23G19G07G03
 -16734682.12947 -13031066.62345  20448586.1174                   20448584.1644
  -5439810.83646  -4214223.10444  22268892.3204                   22268891.2734
   9740354.91846   7593244.22244  22189360.9064                   22189359.0664
  14556809.14545  11349448.64542  23953269.0394                   23953269.4024
  -9161394.89847  -7120856.58045  20075184.5784                   20075181.0434
  -7399508.59446  -8011527.50844  21781892.9224                   21781890.0204
  -2155345.43745  -2727373.46542  23038343.3204                   23038339.7664
 -12478010.45746  -9718416.20544  20877713.6724                   20877712.4064
 11  8 27 15  7 30.0000000  0  8G13G06G16G20G23G19G07G03
 -16883403.88346 -13146953.70045  20420285.8834                   20420283.6724
  -5513505.47746  -4271647.54744  22254868.9844                   22254867.7664
   9716755.83246   7574855.30543  22184870.3204                   22184867.8524
  14536628.09445  11333723.02342  23949429.8914                   23949428.8914
  -9256651.01647  -7195082.16245  20057058.0004                   20057054.3204
  -7571217.92246  -8145326.97644  21749218.4224                   21749215.2464
  -2319134.37145  -2855001.26242  23007177.0474                   23007170.6844
 -12582589.39146  -9799906.30744  20857813.3594                   20857812.4574
 11  8 27 15  8  0.0000000  0  8G13G06G16G20G23G19G07G03
 -17031730.37147 -13262532.79945  20392060.0704                   20392058.0204
  -5586735.75446  -4328710.16043  22240932.7344                   22240932.5664
   9693245.29746   7556535.38543  22180395.9844                   22180394.6724
  14516348.59845  11317920.68842  23945570.1564                   23945570.7734
  -9351412.93447  -7268922.63045  20039025.6094                   20039021.5904
  -7742577.87946  -8278854.17544  21716609.3594                   21716605.8444
  -2482991.074 5                  22975994.078
 -12686609.25846  -9880960.74244  20838018.2034                   20838018.1054
 11  8 27 15  8 30.0000000  0  8G13G06G16G20G23G19G07G03
 -17179659.05946 -13377801.89045  20363910.6254                   20363908.1214
  -5659502.25846  -4385411.38844  22227086.4844                   22227085.9614
   9669821.19146   7538282.75743  22175939.0554                   22175937.1604
  14495968.50445  11302040.02342  23941691.6484                   23941693.3954
  -9445679.68746  -7342377.25545  20021086.6884                   20021083.1374
  -7913585.12546  -8412106.56544  21684067.7734                   21684063.9654
                                  22944800.203
 -12790069.22346  -9961578.91244  20818330.8834                   20818330.4964
 11  8 27 15  9  0.0000000  0  8G13G06G16G20G23G19G07G03
 -17327187.19546 -13492758.88445  20335836.5084                   20335834.5164
  -5731805.03946  -4441751.25143  22213327.4614                   22213327.3554
   9646481.92246   7520096.25143  22171499.0164                   22171495.5084
  14475485.42245  11286079.06743  23937795.6414                   23937795.5314
  -9539450.36346  -7415445.32245  20003243.3444                   20003238.8404
  -8084236.16446  -8545081.39344  21651593.3594                   21651590.3284
  -2810905.617 5                  22913592.578
 -12892968.96946 -10041760.54544  20798749.3834                   20798748.9534
 11  8 27 15  9 30.0000000  0  8G13G06G16G20G23G19G07G03
 -17474309.87147 -13607399.93945  20307840.2504                   20307837.8834
  -5803642.75846  -4497728.72143  22199656.7584                   22199656.6294
   9623227.43846   7501975.85543  22167073.8054                   22167069.8714
  14454899.44145  11270037.84243  23933878.6334                   23933878.0554
  -9632721.85246  -7488124.42645  19985494.0394                   19985490.0864
  -8254525.53546  -8677774.41044  21619188.6484                   21619185.9734
  -2974960.172 5                  22882374.875
 -12995305.23446 -10121503.09044  20779275.5314                   20779274.8244
 11  8 27 15 10  0.0000000  0  8G13G06G16G20G23G19G07G03
 -17621026.04746 -13721724.24945  20279920.5704                   20279919.0554
  -5875017.33246  -4553345.31643  22186074.4224                   22186074.6914
   9600054.46946   7483918.95843  22162663.0004                   22162660.9494
  14434206.85945  11253913.64842  23929939.8524                   23929940.5944
  -9725494.48447  -7560414.80845  19967840.1094                   19967836.0944
  -8424451.41846  -8810184.19744  21586852.9454                   21586850.3674
  -3139079.949 5                  22851145.516
 -13097079.40646 -10200807.63444  20759908.4924                   20759907.7504
 11  8 27 15 10 30.0000000  0  8G13G06G16G20G23G19G07G03
 -17767335.41046 -13835731.53145  20252078.4384                   20252077.1994
  -5945931.39146  -4608603.02043  22172580.4924                   22172579.5554
   9576958.61346   7465922.10943  22158267.3364                   22158266.1954
  14413403.12545  11237702.89142  23925980.4694                   23925980.2234
  -9817770.23847  -7632318.01445  19950280.8754                   19950277.1724
  -8594012.84047  -8942309.99245  21554587.2584                   21554584.5434
  -3303266.324 5                  22819900.867
 -13198292.96547 -10279675.36344  20740648.2424                   20740647.6214
 11  8 27 15 11  0.0000000  0  8G13G06G16G20G23G19G07G03
 -17913235.94146 -13949420.27145  20224315.0784                   20224313.2854
  -6016386.66446  -4663503.30643  22159172.9614                   22159172.4064
   9553937.67646   7447983.65643  22153886.9694                   22153885.5784
  14392485.33645  11221403.21942  23922000.4224                   23921999.7504
  -9909548.28947  -7703833.40945  19932815.4924                   19932812.1564
  -8763206.97347  -9074149.58245  21522390.7424                   21522387.8364
  -3467519.23045  -3749846.41452  22788645.6094                   22788643.9884
 -13298946.23047 -10358106.49445  20721495.0554                   20721494.0634
 11  8 27 15 11 30.0000000  0  8G13G06G16G20G23G19G07G03
 -18058724.00846 -14062787.59445  20196629.4144                   20196627.4344
  -6086382.59046  -4718045.63143  22145853.8914                   22145852.6484
   9530990.28546   7430102.54543  22149520.3134                   22149518.5164
  14371452.16445  11205013.57042  23917996.8054                   23917996.6604
 -10000827.69547  -7774960.25845  19915445.9614                   19915442.2234
  -8932029.85546  -9205699.84245  21490264.5164                   21490261.5274
  -3631837.43445  -3877886.53142  22757376.4534                   22757374.5984
 -13399037.37547 -10436099.58345  20702448.3444                   20702447.2424
 11  8 27 15 12  0.0000000  0  8G13G06G16G20G23G19G07G03
 -18203795.77746 -14175830.53745  20169023.7504                   20169021.5434
  -6155917.66446  -4772228.80843  22132621.4304                   22132621.6414
   9508116.05146   7412278.38243  22145167.7894                   22145166.3634
  14350302.867 5                  23913973.242
 -10091605.91447  -7845696.56445  19898171.3364                   19898167.7154
  -9100477.10246  -9336957.41945  21458210.3284                   21458206.9804
  -3796219.39845  -4005976.37142  22726095.7194                   22726094.0314
 -13498564.73046 -10513653.39144  20683508.6024                   20683507.5514
 11  8 27 15 12 30.0000000  0  8G13G06G16G20G23G19G07G03
 -18348447.19947 -14288545.95345  20141497.0554                   20141495.1134
  -6224992.00046  -4826053.00943  22119476.6334                   22119476.9844
   9485314.73846   7394511.07343  22140829.0004                   22140826.7774
  14329036.996 5                  23909926.813
 -10181880.90647  -7916040.72545  19880993.1414                   19880988.3594
  -9268543.28546  -9467918.07044  21426228.0474                   21426224.6134
  -3960662.33645  -4134113.62542  22694803.5164                   22694801.5594
 -13597526.11346 -10590766.15544  20664676.8204                   20664675.9304
 11  8 27 15 13  0.0000000  0  8G13G06G16G20G23G19G07G03
 -18492677.08647 -14400932.86745  20114051.0164                   20114049.2704
  -6293607.38746  -4879519.58744  22106420.2194                   22106419.4884
   9462582.53146   7376797.61443  22136503.5164                   22136501.0944
  14307650.625 5                  23905857.609
 -10271653.04347  -7985993.07245  19863909.0314                   19863905.9224
  -9436226.71146  -9598580.46844  21394318.4694                   21394315.2664
  -4125167.07445  -4262299.07842  22663498.8364                   22663496.5984
 -13695922.86346 -10667438.95444  20645952.6334                   20645952.0164
 11  8 27 15 13 30.0000000  0  8G13G06G16G20G23G19G07G03
 -17061057.36746 -13285385.05045  20386479.3674                   20386477.4774
  -4786340.92246  -3705026.27643  22393243.6024                   22393243.0664
  11015339.77746   8586738.29543  22431983.6024                   22431980.8524
  15861563.152 5                  24201557.375
  -8785497.78147  -6827950.05345  20146716.3674                   20146711.7074
  -8028098.01246  -8501337.32344  21662277.5784                   21662272.8284
  -2714307.03545  -3162927.59442  22931975.2274                   22931974.3244
 -12218330.14846  -9516068.03344  20927129.0004                   20927128.5314
 11  8 27 15 14  0.0000000  0  8G13G06G16G20G23G19G07G03
 -17204440.51246 -13397112.17845  20359194.1954                   20359192.6564
  -4854043.98046  -3757781.93443  22380360.1884                   22380359.8874
  10992737.09846   8569125.71643  22427681.9304                   22427679.4884
  15839925.324 5                  24197439.008
  -8874266.19947  -6897120.26845  20129823.4844                   20129819.7934
  -8195010.62147  -8631399.10444  21630514.6414                   21630510.6214
  -2878938.10245  -3291211.50442  22900646.6564                   22900645.6484
 -12315600.10246  -9591862.80544  20908619.1024                   20908618.0864
 11  8 27 15 14 30.0000000  0  8G13G06G16G20G23G19G07G03
 -17347398.10946 -13508507.72145  20331989.8834                   20331988.3634
  -4921293.96946  -3810184.52843  22367562.7734                   22367562.6724
  10970194.34046   8551559.88943  22423392.8364                   22423389.9694
  15818156.672 5                  24193297.016
  -8962534.04747  -6965900.44045  20113026.6884                   20113022.7584
  -8361535.36346  -8761158.60745  21598825.3284                   21598822.2774
  -3043633.44944  -3419545.48042  22869306.3984                   22869304.2894
 -12412308.24646  -9667219.83744  20890216.1884                   20890215.5554
 11  8 27 15 15  0.0000000  0  8G13G06G16G20G23G19G07G03
 -17489924.89846 -13619567.55345  20304868.7894                   20304866.1214
  -4988088.43046  -3862232.20143  22354851.6484                   22354852.0084
  10947712.42646   8534041.47643  22419113.4774                   22419111.7854
  15796257.957 5                  24189129.859
  -9050297.48047  -7034287.54745  20096326.6024                   20096322.0944
  -8527665.76247  -8890610.82544  21567212.3984                   21567208.7974
  -3208389.39545  -3547926.82442  22837953.5474                   22837951.6724
 -12508451.39846  -9742136.60744  20871921.0474                   20871920.2274
 11  8 27 15 15 30.0000000  0  8G13G06G16G20G23G19G07G03
 -17632016.35546 -13730288.18645  20277829.5234                   20277827.2274
  -5054425.69546  -3913923.62543  22342228.5784                   22342228.3634
  10925292.38746   8516571.25643  22414847.7424                   22414845.5354
  15774229.926 5                  24184939.336
  -9137553.09047  -7102278.95345  20079721.8284                   20079717.9104
  -8693396.02746  -9019751.28445  21535674.8444                   21535671.0904
  -3373202.609 5                  22806591.352
 -12604026.48446  -9816610.72644  20853733.9304                   20853733.1914
 11  8 27 15 16  0.0000000  0  8G13G06G16G20G23G19G07G03
 -17773670.68746 -13840668.18845  20250873.4384                   20250871.1604
  -5120307.85946  -3965260.42443  22329691.7584                   22329691.3324
  10902930.89146   8499146.67743  22410593.3674                   22410590.1134
  15752069.043 5                  24180722.023
  -9224301.71947  -7169875.29445  20063214.5004                   20063210.4304
  -8858724.26646  -9148578.46944  21504212.7034                   21504210.0274
  -3538073.668 5                  22775217.953
 -12699034.37546  -9890642.86744  20835654.3594                   20835653.9844
 11  8 27 15 16 30.0000000  0  8G13G06G16G20G23G19G07G03
 -17914890.04746 -13950709.24845  20224000.1414                   20223998.6334
  -5185740.30146  -4016246.76943  22317240.2504                   22317240.1094
  10880621.46546   8481762.67743  22406347.4614                   22406344.9844
  15729768.277 5                  24176477.789
  -9310547.80146  -7237080.07145  20046801.7974                   20046798.3634
  -9023652.13746  -9277093.68444  21472828.6644                   21472825.5864
  -3703007.18745  -3933343.18052  22743832.4224                   22743831.7974
 -12793479.75846  -9964236.68245  20817681.7194                   20817681.2584
 11  8 27 15 17  0.0000000  0  8G13G06G16G20G23G19G07G03
 -18055668.41846 -14060406.67445  20197211.5004                   20197209.1844
  -5250720.16446  -4066880.46043  22304875.3984                   22304874.4534
  10858366.22746   8464420.88143  22402112.0704                   22402110.1294
                                  24172208.563
  -9396286.69147  -7303889.60645  20030486.2814                   20030482.2034
  -9188172.52746  -9405291.38644  21441521.6414                   21441518.3794
  -3867997.93745  -4061907.41843  22712435.8364                   22712434.3404
 -12887358.34446 -10037388.84144  20799817.5704                   20799816.8634
 11  8 27 15 17 30.0000000  0  8G13G06G16G20G23G19G07G03
 -18196004.48847 -14169759.44145  20170506.0394                   20170503.9184
  -5315249.25446  -4117162.88043  22292596.4534                   22292594.7544
  10836161.88346   8447118.69043  22397887.3054                   22397884.6454
  15684749.336 5                  24167912.508
  -9481519.31647  -7370304.65445  20014267.1174                   20014262.8834
  -9352283.83246  -9533170.29444  21410292.6954                   21410289.1134
  -4033046.92645  -4190516.93143  22681028.2194                   22681027.1174
 -12980671.49247 -10110100.39444  20782060.2504                   20782059.3324
 11  8 27 15 18  0.0000000  0  8G13G06G16G20G23G19G07G03
 -18335897.49246 -14278766.98645  20143885.3914                   20143883.0514
  -5379330.22746  -4167096.13644  22280402.3364                   22280400.5044
  10814005.44946   8429853.93543  22393671.2274                   22393668.6644
  15662024.039 5                  24163586.758
  -9566246.42647  -7436325.80245  19998143.8444                   19998140.2664
  -9515984.41046  -9660729.17544  21379140.9304                   21379137.3444
  -4198154.98846  -4319172.55343  22649609.8524                   22649608.0824
 -13073420.49246 -10182372.35144  20764411.0164                   20764410.4654
 11  8 27 15 18 30.0000000  0  8G13G06G16G20G23G19G07G03
 -18475345.35547 -14387427.65245  20117349.2344                   20117346.4924
  -5442963.96146  -4216680.93043  22268291.7974                   22268291.6564
  10791894.66446   8412624.68643  22389464.0004                   22389461.4884
  15639151.47714                  24159234.258
  -9650467.77347  -7501952.86045  19982117.3754                   19982113.5474
  -9679271.30946  -9787965.68544  21348068.4384                   21348064.9694
  -4363321.46546  -4447873.68243  22618178.2034                   22618178.5394
 -13165605.53147 -10254204.87644  20746869.0784                   20746868.4884
 11  8 27 15 19  0.0000000  0  8G13G06G16G20G23G19G07G03
 -18614343.82446 -14495738.13545  20090898.4454                   20090896.2154
  -5506149.50046  -4265916.38743  22256268.4844                   22256267.5434
  10769829.48446   8395430.94043  22385264.5394                   22385263.2034
  15616131.344 4                  24154853.063
  -9734181.50047  -7567184.37645  19966187.1484                   19966183.3914
  -9842139.84046  -9914876.23344  21317075.6884                   21317072.2194
  -4528543.69546  -4576618.21143  22586738.3054                   22586737.8164
 -13257224.64146 -10325596.40844  20729434.2584                   20729433.5084
 11  8 27 15 19 30.0000000  0  7G13G06G16G23G19G07G03
 -18752890.04346 -14603696.21645  20064534.6094                   20064532.0944
  -5568887.36746  -4314803.05443  22244330.9694                   22244329.1684
  10747808.92246   8378272.03043  22381074.2424                   22381072.2234
  -9817386.50847  -7632019.50245  19950354.3914                   19950350.3094
 -10004586.56246 -10041458.04744  21286162.6884                   21286159.8244
  -4693820.81246  -4705405.57943  22555287.2814                   22555286.4184
 -13348277.39546 -10396546.63444  20712106.9614                   20712106.3554
 11  8 27 15 20  0.0000000  0  7G13G06G16G23G19G07G03
 -18890981.03946 -14711299.58345  20038256.2344                   20038254.2274
  -5631178.04346  -4363341.32443  22232476.7734                   22232475.5554
  10725831.66446   8361146.87543  22376891.8914                   22376890.4104
  -9900081.95347  -7696457.56245  19934617.6094                   19934613.7734
 -10166607.78146 -10167708.34644  21255331.9384                   21255328.4884
  -4859151.57046  -4834234.73143  22523825.7584                   22523825.0084
 -13438763.09046 -10467055.00344  20694888.0634                   20694887.9024
 11  8 27 15 20 30.0000000  0  7G13G06G16G23G19G07G03
 -17453190.81646 -13590943.58444  20311859.2894                   20311856.6804
  -4117601.51646  -3183931.05143  22520500.9224                   22520499.8134
  12279315.32446   9571653.54043  22672510.0554                   22672508.0864
  -8406845.96947  -6532897.10245  20218771.2894                   20218767.6414
  -8752776.55546  -9066021.65244  21524374.8364                   21524371.9734
  -3449110.90246  -3735501.72643  22792147.3284                   22792146.7584
 -11953259.85546  -9309520.02744  20977569.6414                   20977569.6414
 11  8 27 15 21  0.0000000  0  8G13G06G16G20G23G19G07G03
 -17590364.47346 -13697832.14844  20285755.7034                   20285753.3984
  -4179000.54346  -3231774.49243  22508816.7734                   22508816.0744
  12257419.01245   9554591.47743  22668342.9064                   22668341.4844
  17097948.57815                  24436837.609
  -8488521.27047  -6596540.22645  20203229.1414                   20203225.0944
  -8913937.96546  -9191601.96544  21493707.2424                   21493704.1174
  -3614546.83646  -3864412.82443  22760665.6484                   22760663.9264
 -12042611.96946  -9379145.09644  20960567.9384                   20960566.8914
 11  8 27 15 21 30.0000000  0  8G13G06G16G20G23G19G07G03
 -17727077.28546 -13804361.59844  20259740.0784                   20259737.5864
  -4239956.50846  -3279272.70343  22497217.0394                   22497215.9774
  12235559.37146   9537557.86743  22664183.8524                   22664181.9454
  17074162.742 5                  24432311.609
  -8569687.23847  -6659786.44545  20187783.2734                   20187779.8094
  -9074666.31646  -9316844.82644  21463121.2664                   21463118.5514
  -3780035.31246  -3993364.81543  22729174.2584                   22729172.2234
 -12131398.70746  -9448329.57244  20943672.3204                   20943671.2584
 11  8 27 15 22  0.0000000  0  8G13G06G16G20G23G19G07G03
 -17863330.01246 -13910532.55644  20233812.5314                   20233810.0514
  -4300473.56246  -3326428.84143  22485700.2194                   22485699.9804
  12213731.49646   9520549.10643  22660029.1954                   22660028.7034
  17050213.477 5                  24427753.477
  -8650346.63747  -6722637.93645  20172434.0004                   20172430.4694
  -9234961.87146  -9441750.43645  21432617.8524                   21432615.0664
  -3945578.69146  -4122359.61643  22697672.4454                   22697670.4964
 -12219623.12146  -9517075.91844  20926883.7034                   20926882.8284
 11  8 27 15 22 30.0000000  0  8G13G06G16G20G23G19G07G03
 -17999114.71146 -14016338.81844  20207973.4064                   20207971.2304
  -4360546.80546  -3373239.19443  22474271.1804                   22474269.3014
  12191939.70346   9503568.42743  22655883.5164                   22655881.1804
  17026104.871 5                  24423165.609
  -8730493.71146  -6785090.21545  20157183.0314                   20157179.0234
  -9394815.53146  -9566311.72345  21402199.3054                   21402196.0824
  -4111170.14846  -4251391.88143  22666161.7114                   22666160.2934
 -12307279.28546  -9585379.44244  20910203.3134                   20910201.7384
 11  8 27 15 23  0.0000000  0  8G13G06G16G20G23G19G07G03
 -18134432.41046 -14121781.19044  20182222.9454                   20182221.3954
  -4420180.46546  -3419706.99943  22462922.3364                   22462922.0124
  12170178.65646   9486611.68443  22651742.2114                   22651740.1174
  17001831.56615                  24418546.445
  -8810131.33647  -6847145.50445  20142028.6564                   20142024.6604
  -9554228.05546  -9690529.26744  21371864.1804                   21371860.5594
  -4276813.01246  -4380464.16044  22634641.0634                   22634639.5164
 -12394370.90246  -9653243.05744  20893630.0084                   20893629.4304
 11  8 27 15 23 30.0000000  0  8G13G06G16G20G23G19G07G03
 -18269279.91846 -14226857.17244  20156562.1254                   20156560.3204
  -4479375.18746  -3465832.84143  22451658.7274                   22451657.5314
  12148447.58246   9469678.31943  22647606.6724                   22647605.0664
  16977392.180 5                  24413896.844
  -8889258.72347  -6908803.22545  20126970.9924                   20126967.1414
  -9713195.98046  -9814400.37044  21341613.3754                   21341609.0864
  -4442505.47346  -4509575.12944  22603110.9844                   22603108.7704
 -12480897.20746  -9720666.17844  20877164.4844                   20877164.1374
 11  8 27 15 24  0.0000000  0  8G13G06G16G20G23G19G07G03
 -18403654.19946 -14331564.36644  20130992.0634                   20130989.4144
  -4538130.57846  -3511616.26043  22440477.4224                   22440476.7424
  12126746.24646   9452768.12643  22643477.7344                   22643475.8444
  16952786.00415                  24409214.664
  -8967874.13347  -6970062.01945  20112011.5394                   20112007.4614
  -9871714.91046  -9937921.59144  21311447.4924                   21311444.2774
  -4608245.39546  -4638723.06444  22571571.9534                   22571569.8874
 -12566857.52746  -9787648.25944  20860806.7034                   20860806.6334
 11  8 27 15 24 30.0000000  0  8G13G06G16G20G23G19G07G03
 -18537556.04346 -14435903.44843  20105511.1564                   20105508.0434
  -4596450.89846  -3557060.66143  22429378.8134                   22429379.0784
  12105069.61746   9435877.20143  22639352.8284                   22639351.4614
                                  24404498.602
  -9045980.78147  -7030924.36345  20097148.1644                   20097144.2704
 -10029785.34446 -10061093.34844  21281368.0864                   21281364.3954
  -4774035.13746  -4767909.81644  22540022.4534                   22540021.4064
 -12652255.28546  -9854192.00244  20844556.7734                   20844555.7894
 11  8 27 15 25  0.0000000  0  8G13G06G16G20G23G19G07G03
 -18670987.57846 -14539876.08344  20080119.3364                   20080116.6454
  -4654341.78546  -3602170.53943  22418363.6884                   22418362.9144
  12083411.69546   9419000.87943  22635231.7034                   22635230.1054
  16903051.49615                  24399750.484
  -9123582.80147  -7091393.51445  20082381.2034                   20082376.6914
 -10187408.44946 -10183916.56144  21251373.2344                   21251370.3244
  -4939877.95746  -4897137.95444  22508463.9454                   22508462.7544
 -12737094.84446  -9920300.76844  20828411.1254                   20828411.4414
 11  8 27 15 25 30.0000000  0  8G13G06G16G20G23G19G07G03
 -18803944.17646 -14643478.63843  20054818.9384                   20054816.4184
  -4711801.80146  -3646944.58343  22407428.7734                   22407428.5824
  12061773.14146   9402139.56143  22631114.0474                   22631113.1564
                                  24394968.125
  -9200677.76247  -7151467.55245  20067710.4454                   20067706.1134
 -10344579.35246 -10306387.41244  21221465.1414                   21221461.6684
  -5105770.81246  -5026405.06444  22476894.7504                   22476894.6024
 -12821374.22746  -9985973.05844  20812373.9614                   20812373.6804
 11  8 27 15 26  0.0000000  0  8G13G06G16G20G23G19G07G03
 -18936425.80546 -14746711.09143  20029608.9384                   20029606.5394
  -4768834.59446  -3691385.72343  22396576.5234                   22396574.5394
  12040149.84846   9385290.21543  22626998.7344                   22626998.6214
                                  24390149.305
  -9277267.91047  -7211148.23045  20053135.1724                   20053131.2734
 -10501297.63746 -10428505.51844  21191641.9694                   21191639.0474
  -5271715.47746  -5155712.55744  22445316.6644                   22445316.7814
 -12905096.19946 -10051210.99244  20796442.0634                   20796441.7304
 11  8 27 15 26 30.0000000  0  7G13G06G16G23G19G07G03
 -19068430.18045 -14849571.67443  20004489.6724                   20004487.2504
  -4825440.27746  -3735494.08743  22385803.8594                   22385803.4804
  12018541.28546   9368452.29843  22622887.4064                   22622885.2734
  -9353352.48847  -7270434.94845  20038657.3134                   20038652.8834
 -10657559.57046 -10550268.04944  21161906.8674                   21161903.2704
  -5437710.15246  -5285059.01744  22413728.4924                   22413728.8134
 -12988260.43746 -10116014.33844  20780616.4844                   20780615.7814
 11  8 27 15 27  0.0000000  0  7G13G06G16G23G19G07G03
 -19199955.35545 -14952058.80943  19979461.8204                   19979458.5904
  -4881620.65646  -3779271.04243  22375113.0944                   22375113.0664
  11996945.39846   9351624.32043  22618777.5084                   22618776.0904
  -9428931.91047  -7329328.05045  20024274.8984                   20024270.3204
 -10813363.06646 -10671673.36944  21132258.0234                   21132254.4104
  -5603754.38346  -5414444.07244  22382131.8204                   22382131.3244
 -13070867.03146 -10180383.15644  20764896.9064                   20764896.7274
 11  8 27 15 27 30.0000000  0  7G13G06G16G23G19G07G03
 -19330999.02046 -15054170.76043  19954524.2894                   19954521.6214
  -4937376.60546  -3822717.24643  22364502.9454                   22364503.0354
  11975360.56646   9334804.96143  22614670.2424                   22614669.1764
  -9504005.71546  -7387827.16345  20009988.1174                   20009984.9224
 -10968704.88746 -10792718.91744  21102697.2664                   21102693.8594
  -5769846.97746  -5543866.88644  22350525.5864                   22350524.6724
 -13152916.56246 -10244317.86544  20749283.9384                   20749282.9924
 11  8 27 15 28  0.0000000  0  7G13G06G16G23G19G07G03
 -17886131.51245 -13928299.97443  20229472.8204                   20229470.3594
  -3417284.17646  -2638229.66243  22653766.9454                   22653767.3364
  13529209.34846  10545596.12643  22910358.4924                   22910356.2304
  -8003148.22346  -6218327.83145  20295592.3284                   20295588.2074
  -9548153.80946  -9685796.00744  21373018.1174                   21373015.7034
  -4360558.35246  -4445719.89844  22618702.7584                   22618703.7814
 -11658983.34046  -9080214.09344  21033570.1484                   21033568.9884
 11  8 27 15 28 30.0000000  0  7G13G06G16G23G19G07G03
 -18016201.81245 -14029653.41343  20204721.0394                   20204718.8134
  -3472190.70345  -2681014.01443  22643317.9064                   22643318.5124
  13507646.27046  10528793.62443  22906254.5314                   22906251.7274
  -8077206.78546  -6276035.81745  20281499.4224                   20281495.8554
  -9702560.14546  -9806112.68344  21343636.5634                   21343633.2544
  -4526741.32846  -4575213.03544  22587081.0864                   22587079.5394
 -11739916.08646  -9143278.61844  21018169.0944                   21018167.7464
 11  8 27 15 29  0.0000000  0  7G13G06G16G23G19G07G03
 -18145785.16445 -14130627.50843  20180062.2504                   20180060.1884
  -3526677.40245  -2723471.24743  22632949.3834                   22632949.5784
  13486089.06646  10511995.75543  22902152.4384                   22902149.8914
  -8150760.69947  -6333350.55845  20267503.2114                   20267499.0944
  -9856497.51646  -9926063.87544  21314343.4304                   21314340.1414
  -4692970.71946  -4704742.39644  22555447.1564                   22555446.9924
 -11820294.03546  -9205910.81744  21002873.2814                   21002872.6334
 11  8 27 15 29 30.0000000  0  7G13G06G16G23G19G07G03
 -18274880.44145 -14231221.23343  20155496.4454                   20155493.7974
  -3580746.19545  -2765602.76343  22622660.3914                   22622660.3834
  13464535.05146  10495200.36343  22898051.1484                   22898048.5514
  -8223810.98847  -6390272.89645  20253601.6804                   20253598.4264
 -10009964.39546 -10045648.45345  21285140.3054                   21285136.2384
  -4859246.80146  -4834308.12744  22523806.9694                   22523805.5664
 -11900118.58646  -9268111.81344  20987683.1804                   20987682.6604
 11  8 27 15 30  0.0000000  0  7G13G06G16G23G19G07G03
 -18403485.19545 -14331432.71943  20131023.7114                   20131021.8164
  -3634397.76245  -2807409.24743  22612451.5004                   22612450.4694
  13442983.19946  10478406.67443  22893949.9614                   22893948.2154
  -8296356.85247  -6446802.16645  20239796.8134                   20239793.4924
 -10162957.31247 -10164863.70644  21256026.9534                   21256022.6684
  -5025567.91846  -4963908.91344  22492156.7424                   22492155.2114
 -11979389.47746  -9329881.34544  20972598.2114                   20972598.4614
 11  8 27 15 30 30.0000000  0  7G13G06G16G23G19G07G03
 -18531599.37545 -14431261.97443  20106644.7894                   20106642.5784
  -3687635.64146  -2848893.36743  22602320.2894                   22602320.3324
  13421430.07846  10461611.95643  22889848.6804                   22889846.8284
  -8368401.21147  -6502940.66845  20226087.5004                   20226083.3594
 -10315476.08647 -10283709.49345  21227003.3594                   21226999.2504
  -5191935.44946  -5093545.89143  22460497.3834                   22460496.3954
 -12058109.48046  -9391221.64844  20957618.8754                   20957618.0434
 11  8 27 15 31  0.0000000  0  7G13G06G16G23G19G07G03
 -18659222.44945 -14530708.50243  20082358.6724                   20082356.3674
  -3740462.27046  -2890057.00943  22592268.5084                   22592267.3134
  13399872.92646  10444814.11643  22885746.7894                   22885744.7274
  -8439944.92247  -6558689.06145  20212472.9694                   20212469.1884
 -10467519.10247 -10402184.54744  21198070.2814                   21198066.2034
  -5358349.46146  -5223219.07844  22428830.7974                   22428828.1764
 -12136280.47746  -9452134.13544  20942743.4614                   20942742.7934
 11  8 27 15 31 30.0000000  0  7G13G06G16G23G19G07G03
 -18786355.06246 -14629772.89643  20058166.1414                   20058163.7384
  -3792881.62146  -2930903.34043  22582293.3204                   22582292.6334
  13378307.54345  10428009.86143  22881642.6174                   22881641.1334
  -8510990.74247  -6614049.45745  20198953.4384                   20198950.0354
 -10619086.44546 -10520288.94745  21169227.4224                   21169224.0594
  -5524811.50846  -5352929.71544  22397153.5554                   22397151.5554
 -12213905.23046  -9512620.97144  20927971.8984                   20927971.1094
 11  8 27 15 32  0.0000000  0  7G13G06G16G23G19G07G03
 -18912990.23845 -14728449.71143  20034068.3594                   20034065.6054
  -3844890.05146  -2971429.44643  22572396.6564                   22572396.1804
  13356737.14145  10411201.75442  22877537.1564                   22877535.7544
  -8581534.12547  -6669018.35545  20185528.7814                   20185525.6644
 -10770170.59046 -10638016.87544  21140477.1024                   21140474.3014
  -5691315.99646  -5482673.41744  22365468.2504                   22365467.0824
 -12290979.84846  -9572679.14444  20913304.5704                   20913304.3954
 11  8 27 15 32 30.0000000  0  7G13G06G16G23G19G07G03
 -19039127.22346 -14826738.25844  20010065.2424                   20010062.6294
  -3896490.01646  -3011637.22043  22562577.8754                   22562577.4384
  13335159.37945  10394387.82842  22873431.3834                   22873429.5704
  -8651576.26247  -6723596.65444  20172200.5784                   20172196.9964
 -10920770.14846 -10755367.14444  21111818.6174                   21111815.5354
  -5857863.02346  -5612450.27944  22333775.6484                   22333774.3164
 -12367506.18446  -9632310.08144  20898742.8284                   20898742.4454
 11  8 27 15 33  0.0000000  0  7G13G06G16G23G19G07G03
 -19164769.24646 -14924641.16143  19986156.1804                   19986153.6524
  -3947687.83246  -3051531.68843  22552835.3444                   22552835.7704
  13313567.86345  10377563.23743  22869323.5554                   22869320.8094
  -8721122.47346  -6777788.54444  20158966.6094                   20158962.9224
 -11070887.65646 -10872341.83044  21083252.5944                   21083249.6134
  -6024456.57846  -5742263.40844  22302074.5164                   22302073.2894
 -12443489.91046  -9691518.20944  20884282.7504                   20884282.4734
 11  8 27 15 33 30.0000000  0  7G13G06G16G23G19G07G03
 -19289911.90646 -15022154.91544  19962342.0164                   19962340.1134
  -3998482.50845  -3091112.04443  22543168.9454                   22543169.9694
  13291963.23446  10360728.36342  22865211.4304                   22865209.8134
  -8790170.82046  -6831592.47044  20145826.6724                   20145823.4804
 -11220518.32446 -10988937.16644  21054778.7034                   21054775.8324
  -6191093.01646  -5872109.93444  22270364.5004                   22270363.8794
 -12518929.45746  -9750302.33244  20869927.7504                   20869926.8594
 11  8 27 15 34  0.0000000  0  7G13G06G16G23G19G07G03
 -19414552.42246 -15119277.44544  19938624.1724                   19938621.8054
  -4048874.46146  -3130378.54443  22533578.9844                   22533579.9224
  13270345.64146  10343883.38943  22861098.0944                   22861096.0554
  -8858720.18047  -6885007.59945  20132782.6414                   20132779.0594
 -11369658.42646 -11105150.22044  21026398.1884                   21026395.2624
  -6357770.43446  -6001988.40044  22238646.2974                   22238646.5744
 -12593823.86746  -9808661.62644  20855675.4924                   20855674.7894
 11  8 27 15 34 30.0000000  0  7G13G06G16G23G19G07G03
 -19538690.82846 -15216008.68244  19915000.7424                   19914999.4454
  -4098866.72346  -3169333.58543  22524066.1484                   22524066.6844
  13248711.39545  10327025.46542  22856981.5634                   22856979.5474
  -8926772.97747  -6938035.79345  20119832.7034                   20119828.8954
 -11518307.59446 -11220980.74044  20998111.2584                   20998108.4614
  -6524489.86346  -6131899.62944  22206921.0944                   22206920.9884
 -12668176.03146  -9866598.39644  20841527.6094                   20841525.9144
 11  8 27 15 35  0.0000000  0  7G13G06G16G23G19G07G03
 -18086902.55546 -14084745.09544  20191267.0864                   20191265.2624
  -2573040.58245  -1980378.17343  22814421.9224                   22814421.2194
  14802478.35245  11537752.89343  23152654.2194                   23152650.8324
  -7418908.80547  -5763076.74745  20406770.0314                   20406766.0084
 -10091039.74246 -10108823.94945  21269711.4224                   21269708.8484
  -5115826.10246  -5034239.54744  22474980.3054                   22474980.1564
 -11166566.12146  -8696512.77144  21127274.5164                   21127273.6024
 11  8 27 15 35 30.0000000  0  8G13G10G06G16G23G19G07G03
 -18210037.50446 -14180694.41344  20167836.1414                   20167833.3594
  28210418.88715                  24035100.508
  -2622244.21945  -2018718.70343  22805058.6254                   22805058.0704
  14780800.37145  11520860.99543  23148528.2504                   23148526.8984
  -7485975.58647  -5815336.59645  20394007.5164                   20394003.8754
 -10238705.56646 -10223888.23044  21241611.4614                   21241609.1994
  -5282632.46546  -5164218.50344  22443239.1644                   22443237.5634
 -11239842.54346  -8753611.30344  21113330.5704                   21113329.1994
 11  8 27 15 36  0.0000000  0  8G13G10G06G16G23G19G07G03
 -18332669.60546 -14276251.91444  20144499.8524                   20144498.0124
  28109835.121 5                  24015959.195
  -2671056.93045  -2056754.63443  22795769.8054                   22795770.1024
  14759097.28546  11503949.37743  23144398.5004                   23144397.2624
  -7552551.12947  -5867213.67545  20381338.4304                   20381335.0554
 -10385877.63346 -10338567.76444  21213605.5634                   21213603.1134
  -5449482.03746  -5294231.08444  22411487.7734                   22411487.2664
 -11312583.60946  -8810292.66044  21099488.0394                   21099487.0314
 11  8 27 15 36 30.0000000  0  8G13G10G06G16G23G19G07G03
 -18454796.67246 -14371415.86844  20121259.4774                   20121257.7814
  28009647.750 5                  23996894.758
  -2719480.12946  -2094487.09243  22786554.9614                   22786554.5664
  14737367.58646  11487017.01143  23140263.8754                   23140262.3714
  -7618635.80547  -5918708.24045  20368763.0084                   20368759.7544
 -10532553.37546 -10452860.55444  21185694.1954                   21185690.9734
  -5616373.42246  -5424276.33844  22379728.9304                   22379728.4224
 -11384790.07846  -8866557.46344  21085747.9304                   21085746.7894
 11  8 27 15 37  0.0000000  0  8G13G10G06G16G23G19G07G03
 -18576408.94146 -14466178.68044  20098117.5704                   20098115.4224
  27909863.660 5                  23977906.242
  -2767506.94546  -2131910.53543  22777416.3204                   22777415.7464
  14715618.16446  11470069.45943  23136125.5004                   23136123.9574
  -7684221.78947  -5969814.22045  20356282.3054                   20356279.2464
 -10678722.09046 -10566758.24644  21157879.3134                   21157875.8444
  -5783297.31246  -5554346.87644  22347965.2734                   22347964.1294
 -11456454.32446  -8922399.77144  21072110.0084                   21072109.4384
 11  8 27 15 37 30.0000000  0  8G13G10G06G16G23G19G07G03
 -18697504.83646 -14560539.15844  20075074.8444                   20075071.8714
  27810482.145 5                  23958995.508
  -2815139.10946  -2169026.60043  22768351.5554                   22768351.2624
  14693847.73845  11453105.34443  23131982.6954                   23131981.6764
  -7749309.62547  -6020532.05445  20343896.8834                   20343893.0704
 -10824381.73446 -10680259.28244  21130161.0234                   21130157.7974
  -5950253.06646  -5684442.20044  22316194.5704                   22316193.3524
 -11527577.41446  -8977820.40044  21058575.9694                   21058575.1134
 11  8 27 15 38  0.0000000  0  8G13G10G06G16G23G19G07G03
 -18818084.65646 -14654497.46645  20052128.2114                   20052126.0474
  27711500.563 5                  23940159.750
  -2862379.96146  -2205837.68343  22759362.7344                   22759361.4844
  14672052.74645  11436122.16643  23127835.3754                   23127833.2814
  -7813901.83647  -6070863.68345  20331605.4694                   20331601.3834
 -10969532.14846 -10793363.48644  21102539.5864                   21102536.4184
  -6117241.24246  -5814562.79144  22284417.2424                   22284416.1134
 -11598162.70346  -9032821.95144  21045143.6024                   21045142.4774
 11  8 27 15 38 30.0000000  0  8G13G10G06G16G23G19G07G03
 -18938151.02346 -14748055.68945  20029280.1644                   20029278.2034
  27612913.359 5                  23921398.711
  -2909235.31646  -2242348.41543  22750445.9144                   22750445.4884
  14650227.87145  11419115.79742  23123680.9304                   23123678.9494
  -7878003.14847  -6120812.81345  20319406.9534                   20319403.5554
 -11114175.35246 -10906072.50444  21075015.0394                   21075012.0594
  -6284265.46146  -5944711.48744  22252634.0474                   22252632.3204
 -11668215.18446  -9087408.35644  21031813.8364                   21031812.2304
 11  8 27 15 39  0.0000000  0  8G13G10G06G16G23G19G07G03
 -19057707.02746 -14841216.23645  20006530.9614                   20006527.8164
  27514715.152 5                  23902712.586
  -2955711.28946  -2278563.46043  22741602.4224                   22741601.6294
  14628366.85945  11402081.11342  23119522.2344                   23119518.9884
  -7941618.87947  -6170383.53544  20307301.8754                   20307297.0944
 -11258313.65646 -11018388.04644  21047586.8444                   21047583.8404
  -6451328.78946  -6074890.63744  22220842.6954                   22220841.3164
 -11737740.44146  -9141583.95244  21018583.8284                   21018582.1254
 11  8 27 15 39 30.0000000  0  8G13G10G06G16G23G19G07G03
 -19176748.49246 -14933975.84445  19983876.4454                   19983874.7034
  27416907.383 5                  23884100.773
  -3001807.37546  -2314482.58743  22732831.0784                   22732830.1134
  14606470.98045  11385019.28542  23115355.1094                   23115352.9344
  -8004746.94947  -6219574.30745  20295289.0234                   20295284.8364
 -11401942.13746 -11130306.32244  21020254.8914                   21020251.8554
  -6618427.89146  -6205097.72444  22189045.0554                   22189043.2664
 -11806736.90646  -9195347.46344  21005454.2424                   21005452.4964
 11  8 27 15 40  0.0000000  0  8G13G10G06G16G23G19G07G03
 -19295284.17646 -15026341.29345  19961320.4844                   19961318.3794
  27319478.844 5                  23865560.781
  -3047534.76646  -2350114.34643  22724128.4064                   22724128.3134
  14584528.78945  11367921.42242  23111180.5634                   23111176.8984
  -8067397.99247  -6268393.37145  20283366.6414                   20283362.9574
 -11545069.01646 -11241833.76544  20993018.9924                   20993015.5514
  -6785571.75446  -6335339.63644  22157238.5084                   22157237.0784
 -11875215.71146  -9248707.59344  20992422.9384                   20992421.4264
 11  8 27 15 40 30.0000000  0  8G13G10G06G16G23G19G07G03
 -19413321.98046 -15118318.84045  19938858.7894                   19938856.4064
  27222419.137 5                  23847090.547
  -3092904.47746  -2385467.38843  22715495.3754                   22715495.3674
  14562529.50045  11350779.10543  23106992.7734                   23106991.3014
  -8129582.00847  -6316848.48345  20271533.2734                   20271529.8984
 -11687701.57846 -11352976.00644  20965877.5474                   20965873.1564
  -6952768.66046  -6465622.92744  22125421.8054                   22125421.3594
 -11943187.48846  -9301672.66444  20979488.6094                   20979487.0474
 11  8 27 15 41  0.0000000  0  8G13G10G06G16G23G19G07G03
 -19530861.99646 -15209908.46645  19916491.0164                   19916489.5084
  27125725.688 5                  23828691.008
  -3137919.73445  -2420544.26143  22706929.2734                   22706929.7234
  14540470.12945  11333589.91043  23102796.6254                   23102794.4024
  -8191301.35247  -6364941.51845  20259788.2584                   20259785.0274
 -11829839.21146 -11463732.59944  20938829.2424                   20938824.7074
  -7120019.13346  -6595947.93844  22093594.2424                   22093593.9184
 -12010655.09046  -9354244.84844  20966649.3674                   20966649.6294
 11  8 27 15 41 30.0000000  0  8G13G10G06G16G23G19G07G03
 -19647901.50446 -15301108.09045  19894219.9534                   19894217.7934
  27029398.45345  14773615.78552  23810359.9774                   23810362.1764
  -3182581.33245  -2455345.57343  22698430.0004                   22698430.8284
  14518350.52346  11316353.76343  23098587.0084                   23098584.4534
  -8252555.94547  -6412672.40145  20248132.3054                   20248128.5164
 -11971478.96546 -11574101.24944  20911875.6804                   20911871.7814
  -7287320.76246  -6726312.79144  22061759.0944                   22061757.7974
 -12077618.24246  -9406423.95844  20953907.7114                   20953906.3324
 11  8 27 15 42  0.0000000  0  8G13G10G06G16G23G19G07G03
 -18189013.00846 -14164311.85745  20171837.1484                   20171834.6764
  28508861.81345  15926444.33242  24091893.0004                   24091895.1334
  -1651466.64145  -1262269.21043  22989792.8204                   22989791.9964
  16071592.34046  12526671.97843  23394158.5314                   23394157.3674
  -6737921.77747  -5232438.03645  20536357.6804                   20536354.1294
 -10537191.68046 -10456474.77044  21184811.1174                   21184807.7424
  -5879244.67646  -5629110.60444  22329707.1094                   22329705.4844
 -10568653.78546  -8230607.54244  21241053.5634                   21241051.9844
 11  8 27 15 42 30.0000000  0  8G13G10G06G16G23G19G07G03
 -18305043.73846 -14254725.43445  20149757.2114                   20149755.2154
  28413267.60545  15851955.28942  24073701.5474                   24073703.6684
  -1695421.66045  -1296520.00343  22981427.2274                   22981427.3524
  16049352.45345  12509342.15343  23389927.1724                   23389924.5824
  -6798244.30947  -5279442.67145  20524880.0164                   20524875.2344
 -10677825.36746 -10566059.47144  21158050.1644                   21158046.1804
  -6046641.47346  -5759549.62545  22297852.5234                   22297851.1684
 -10634607.85546  -8282000.33244  21228502.5864                   21228501.4304
 11  8 27 15 43  0.0000000  0  8G13G10G06G16G23G19G07G03
 -18420576.77446 -14344751.21844  20127771.4384                   20127769.6724
  28318028.88745  15777743.25842  24055578.5554                   24055580.6334
  -1739035.14545  -1330504.47843  22973128.9614                   22973127.4064
  16027041.08645  12491956.60942  23385679.9844                   23385678.5704
  -6858111.27347  -5326092.27245  20513486.6174                   20513482.8444
 -10817962.24646 -10675257.07244  21131382.6644                   21131379.9924
  -6214093.51646  -5890031.68744  22265987.3834                   22265986.1954
 -10700068.23046  -8333008.44944  21216045.7974                   21216044.6644
 11  8 27 15 43 30.0000000  0  8G13G10G06G16G23G19G07G03
 -18535615.50046 -14434391.76044  20105880.7814                   20105878.5084
  28223140.17245  15703803.97742  24037521.1024                   24037523.5784
  -1782313.14845  -1364227.69743  22964891.4694                   22964891.7934
  16004652.57445  12474510.93442  23381420.9224                   23381418.5744
  -6917527.85546  -5372390.93545  20502179.0234                   20502176.1094
 -10957604.71146 -10784069.39945  21104809.0314                   21104806.9614
  -6381604.03546  -6020559.34844  22234110.8054                   22234110.0394
 -10765040.80546  -8383636.44043  21203682.4454                   21203680.7734
 11  8 27 15 44  0.0000000  0  8G13G10G06G16G23G19G07G03
 -18650157.12946 -14523644.98645  20084084.1254                   20084082.2584
  28128601.71145  15630137.58242  24019531.4924                   24019533.1994
  -1825255.79345  -1397689.59643  22956720.7274                   22956720.4264
  15982187.05945  12457005.29742  23377145.1564                   23377144.2894
  -6976493.44946  -5418338.20644  20490958.7664                   20490956.1604
 -11096749.54346 -10892493.98144  21078330.9774                   21078328.5704
  -6549170.52046  -6151130.58044  22202223.3524                   22202223.1644
 -10829525.42246  -8433884.25043  21191411.0554                   21191409.5474
 11  8 27 15 44 30.0000000  0  8G13G10G06G16G23G19G07G03
 -18764196.31646 -14612506.69544  20062383.3054                   20062381.5084
  28034416.19945  15556746.24242  24001608.4614                   24001609.8094
  -1867860.80946  -1430888.31043  22948613.4304                   22948613.6804
  15959647.98445  12439442.31642  23372857.4924                   23372855.3754
  -7035004.49646  -5463931.25345  20479825.0004                   20479821.5354
 -11235390.70746 -11000526.06845  21051948.5084                   21051945.7774
  -6716787.38746  -6281741.11044  22170327.1564                   22170326.4144
 -10893519.03146  -8483749.43044  21179233.1094                   21179232.1604
 11  8 27 15 45  0.0000000  0  8G13G10G06G16G23G19G07G03
 -18877725.11346 -14700970.73744  20040779.4534                   20040777.1254
  27940589.32845  15483634.34842  23983754.4924                   23983755.9264
  -1910123.21145  -1463820.18543  22940571.8914                   22940571.7344
  15937040.05145  12421825.60542  23368555.1334                   23368552.3634
  -7093055.71147  -5509166.00445  20468777.9304                   20468775.0234
 -11373519.68046 -11108159.03945  21025663.7274                   21025660.7934
  -6884446.91846  -6412384.86744  22138422.4774                   22138422.0274
 -10957016.58246  -8533228.04344  21167150.8364                   21167149.4614
 11  8 27 15 45 30.0000000  0  8G13G10G06G16G23G19G07G03
 -18990741.65246 -14789035.55644  20019272.8674                   20019270.5234
  27847120.37545  15410801.37542  23965967.2114                   23965968.7194
  -1952044.20745  -1496485.94643  22932594.3984                   22932593.9304
  15914362.68845  12404154.85242  23364238.6804                   23364236.2234
  -7150647.02747  -5554042.39745  20457819.1644                   20457815.7704
 -11511134.00846 -11215391.00044  20999477.1414                   20999473.5944
  -7052147.34446  -6543060.49844  22106510.1954                   22106509.5904
 -11020018.41446  -8582320.42744  21155161.9844                   21155160.1174
 11  8 27 15 46  0.0000000  0  9G13G10G06G16G11G23G19G07G03
 -19103249.28946 -14876703.88044  19997864.2894                   19997860.9384
  27754003.65645  15338242.85542  23948248.0004                   23948250.0864
  -1993629.93745  -1528890.44043  22924680.8134                   22924680.8834
  15891610.40245  12386425.71142  23359910.0164                   23359905.4224
  29610937.04315                  24572777.930
  -7207783.85247  -5598564.64045  20446946.6024                   20446942.3484
 -11648236.27346 -11322223.92045  20973386.8984                   20973383.4924
  -7219892.08246  -6673770.64644  22074589.6954                   22074588.8984
 -11082530.57846  -8631031.23644  21143266.1644                   21143264.8444
 11  8 27 15 46 30.0000000  0  9G13G10G06G16G11G23G19G07G03
 -19215239.79746 -14963969.22844  19976552.4694                   19976550.5824
  27661244.68445  15265963.09343  23930597.0314                   23930598.4024
  -2034875.02345  -1561029.57843  22916832.9144                   22916831.3594
  15868788.97345  12368642.72342  23355567.0864                   23355563.3404
  29424239.72315                  24537252.250
  -7264459.95747  -5642727.89845  20436160.8284                   20436157.1764
 -11784817.57846 -11428650.91245  20947396.2034                   20947393.0514
  -7387672.81646  -6804508.81444  22042661.7344                   22042661.2814
 -11144547.56646  -8679356.19544  21131465.1724                   21131463.4264
 11  8 27 15 47  0.0000000  0  9G13G10G06G16G11G23G19G07G03
 -19326714.12946 -15050832.37844  19955339.6724                   19955337.5514
  27568840.16045  15193959.56143  23913012.1954                   23913014.7344
  -2075783.74646  -1592906.53843  22909047.8674                   22909047.0984
  15845894.75045  12350802.99843  23351210.8674                   23351208.4024
  29237339.539 5                  24501684.859
  -7320678.57047  -5686534.69044  20425463.3444                   20425458.9534
 -11920878.64546 -11534672.53645  20921504.7584                   20921501.5044
  -7555490.59046  -6935275.88044  22010727.8444                   22010726.4774
 -11206072.93046  -8727298.10744  21119756.8204                   21119755.6054
 11  8 27 15 47 30.0000000  0  9G13G10G06G16G11G23G19G07G03
 -19437671.19546 -15137292.43244  19934225.1724                   19934222.5824
  27476788.54745  15122231.00343  23895496.1954                   23895497.8714
  -2116357.96946  -1624522.86043  22901326.6484                   22901325.8444
  15822926.78145  12332905.75943  23346840.1254                   23346838.6564
  29050239.574 5                  24466082.617
  -7376440.73047  -5729985.76444  20414852.1334                   20414847.6644
 -12056417.61746 -11640287.30045  20895712.7344                   20895709.0984
  -7723343.79346  -7066070.57044  21978786.3364                   21978784.9264
 -11267107.75446  -8774857.76244  21108142.3054                   21108140.3444
 11  8 27 15 48  0.0000000  0 10G13G10G06G16G11G23G19G07G28G03
 -19548108.44946 -15223347.45244  19913209.6644                   19913207.4804
  27385090.26645  15050777.77443  23878046.8444                   23878048.3204
  -2156597.82846  -1655878.63043  22893669.2814                   22893668.0354
  15799885.43045  12314951.38043  23342455.0784                   23342454.4384
  28862943.68815                  24430440.352
  -7431746.05946  -5773080.90244  20404327.6724                   20404323.0984
 -12191431.40646 -11745492.84645  20870020.7894                   20870016.9844
  -7891230.25446  -7196891.09144  21946838.1804                   21946836.3714
  29151702.35215                  24393078.586
 -11327652.17246  -8822035.22144  21096620.3914                   21096619.6174
 11  8 27 15 48 30.0000000  0 10G13G10G06G16G11G23G19G07G28G03
 -19658025.79746 -15308997.34144  19892293.0554                   19892290.8754
  27293743.00045  14979598.06743  23860662.8364                   23860665.0704
  -2196506.12545  -1686976.07042  22886076.1024                   22886073.7464
  15776768.35546  12296938.04742  23338056.6644                   23338055.3204
  28675453.38315                  24394762.125
  -7486596.46546  -5815821.51544  20393890.1804                   20393886.7704
 -12325919.46946 -11850288.73545  20844428.0864                   20844424.7384
  -8059149.57446  -7327737.27144  21914884.0634                   21914882.4304
  28969277.297 5                  24358364.195
 -11387708.85246  -8868832.63644  21085193.0234                   21085191.6294
 11  8 27 15 49  0.0000000  0 10G13G10G06G16G11G23G19G07G28G03
 -18191999.08246 -14166638.89444  20171268.5704                   20171267.1954
  28778167.53545  16136292.49643  24143140.4694                   24143141.4144
   -660663.83646   -490215.90642  23178335.4694                   23178334.3754
  17328994.52345  13506464.86543  23633434.2814                   23633433.8914
  30063197.56615                  24658842.242
  -5965571.90246  -4630607.57544  20683331.6024                   20683328.6804
 -10884455.95746 -10727070.40745  21118729.6094                   21118725.9774
  -6651675.62546  -6231004.25744  22182717.3914                   22182716.2274
  30362429.883 5                  24623473.203
  -9871857.83646  -7687650.10043  21373649.3674                   21373647.8444
 11  8 27 15 49 30.0000000  0 10G13G10G06G16G11G23G19G07G28G03
 -18300871.10946 -14251474.21944  20150550.7194                   20150548.8754
  28687519.90645  16065657.95143  24125890.3134                   24125892.0164
   -699912.10946   -520799.00743  23170867.5314                   23170865.9224
  17305724.82045  13488332.50842  23629006.8134                   23629005.7854
  29875329.87915                  24623091.977
  -6019513.58647  -4672640.08145  20673066.9384                   20673063.9534
 -11017884.89846 -10831041.01845  21093338.6334                   21093334.8444
  -6819654.86346  -6361897.15344  22150751.3914                   22150750.7074
  30180311.996 5                  24588816.906
  -9930940.91046  -7733688.88043  21362405.8524                   21362405.3284
 11  8 27 15 50  0.0000000  0 10G13G10G06G16G11G23G19G07G28G03
 -18409221.72346 -14335903.28044  20129933.0234                   20129930.6724
  28597217.35945  15995292.29343  24108705.9614                   24108707.9264
   -738835.79346   -551129.17043  23163459.7114                   23163459.7384
  17282374.28145  13470137.19542  23624563.4384                   23624562.5354
  29687274.957 5                  24587305.422
  -6073005.20747  -4714321.88645  20662887.7584                   20662884.1954
 -11150784.72346 -10934599.31245  21068048.4694                   21068045.3594
  -6987664.64146  -6492813.83844  22118780.6644                   22118779.9924
  29998346.195 5                  24554189.930
  -9989542.21546  -7779352.29143  21351254.5704                   21351253.6054
 11  8 27 15 50 30.0000000  0 10G13G10G06G16G11G23G19G07G28G03
 -18517046.07446 -14419922.30344  20109413.7814                   20109412.0864
  28507262.05545  15925197.17642  24091589.5474                   24091590.3954
   -777433.16046   -581205.17743  23156116.2344                   23156114.5234
  17258945.40245  13451880.80142  23620105.1094                   23620104.1644
  29499039.121 5                  24551485.609
  -6126044.06647  -4755650.91245  20652795.1724                   20652791.4734
 -11283150.16046 -11037741.19544  21042860.2274                   21042857.0514
  -7155700.09846  -6623750.50844  22086804.9694                   22086803.9224
  29816536.949 5                  24519592.867
 -10047659.70346  -7824638.67943  21340195.7894                   21340194.7774
 11  8 27 15 51  0.0000000  0 10G13G10G06G16G11G23G19G07G28G03
 -18624342.32046 -14503529.79444  20088996.4924                   20088994.9104
  28417653.64145  15855372.41042  24074538.2344                   24074538.9384
   -815704.98046   -611027.43442  23148833.4534                   23148831.2304
  17235438.32045  13433563.51242  23615632.0554                   23615631.5044
  29310626.574 5                  24515632.102
  -6178630.28547  -4796627.22345  20642787.7894                   20642784.7384
 -11414978.49646 -11140464.56344  21017774.1254                   21017770.6764
  -7323758.97346  -6754705.41344  22054824.0234                   22054823.4614
  29634885.78515                  24485025.469
 -10105293.64546  -7869548.29643  21329228.6954                   21329227.8754
 11  8 27 15 51 30.0000000  0 10G13G10G06G16G11G23G19G07G28G03
 -18731110.91846 -14586726.09544  20068679.3364                   20068677.2384
  28328389.35945  15785815.78142  24057550.2274                   24057552.5274
   -853654.53145   -640598.54943  23141610.9844                   23141610.1374
  17211850.47745  13415183.30942  23611142.2344                   23611142.2934
  29122038.930 5                  24479744.406
  -6230766.41447  -4837252.83345  20632866.9774                   20632863.9184
 -11546269.56246 -11242769.25945  20992789.8834                   20992787.5944
  -7491841.14846  -6885678.52344  22022838.8524                   22022838.4454
  29453392.137 5                  24450488.961
 -10162447.18746  -7914083.53144  21318352.7664                   21318351.5594
 11  8 27 15 52  0.0000000  0 10G13G10G06G16G11G23G19G07G28G03
 -18837348.25046 -14669508.45345  20048463.1094                   20048461.0354
  28239470.44945  15716528.29342  24040628.7974                   24040631.5554
   -891280.91045   -669917.90642  23134451.5234                   23134450.3714
  17188183.59455  13396741.47352  23606638.7504                   23606639.4734
  28933281.184 5                  24443825.445
  -6282450.89147  -4877526.47644  20623031.4924                   20623028.7504
 -11677019.35246 -11344652.23044  20967909.0784                   20967907.0744
  -7659942.73046  -7016666.75144  21990849.7734                   21990849.1644
  29272059.461 5                  24415982.234
 -10219118.80546  -7958243.32944  21307568.8914                   21307567.2154
 11  8 27 15 52 30.0000000  0 10G13G10G06G16G11G23G19G07G28G03
 -18943054.47346 -14751876.94845  20028348.2194                   20028345.5594
  28150894.37545  15647507.93243  24023774.1094                   24023776.5864
   -928587.04345   -698987.66943  23127352.6024                   23127350.9104
  17164435.56345  13378236.51642  23602120.7194                   23602119.7424
  28744355.504 5                  24407874.672
  -6333685.87947  -4917449.87344  20613282.2814                   20613278.7344
 -11807227.16046 -11446112.84245  20943131.4454                   20943128.9414
  -7828063.35946  -7147669.78144  21958857.2114                   21958856.8094
  29090887.523 5                  24381507.391
 -10275311.60946  -8002029.99444  21296875.8914                   21296874.3674
 11  8 27 15 53  0.0000000  0 10G13G10G06G16G11G23G19G07G28G03
 -19048226.96546 -14833829.55545  20008333.8984                   20008331.6294
  28062660.66445  15578754.37142  24006985.2734                   24006986.3754
   -965573.49645   -727808.29342  23120313.9454                   23120312.9144
  17140606.52045  13359668.30942  23597586.6254                   23597585.1374
  28555266.070 5                  24371890.188
  -6384471.41047  -4957023.05744  20603617.1414                   20603614.0354
 -11936890.58646 -11547149.29844  20918457.4454                   20918454.5904
  -7996200.48446  -7278685.71144  21926862.1094                   21926861.4694
  28909878.227 5                  24347061.203
 -10331025.98446  -8045443.82244  21286272.9534                   21286272.4384
 11  8 27 15 53 30.0000000  0 10G13G10G06G16G11G23G19G07G28G03
 -19152862.44946 -14915363.73145  19988422.5704                   19988420.4964
  27974771.11345  15510269.05142  23990259.6174                   23990261.0944
  -1002239.19545   -756379.05543  23113337.1804                   23113336.3324
  17116698.35945  13341038.48843  23593037.5234                   23593036.0664
  28366018.762 5                  24335878.695
  -6434805.37946  -4996244.39344  20594039.8284                   20594036.4654
 -12066005.05946 -11647757.96245  20893888.1724                   20893884.8444
  -8164349.74646  -7409711.07144  21894864.9454                   21894863.7584
  28729035.254 4                  24312647.641
 -10386260.45346  -8088483.72143  21275762.3444                   21275761.9734
 11  8 27 15 54  0.0000000  0 10G13G10G06G16G11G23G19G07G28G03
 -19256964.80946 -14996482.46245  19968612.6724                   19968610.8984
  27887219.73845  15442047.12142  23973598.9694                   23973600.5554
  -1038590.65645   -784704.83243  23106419.3754                   23106419.3914
  17092705.71945  13322342.87142  23588471.8594                   23588470.6684
                                  24299834.703
  -6484693.88747  -5035118.64644  20584546.1484                   20584542.6884
 -12194573.53946 -11747941.21944  20869421.9774                   20869418.8954
  -8332514.41046  -7540748.44044  21862863.6804                   21862862.7384
  28548354.656 4                  24278263.648
 -10441021.06246  -8131154.34443  21265341.0554                   21265341.2584
 11  8 27 15 54 30.0000000  0 10G13G10G06G16G11G23G19G07G28G03
 -19360531.62946 -15077183.88045  19948904.0474                   19948902.9534
  27800005.94945  15374088.30142  23957001.8674                   23957003.4024
  -1074628.66445   -812786.58143  23099562.0394                   23099562.2504
  17068628.19145  13303581.08242  23583890.2034                   23583889.0044
                                  24263762.688
  -6534136.92246  -5073645.72344  20575137.5004                   20575134.2234
 -12322594.12546 -11847697.51944  20845060.6954                   20845057.3834
  -8500691.87546  -7671795.78344  21830861.3984                   21830859.4144
  28367838.11314                  24243914.500
 -10495308.39846  -8173456.23843  21255010.3754                   21255010.5864
 11  8 27 15 55  0.0000000  0 10G13G10G06G16G11G23G19G07G28G03
 -19463561.71546 -15157467.09045  19929298.7974                   19929296.8284
  27713128.49645  15306391.56342  23940470.1954                   23940471.3444
  -1110354.47745   -840624.95843  23092763.2894                   23092763.6604
  17044465.46945  13284752.85542  23579290.7814                   23579290.9184
  27797334.625 5                  24227662.328
  -6583135.48847  -5111826.48044  20565812.8834                   20565809.7424
 -12450064.77746 -11947025.30044  20820804.5164                   20820800.6024
  -8668880.22746  -7802851.63543  21798855.8524                   21798854.2194
  28187486.91414                  24209594.133
 -10549123.86746  -8215390.37343  21244770.0004                   21244769.4734
 11  8 27 15 55 30.0000000  0 10G13G10G06G16G11G23G19G07G28G03
 -19566055.01246 -15237331.99645  19909794.5944                   19909792.9964
  27626584.98055  15238955.01652  23924001.5474                   23924003.1414
  -1145770.98845   -868222.27843  23086023.5634                   23086024.1524
  17020215.94145  13265857.05542  23574675.7114                   23574675.8714
  27607469.69115                  24191531.742
  -6631691.69146  -5149662.53244  20556572.9694                   20556570.1054
 -12576984.96146 -12045924.12844  20796651.5394                   20796648.8914
  -8837078.99246  -7933915.58344  21766848.8134                   21766846.8014
                                  24175305.250
 -10602469.99246  -8256958.83343  21234618.8674                   21234618.0164
 11  8 27 15 56  0.0000000  0 11G13G10G06G16G11G23G19G07G08G28G03
 -18092588.16046 -14089176.03245  20190186.5164                   20190184.0474
  29115797.00445  16399379.93042  24207389.2274                   24207391.2974
    394540.85245    332020.65642  23379134.2814                   23379135.6374
  18571298.88745  14474493.02342  23869839.0784                   23869836.6094
  28992883.867 5                  24455167.141
                  -5104385.23846
  -3959553.62844                  20847209.8134                   20847207.0864
 -11127929.40246 -10916789.94145  21072397.0784                   21072394.6954
  -7429861.28146  -6837382.27143  22034633.3754                   22034631.8134
  32685041.26215                  23895033.234    29402705.93814  24440842.883
  -9079926.78946  -7070561.58144  21524349.6024                   21524348.5354
 11  8 27 15 56 30.0000000  0 11G13G10G06G16G11G23G19G07G08G28G03
 -18194004.94146 -14168202.10045  20170887.1094                   20170884.9924
  29029918.75045  16332461.77042  24191047.4144                   24191048.9144
    359738.81345    304902.16042  23372512.7814                   23372512.9694
  18546874.27745  14455460.80942  23865190.5234                   23865188.4844
  28802729.563 5                  24418980.992
                  -5152058.70746
  -3996701.82544                  20838138.3754                   20838135.0234
 -11253743.05146 -11014826.57545  21048456.2974                   21048453.8014
  -7598075.11346  -6968457.95344  22002623.1254                   22002621.8134
  32503076.613 5                  23860406.375    29222853.68014  24406617.453
  -9132337.57046  -7111401.21044  21514376.1484                   21514375.1644
 11  8 27 15 57  0.0000000  0 11G13G10G06G16G11G23G19G07G08G28G03
 -18294885.64146 -14246810.46145  20151690.6644                   20151688.4614
  28944367.43845  16265798.41842  24174767.7504                   24174769.1844
    325237.99246    278018.31243  23365948.2664                   23365948.1724
  18522357.40645  14436356.61742  23860525.0084                   23860523.1724
  28612431.488 5                  24382767.969
                  -5199295.99247
  -4033510.13244                  20829149.4534                   20829146.4064
 -11379004.85246 -11112433.17045  21024619.9844                   21024617.3444
  -7766297.61346  -7099540.39244  21970612.2664                   21970610.0044
                                  23825755.109                    24372425.547
  -9184286.69546  -7151881.10144  21504490.5864                   21504489.8834
 11  8 27 15 57 30.0000000  0 11G13G10G06G16G11G23G19G07G08G28G03
 -18395230.91046 -14325001.58945  20132595.4304                   20132593.1954
  28859140.38355  16199387.67652  24158550.0474                   24158551.3794
    291035.21546    251366.68843  23359439.9924                   23359438.7854
  18497745.93845  14417178.77042  23855841.2894                   23855841.4884
  28421991.879 5                  24346528.711
                  -5246099.45347
  -4069980.42944                  20820243.5394                   20820239.8554
 -11503715.04746 -11209609.93245  21000887.8754                   21000885.6414
  -7934528.15246  -7230629.10644  21938598.8054                   21938596.9304
                                  23791079.664    28863642.797 4  24338261.531
  -9235776.67646  -7192003.17344  21494691.6644                   21494691.7114
 11  8 27 15 58  0.0000000  0 11G13G10G06G16G11G23G19G07G08G28G03
 -18495040.65646 -14402775.41545  20113601.3594                   20113599.8364
  28774235.02345  16133227.59042  24142392.9064                   24142394.5124
    257127.77345    224945.24443  23352987.3674                   23352986.5234
  18473038.49245  14397926.13742  23851140.2344                   23851140.7974
  28231412.457 5                  24310262.719
                  -5292471.66447
  -4106114.66145                  20811418.6484                   20811415.8404
 -11627872.91846 -11306356.35445  20977261.8834                   20977259.0944
  -8102766.09046  -7361723.59644  21906583.4774                   21906582.0554
  31956423.18014                  23756380.297                    24304132.086
  -9286810.69946  -7231769.98443  21484980.7664                   21484980.6094
 11  8 27 15 58 30.0000000  0 11G13G10G06G16G11G23G19G07G08G28G03
 -18594313.77747 -14480131.12745  20094711.1334                   20094708.9844
  28689650.12945  16067317.27342  24126297.3134                   24126298.9104
    223514.00445    198752.63342  23346590.7034                   23346590.1764
  18448234.23845  14378597.96942  23846420.7734                   23846421.0314
  28040696.590 5                  24273973.031
                  -5338413.65647
  -4141913.64644                  20802676.7894                   20802673.1094
 -11751477.11746 -11402671.31445  20953740.8524                   20953737.6994
  -8271010.06646  -7492822.76344  21874567.6174                   21874566.6764
  31773952.90215                  23721657.672    28505088.422 5  24270032.180
  -9337389.84446  -7271182.35143  21475355.9614                   21475355.8524
 11  8 27 15 59  0.0000000  0 11G13G10G06G16G11G23G19G07G08G28G03
 -18693048.38746 -14557067.20145  20075922.4384                   20075920.2624
  28605385.93445  16001656.81642  24110261.0944                   24110263.0354
    190193.77045    172788.77742  23340250.4144                   23340249.0704
  18423334.16045  14359195.20742  23841684.0164                   23841682.3054
                                  24237653.695
                  -5383925.14146
  -4177377.17644                  20794015.5704                   20794012.4844
 -11874524.84446 -11498552.63945  20930325.5394                   20930322.0744
  -8439256.70346  -7623924.05644  21842551.9224                   21842550.3134
                                  23686911.609    28326060.801 5  24235963.625
  -9387514.56246  -7310240.66643  21465817.4614                   21465816.7584
 11  8 27 15 59 30.0000000  0 11G13G10G06G16G11G23G19G07G08G28G03
 -18791242.21547 -14633581.89545  20057236.8204                   20057234.7664
  28521442.23045  15936246.04342  24094287.6484                   24094288.3954
    157166.64845    147053.27742  23333964.3364                   23333964.3794
  18398339.17645  14339718.52342  23836926.7814                   23836925.3674
  27658874.961 5                  24201314.375
                  -5429005.46146
  -4212504.71745                  20785437.0004                   20785434.3794
 -11997013.20346 -11593998.11944  20907017.3674                   20907013.6724
  -8607502.84046  -7755024.88544  21810535.1254                   21810534.2344
  31408645.563 5                  23652141.969    28147202.461 5  24201928.500
  -9437184.63346  -7348944.67243  21456365.3054                   21456365.2074
 11  8 27 16  0  0.0000000  0 11G13G10G06G16G11G23G19G07G08G28G03
 -18888898.15246 -14709677.45845  20038653.9384                   20038651.3404
                                  24078373.9304                   24078375.3364
    124427.29345    121542.00042  23327735.2424                   23327734.4844
  18373244.60245  14320164.24242  23832151.0944                   23832149.3984
  27467773.512 5                  24164947.531
                  -5473660.12546
  -4247300.60644                  20776939.7584                   20776936.6994
 -12118944.75446 -11689009.70244  20883814.3984                   20883810.9024
  -8775750.35246  -7886126.83144  21778518.8524                   21778518.3014
  31225807.816 4                  23617348.055    27968510.773 5  24167924.617
  -9486405.73846  -7387298.79743  21446999.1804                   21446998.2304
 11  8 27 16  0 30.0000000  0 11G13G10G06G16G11G23G19G07G08G28G03
 -18986016.49246 -14785354.08945  20020173.3444                   20020170.5634
  28354497.82845  15806159.43442  24062519.7894                   24062520.8444
     91972.78545     96252.71343  23321559.2814                   23321558.5084
  18348048.68045  14300530.93442  23827355.9144                   23827353.5824
  27276546.863 5                  24128557.953
                  -5517891.05546
  -4281766.31244                  20768523.2194                   20768519.8874
 -12240319.29346 -11783587.26345  20860717.1804                   20860714.0164
  -8943998.67246  -8017229.36344  21746502.4844                   21746501.3014
  31042846.65215                  23582533.102    27789985.219 5  24133952.328
  -9535180.37946  -7425305.07843  21437717.9694                   21437717.0204
 11  8 27 16  1  0.0000000  0 11G13G10G06G16G11G23G19G07G08G28G03
 -19082593.03146 -14860608.55545  20001794.9844                   20001792.7034
  28271497.20345  15741483.62142  24046724.6254                   24046726.0274
     59805.17645     71186.95342  23315438.7274                   23315437.6484
  18322754.66045  14280821.18442  23822543.9304                   23822540.2894
  27085201.969 5                  24092147.008
                  -5561695.82447
  -4315899.96944                  20760187.6954                   20760184.2664
 -12361131.98046 -11877726.99545  20837727.4614                   20837724.1724
  -9112242.41846  -8148328.34844  21714486.6954                   21714485.3794
  30859766.586 5                  23547693.531    27611630.180 5  24100011.922
  -9583506.78946  -7462962.04643  21428521.6254                   21428520.7624
 11  8 27 16  1 30.0000000  0 11G13G10G06G16G11G23G19G07G08G28G03
 -19178630.46946 -14935442.94745  19983518.9454                   19983517.3094
  28188806.77014                  24030989.297
     27919.09045     46340.57843  23309371.5004                   23309370.5664
  18297358.10945  14261031.54742  23817709.8834                   23817707.7194
  26893738.531 5                  24055713.078
                  -5605079.68746
  -4349705.61744                  20751931.0704                   20751928.1254
 -12481385.18046 -11971430.80545  20814843.2584                   20814840.1414
  -9280483.31246  -8279425.13344  21682471.3284                   21682470.2934
  30676565.29715                  23512831.289    27433442.973 5  24066103.938
  -9631389.93046  -7500273.61843  21419409.5944                   21419408.7814
 11  8 27 16  2  0.0000000  0 11G13G10G06G16G11G23G19G07G08G28G03
 -19274129.84046 -15009858.04844  19965346.3284                   19965344.1334
  28106423.160 4                  24015312.125
     -3688.80545     21710.96243  23303355.4454                   23303355.7234
  18271857.39545  14241160.74642  23812857.7034                   23812856.4264
  26702158.738 5                  24019256.102
                  -5648044.91846
  -4383185.05944                  20743755.1024                   20743752.3524
 -12601079.04346 -12064698.73145  20792066.7814                   20792063.6454
  -9448720.93446  -8410519.34544  21650456.9924                   21650455.9884
  30493241.99215                  23477945.156    27255422.98814  24032227.500
  -9678832.92246  -7537242.22943  21410381.7114                   21410381.1524
 11  8 27 16  2 30.0000000  0 11G13G10G06G16G11G23G19G07G08G28G03
 -19369092.16046 -15083854.66344  19947275.7274                   19947273.4694
  28024342.949 5                  23999692.781
    -35021.97345     -2704.57042  23297392.9614                   23297392.5634
  18246249.71945  14221206.58242  23807983.8364                   23807984.1764
  26510463.691 5                  23982777.891
                  -5690594.94146
  -4416340.97444                  20735658.4614                   20735655.2274
 -12720214.29746 -12157531.37045  20769396.0704                   20769392.4104
  -9616955.34846  -8541611.04544  21618442.6024                   21618441.7584
  30309796.316 4                  23443037.563    27077568.80115  23998383.008
  -9725839.26246  -7573870.59843  21401437.2194                   21401436.3164
 11  8 27 16  3  0.0000000  0 11G13G10G06G16G11G23G19G07G08G28G03
 -17888092.09846 -13929828.64945  20229100.1484                   20229098.3364
  29517989.395 5                  24283924.828
   1509340.28945   1200694.50442  23591275.2664
                                  23591275.4454                   19795957.18445
  15428770.85942                  24102883.3364                   24102883.6914
                  27894084.80115  24246072.469
  -4157308.02046  -3221571.99244  21027433.8914                   21027430.1294
 -11263364.38346 -11022323.66145  21046625.1024                   21046621.7624
  -8209758.00446  -7445093.60344  21886223.4454                   21886221.6134
  31701656.95715                  23707899.273                    24264365.039
  -8196987.68046  -6382557.78443  21692367.5084                   21692367.5984
 11  8 27 16  3 30.0000000  0 11G13G10G06G16G11G23G19G07G08G28G03
 -17981977.22346 -14002985.90145  20211234.6334                   20211232.9614
  29436513.46914                  24268420.164
   1478552.90245   1176704.24242  23585416.9694
                                  23585416.7074                   19770135.81345
  15408650.19542                  24097971.5554                   24097969.7544
                  27702170.91814  24209550.445
  -4199029.65647  -3254082.42044  21019494.0944                   21019491.1294
 -11381377.66846 -11114282.05645  21024167.7584                   21024164.7384
  -8377979.38746  -7576175.16244  21854212.1094                   21854210.7304
  31517971.371 5                  23672943.617    28297790.60515  24230583.883
  -8243124.42246  -6418508.54843  21683588.3754                   21683587.9384
 11  8 27 16  4  0.0000000  0 11G13G10G06G16G11G23G19G07G08G28G03
 -18075324.02346 -14075723.68545  20193471.7034                   20193469.5824
  29355336.383 5                  24252972.633
   1448034.55145   1152923.59442  23579608.7734
                                  23579610.1604                   19744205.55945
  15388444.70742                  24093037.1564                   24093035.2234
                  27510151.51614  24173010.695
  -4240340.30947  -3286272.59744  21011633.9694                   21011629.6414
 -11498829.58246 -11205803.02345  21001818.0474                   21001814.6914
  -8546192.56246  -7707250.35344  21822202.6884                   21822200.5864
  31334166.03115                  23637967.633    28120440.281 5  24196836.258
  -8288830.16446  -6454123.48943  21674890.6804                   21674890.2814
 11  8 27 16  4 30.0000000  0 11G13G10G06G16G11G23G19G07G08G28G03
 -18168134.13346 -14148043.28545  20175810.0554                   20175808.3164
  29274454.570 5                  24237581.250
   1417781.42645   1129349.66442  23573852.1174
                                  23573853.0004                   19718163.92245
  15368152.42242                  24088081.0314                   24088079.3914
                  27318027.86315  24136451.508
  -4281243.56647  -3318145.31745  21003849.3444                   21003846.3244
 -11615721.14846 -11296887.36145  20979573.4844                   20979571.0554
  -8714397.80146  -7838319.36644  21790194.4304                   21790192.1564
  31150240.230 5                  23602968.000    27943256.469 5  24163119.133
  -8334108.93046  -6489405.65343  21666274.3754                   21666274.4884
 11  8 27 16  5  0.0000000  0 11G13G10G06G16G11G23G19G07G08G28G03
 -18260408.97346 -14219945.76145  20158251.3444                   20158249.3914
  29193864.293 5                  24222246.531
   1387789.78945   1105979.46542  23568145.4844
                                  23568146.0784                   19692008.48845
  15347771.43442                  24083104.2034                   24083102.6214
                  27125801.445 5  24099872.250
  -4321742.42647  -3349702.93344  20996143.0234                   20996140.4064
 -11732052.98446 -11387535.55144  20957437.0004                   20957433.9184
  -8882594.97746  -7969382.05244  21758186.9534                   21758184.9304
  30966192.992 5                  23567945.930    27766237.934 5  24129433.172
  -8378963.82046  -6524357.56143  21657738.4224                   21657738.2114
 11  8 27 16  5 30.0000000  0 11G13G10G06G16G11G23G19G07G08G28G03
 -18352148.96147 -14291431.49645  20140794.0784                   20140792.0864
  29113563.000 5                  24206965.398
   1358056.86345   1082810.87142  23562488.0704
                                  23562487.9844                   19665737.32854
  15327300.35552                  24078103.0164                   24078104.7154
                  26933474.402 5  24063274.375
  -4361839.48047  -3380947.41844  20988512.5864                   20988510.1914
 -11847825.37546 -11477747.80445  20935405.8834                   20935403.7154
  -9050783.57046  -8100438.07844  21726181.0634   21726179.6484   30782024.320 5
  23532899.695    27589384.30945  21930090.85252  24095778.0314   24095782.3794
  -8423397.75446  -6558981.45343  21649284.1484                   21649282.6484
 11  8 27 16  6  0.0000000  0 11G13G10G06G16G11G23G19G07G08G28G03
 -18443357.41847 -14362503.02245  20123436.6174                   20123435.6454
                                  24191737.125
   1328577.42645   1059839.76642  23556878.4614
                                  23556878.3134                   19639346.87155
  15306736.18452                  24073081.8674                   24073082.9804
                  26741046.805 5  24026656.258
  -4401539.67246  -3411882.70044  20980958.3444                   20980954.9384
 -11963040.82046 -11567526.09945  20913481.6564                   20913478.5664
  -9218965.30146  -8231488.74444  21694177.4384   21694176.0084   30597731.980 5
  23497829.242    27412692.97745  21792409.30142  24062154.4694   24062156.2384
  -8467416.64846  -6593281.93843  21640907.3204                   21640906.4694
 11  8 27 16  6 30.0000000  0 11G13G10G06G16G11G23G19G07G08G28G03
 -18534033.64147 -14433159.86445  20106181.9064                   20106179.9494
  28953810.195 5                  24176565.430
   1299349.53945   1037064.69343  23551316.8204
                                  23551316.3444                   19612836.34845
  15286078.55142                  24068038.0784                   24068038.5044
                  26548522.332 5  23990019.352
  -4440844.38346  -3442509.79344  20973478.3204                   20973475.9774
 -12077698.01646 -11656869.37345  20891662.9454                   20891659.7624
  -9387137.98046  -8362532.36844  21662175.4924   21662173.7814   30413317.195 5
  23462737.391    27236164.79345  21654854.96542  24028563.6564   24028563.1604
  -8511021.57846  -6627259.87343  21632608.8364                   21632609.0824
 11  8 27 16  7  0.0000000  0 11G13G10G06G16G11G23G19G07G08G28G03
 -18624181.08247 -14503404.64545  20089028.2274                   20089025.9654
                                  24161444.570
   1270367.96145   1014481.53942  23545801.3054
                                  23545800.9924                   19586201.91845
  15265324.39142                  24062969.5314                   24062969.9884
                  26355900.289 5  23953364.359
  -4479758.86347  -3472832.81544  20966073.8754                   20966070.7774
 -12191800.28546 -11745780.22744  20869950.6094                   20869947.4734
  -9555303.38346  -8493570.32544  21630174.6564   21630172.9964   30228777.785 5
  23427620.156    27059796.26645  21517424.94542  23995000.4064   23995000.9064
  -8554218.42246  -6660919.78343  21624389.5634                   21624388.8524
 11  8 27 16  7 30.0000000  0 11G13G10G06G16G11G23G19G07G08G28G03
 -18713799.89847 -14573237.53645  20071974.1564                   20071971.3954
                                  24146375.828
   1241630.12145    992088.30942  23540333.1254
                                  23540332.4264                   19559442.54345
  15244472.82842                  24057877.5554                   24057877.1994
                  26163183.500 5  23916691.820
  -4518285.04746  -3502853.26044  20958742.1884                   20958739.0394
 -12305347.47746 -11834258.56045  20848342.6484                   20848340.0594
  -9723460.40246  -8624601.76444  21598175.2814   21598174.2274   30044113.762 5
  23392478.453    26883587.66045  21380119.60242  23961469.4224   23961469.0474
  -8597009.52346  -6694263.57643  21616246.0784                   21616245.9614
 11  8 27 16  8  0.0000000  0 11G13G10G06G16G11G23G19G07G08G28G03
 -18802892.85946 -14642660.64245  20055019.9304                   20055017.6484
                                  24131360.023
   1213131.23445    969881.27742  23534910.0864
                                  23534909.7424                   19532554.18845
  15223520.74642                  24052760.5474                   24052760.4184
                  25970372.156 5  23880001.367
  -4556427.79347  -3532574.92844  20951483.6564                   20951480.7234
 -12418341.45746 -11922305.82245  20826840.6174                   20826837.9344
  -9891610.33246  -8755627.63644  21566177.1804   21566176.0984   29859323.301 5
  23357314.227    26707536.14845  21242936.63342  23927968.3674   23927967.3554
  -8639399.51246  -6727294.75943  21608180.3754                   21608179.4104
 11  8 27 16  8 30.0000000  0 11G13G10G06G16G11G23G19G07G08G28G03
 -18891461.66046 -14711675.34145  20038165.8834                   20038163.8404
  28637608.12114                  24116394.688
   1184867.42645    947857.43042  23529530.5944
                                  23529531.8404                   19505534.47745
  15202466.30542                  24047618.8594                   24047618.8204
                  25777467.633 5  23843292.922
  -4594190.17646  -3562000.21544  20944298.1414                   20944294.9414
 -12530783.66046 -12009923.13145  20805443.6804                   20805440.4964
 -10059753.23846  -8886648.05444  21534180.7894   21534179.9344   29674405.840 5
  23322126.047    26531640.82445  21105875.35942  23894497.3284   23894496.5784
  -8681392.44146  -6760016.59243  21600189.0084                   21600188.0784
 11  8 27 16  9  0.0000000  0 11G13G10G06G16G11G23G19G07G08G28G03
 -18979507.48046 -14780282.46644  20021411.3134                   20021409.3014
  28559224.94115                  24101478.266
   1156835.51245    926014.32842  23524196.5164
                                  23524197.3634                   19478381.93445
  15181308.39842                  24042452.9224                   24042452.0164
                  25584472.570 5  23806566.469
  -4631575.21946  -3591131.49644  20937183.6724                   20937181.1724
 -12642674.46147 -12097110.76045  20784151.5004                   20784148.4024
 -10227888.09046  -9017662.20744  21502185.3914   21502184.8324   29489361.336 5
  23286912.977    26355901.39845  20968935.61342  23861054.3674   23861054.6334
  -8722991.64546  -6792431.61643  21592272.7274                   21592272.3244
 11  8 27 16  9 30.0000000  0 11G13G10G06G16G11G23G19G07G08G28G03
 -19067027.32046 -14848479.79544  20004756.9064                   20004755.2854
  28481106.16815                  24086612.539
   1129036.44145    904352.67242  23518907.3204
                                  23518906.8524                   19451098.94145
  15160048.84442                  24037261.6804                   24037260.8554
                  25391392.645 5  23769824.148
  -4668581.53147  -3619967.67144  20930142.0704                   20930138.5944
 -12754010.53546 -12183866.12345  20762965.1804                   20762961.6174
 -10396010.55546  -9148666.70644  21470193.1174   21470192.4654   29304193.406 5
  23251677.945    26180320.53545  20832119.43842  23827642.3284   23827643.1054
  -8764195.98446  -6824538.97843  21584432.0474                   21584430.9734
 11  8 27 16 10  0.0000000  0 11G13G10G06G16G11G23G19G07G08G28G03
 -17578600.73446 -13688666.88144  20287994.7344                   20287993.7664
  29978670.000 5                  24371589.047
   2676886.68845   2110469.64142  23813453.9454   23813452.7774   20999103.09045
  16366285.70742                  24331837.0084                   24331835.8874
                                  26773655.180 5                  24032860.445
  -3129792.34446  -2420911.20544  21222963.5474                   21222960.3594
 -11289370.25046 -11042587.99045  21041677.5944                   21041673.8094
  -8988695.73446  -8052057.73644  21737996.6644                   21737995.1804
  30694326.85545                  24025169.07852                  23516210.4304
  23516209.2384   27580322.18845  21923029.83242  24094053.5704   24094053.4534
  -7229588.76246  -5628741.17043  21876457.8524                   21876456.7194
 11  8 27 16 10 30.0000000  0 11G13G10G06G16G11G23G19G07G08G28G03
 -17665072.06246 -13756047.16244  20271540.2034                   20271538.0044
  29901070.758 5                  24356823.188
   2649543.98046   2089163.53942  23808250.7894   23808249.6764   20971553.76645
  16344818.67642                  24326594.8914                   24326594.1524
                                  26580412.203 5                  23996087.656
  -3166050.20746  -2449164.16244  21216064.3524                   21216061.7304
 -11399598.61746 -11128480.23845  21020700.8524                   21020697.7664
  -9156791.39546  -8183041.34744  21706008.8754                   21706007.4574
  30508912.19546                  23880690.19143                  23480927.9144
  23480927.6174   27405056.77045  21786459.38342  24060702.0554   24060701.1994
  -7270013.39846  -5660240.92143  21868765.5314                   21868764.6134
 11  8 27 16 11  0.0000000  0 11G13G10G06G16G11G23G19G07G08G28G03
 -17751016.51246 -13823016.86745  20255185.3834                   20255183.5354
  29823731.332 5                  24342106.156
   2622428.80545   2068034.72342  23803091.2974   23803089.2114   20943872.699 5
                                  24321326.438
                                  26387094.672 5                  23959300.695
  -3201934.09847  -2477125.68644  21209235.9224                   21209232.7304
 -11509270.04746 -11213938.49445  20999831.2034                   20999827.8594
  -9324868.68046  -8314010.62844  21674024.5784                   21674023.1994
  30323377.95746                  23736118.14843                  23445621.1254
  23445622.6884   27229951.95345  21650014.17242  24027380.1564   24027379.5594
  -7310048.87146  -5691437.45243  21861147.2584                   21861145.9344
 11  8 27 16 11 30.0000000  0 11G13G10G06G16G11G23G19G07G08G28G03
 -17836430.16046 -13889572.98945  20238931.9534                   20238929.8834
  29746653.816 5                  24327439.336
   2595543.27745   2047084.90642  23797973.9144   23797973.5904   20916063.531 4
                                  24316034.523
                                  26193710.547 5                  23922500.828
  -3237441.64146  -2504793.96344  21202478.4064                   21202476.0554
 -11618379.81246 -11298959.08545  20979068.2034                   20979064.9104
  -9492921.62546  -8444960.95044  21642044.7274                   21642043.3794
  30137729.62146                  23591457.21543                  23410292.9614
  23410294.7974   27055012.07445  21513697.37142  23994091.2734   23994088.8794
  -7349693.25446  -5722329.24243  21853603.0234                   21853602.7274
 11  8 27 16 12  0.0000000  0 11G13G10G06G16G11G23G19G07G08G28G03
 -17921315.78546 -13955717.65745  20222778.9614                   20222776.5394
  29669833.398 5                  24312819.758
   2568882.60545   2026310.23042  23792900.1644   23792900.0474   20888122.887 5
                                  24310716.711
                                  26000260.176 5                  23885688.469
  -3272577.39846  -2532172.53744  21195792.2664                   21195789.7154
 -11726930.45346 -11383543.99445  20958412.2734                   20958408.2424
  -9660951.26646  -8575893.11544  21610070.2114                   21610068.5514
  29951965.34046                  23446705.86243                  23374944.4144
  23374944.8054   26880234.977 5                                  23960831.578
  -7388951.30546  -5752919.90443  21846132.7734                   21846132.6844
 11  8 27 16 12 30.0000000  0 11G13G10G06G16G11G23G19G07G08G28G03
 -18005670.73046 -14021448.80645  20206726.5394                   20206724.5204
  29593271.047 5                  24298251.211
   2542447.65645   2005711.49242  23787869.6804   23787870.3094   20860053.37915
                                  24305377.297
                                  25806749.434 5                  23848864.891
  -3307340.24646  -2559260.55344  21189177.7734                   21189174.6604
 -11834918.54346 -11467690.56645  20937862.9304                   20937859.1214
  -9828952.88746  -8706803.41444  21578100.3674                   21578098.7894
  29766089.22746                  23301867.41343                  23339572.8754
  23339573.2074   26705624.055 5                                  23927604.359
  -7427822.62146  -5783209.34543  21838735.6254                   21838736.7154
 11  8 27 16 13  0.0000000  0 11G13G10G06G16G11G23G19G07G08G28G03
 -18089495.12546 -14086766.53545  20190775.2664                   20190773.3554
  29516964.648 5                  24283730.359
   2516236.43445   1985287.04742  23782882.6884   23782883.8324   20831854.145 5
                                  24300010.555
                                  25613181.680 5                  23812030.070
  -3341732.10546  -2586059.44744  21182633.4614                   21182630.1174
 -11942343.91446 -11551398.66445  20917420.3984                   20917416.5864
  -9996924.80146  -8837690.61144  21546136.6414                   21546135.0474
  29580102.07446                  23156942.41543                  23304180.0394
  23304180.1094   26531179.37915                                  23894407.859
  -7466308.75446  -5813198.62943  21831411.6174                   21831412.1684
 11  8 27 16 13 30.0000000  0 11G13G10G06G16G11G23G19G07G08G28G03
 -18172792.02747 -14151673.24845  20174924.9144                   20174922.6764
  29440909.141 5                  24269257.570
   2490243.99645   1965033.06143  23777937.0234   23777938.2734   20803521.438 5
                                  24294619.945
                                  25419557.199 5                  23775184.953
  -3375757.86346  -2612573.07944  21176158.3834                   21176155.6994
 -12049209.42646 -11634670.51145  20897084.1724                   20897080.7114
 -10164868.25846  -8968555.61344  21514178.2814                   21514176.5664
  29394002.35946                  23011929.64343                  23268766.2274
  23268766.0314   26356898.309 5                                  23861243.039
  -7504414.95346  -5842891.80243  21824160.4144                   21824160.7854
 11  8 27 16 14  0.0000000  0 11G13G10G06G16G11G23G19G07G08G28G03
 -18255560.28146 -14216168.03845  20159173.6564                   20159172.2774
  29365104.480 5                  24254832.508
   2464469.55545   1944949.00842  23773033.2504   23773033.8284   20775056.641 5
                                  24289203.547
                                  25225881.043 5                  23738328.617
  -3409417.78946  -2638801.66744  21169753.2344                   21169750.3524
 -12155512.82846 -11717504.33245  20876855.2274                   20876851.5004
 -10332779.56246  -9099395.55544  21482224.7424                   21482224.3594
  29207792.51246                  22866831.12343                  23233331.7274
  23233332.0864   26182783.012 5                                  23828111.070
  -7542141.93746  -5872289.49543  21816981.9534                   21816981.3404
 11  8 27 16 14 30.0000000  0 11G13G10G06G16G11G23G19G07G08G28G03
 -18337795.91846 -14280247.74445  20143524.9694                   20143523.5234
  29289552.21915                  24240455.078
   2438915.18045   1925036.36742  23768170.3914   23768170.5514   20746463.133 5
                                  24283761.352
                                  25032160.332 5                  23701465.336
  -3442709.84446  -2664743.60344  21163418.2664                   21163415.5204
 -12261250.19946 -11799897.09745  20856734.4614                   20856731.0554
 -10500653.23446  -9230206.19644  21450280.2664                   21450278.9104
  29021477.74246                  22721650.82343                  23197877.5084
  23197877.7384   26008837.391 5                                  23795010.063
  -7579488.35246  -5901390.63143  21809874.6174                   21809874.6414
 11  8 27 16 15  0.0000000  0 11G13G10G06G16G11G23G19G07G08G28G03
 -18419500.24246 -14343913.51145  20127977.6094                   20127975.4384
  29214249.289 5                  24226125.398
   2413577.44545   1905292.60242  23763348.3914   23763347.3954   20717739.098 5
                                  24278296.289
                                  24838396.738 5                  23664592.430
  -3475637.16846  -2690401.30644  21157152.1724                   21157149.5044
 -12366422.88746 -11881849.84945  20836720.0474                   20836717.4224
 -10668488.83246  -9360987.11644  21418342.1254                   21418340.8164
  28835057.61346                  22576388.54342                  23162402.8364
  23162403.0004   25835060.438 5                                  23761941.211
  -7616457.46546  -5930197.84743  21802839.0944                   21802838.8134
 11  8 27 16 15 30.0000000  0 11G13G10G06G16G11G23G19G07G08G28G03
 -18500673.82446 -14407165.70744  20112530.3674                   20112528.9804
  29139194.289 5                  24211843.016
   2388454.56645   1885716.26242  23758567.4844   23758565.6724   20688884.273 5
                                  24272805.508
                                  24644594.145 5                  23627712.664
  -3508201.30946  -2715776.00144  21150955.6884                   21150953.1954
 -12471029.95346 -11963361.84545  20816814.9224                   20816811.3484
 -10836283.85246  -9491736.45244  21386411.2274                   21386410.5124
  28648533.85946                  22431045.43643                  23126908.5554
  23126908.8984   25661453.05145  20427807.63853  23728905.1484   23728905.8754
  -7653050.87546  -5958712.18143  21795876.4694                   21795875.4774
 11  8 27 16 16  0.0000000  0 11G13G10G06G16G11G23G19G07G08G28G03
 -18581313.61346 -14470001.94644  20097185.2584                   20097183.8404
  29064388.281 5                  24197607.922
   2363547.92645   1866308.35542  23753827.2734   23753825.4844   20659901.852 5
                                  24267289.938
                                  24450759.348 5                  23590827.781
  -3540401.11346  -2740866.84344  21144827.9064                   21144825.7584
 -12575068.22346 -12044430.62945  20797016.8914                   20797012.7934
 -11004033.30946  -9622450.30144  21354490.0314                   21354488.5084
  28461910.80946                  22285625.04643                  23091395.3364
  23091395.6994   25488018.64845  20292663.99242  23695900.7344   23695901.7704
  -7689267.95346  -5986933.43143  21788985.5634                   21788982.9774
 11  8 27 16 16 30.0000000  0 11G13G10G06G16G11G23G19G07G08G28G03
 -17085998.98846 -13304821.74145  20381733.8674                   20381732.6174
  30565250.05945  17528821.91852  24483213.1884                   24483214.6454
   3914274.46945   3074666.62542  24048921.4224   24048918.5234   22206209.703 5
                                  24561540.336    25832319.906 5  23853728.938
  -1996818.94946  -1538075.61644  21438561.9694                   21438559.9734
 -11103115.75046 -10897454.66744  21077119.8754                   21077115.8594
  -9596311.90246  -8525524.52144  21622370.2974                   21622369.1024
  29850613.91446                  23367731.51343                  23355656.8914
                                  23355656.3484                   26890181.39145
                                  21385258.37942  23962723.9614   23962724.9534
  -6149691.17646  -4787263.28243  22081955.8834                   22081955.7344
 11  8 27 16 17  0.0000000  0 11G13G10G06G16G11G23G19G07G08G28G03
 -17165574.75846 -13366828.86545  20366591.5164                   20366589.7194
  30490932.80945  17470912.34842  24469070.7424                   24469073.3204
   3889791.08245   3055588.52742  24044263.0554   24044260.5434   22176966.570 5
                                  24555976.695    25638427.348 5  23816833.117
  -2028298.57046  -1562605.24944  21432571.6174                   21432569.5944
 -11206018.59846 -10977638.68744  21057537.9384                   21057533.4884
  -9763967.89146  -8656165.50744  21590466.3284                   21590464.8794
  29663792.63746                  23222156.55343                  23320105.3594
                                  23320106.2624                   26717090.70345
                                  21250382.53142  23929785.3134   23929786.5434
  -6185164.43046  -4814904.83643  22075206.1174                   22075206.1954
 11  8 27 16 17 30.0000000  0 11G13G10G06G16G11G23G19G07G08G28G03
 -17244616.95746 -13428420.21545  20351550.6254                   20351548.5394
  30416859.54345  17413192.84042  24454975.1954                   24454977.7624
   3865518.59445   3036674.77342  24039642.8594   24039643.0044
                                  24550388.523    25444513.223 5  23779932.492
  -2059418.67246  -1586854.74244  21426650.0164                   21426647.2544
 -11308351.38746 -11057378.51944  21038064.0784                   21038060.4264
  -9931571.98046  -8786766.06444  21558571.9614                   21558571.3134
  29476876.73846                  23076507.88943                  23284537.2344
                                  23284536.8284                   26544174.83245
                                  21115642.98842  23896880.7034   23896881.1764
  -6220267.02746  -4842257.55243  22068527.0554                   22068526.2074
 11  8 27 16 18  0.0000000  0 11G13G10G06G16G11G23G19G07G08G28G03
 -17323119.69546 -13489591.20445  20336611.4384                   20336609.9774
  30343034.00845  17355666.43042  24440925.9844                   24440929.1954
   3841461.07845   3017928.61742  24035065.6174   24035066.3674   22118100.60215
                                  24544776.156    25250587.141 5  23743029.711
  -2090175.37946  -1610821.07844  21420797.7504                   21420794.2854
 -11410108.02746 -11136669.41044  21018700.8754                   21018697.2814
 -10099116.14546  -8917319.93444  21526689.8364                   21526688.9534
  29289872.83646                  22930790.66443                  23248950.8524
                                  23248950.8554                   26371439.72745
                                  20981044.19942  23864009.7504   23864010.1294
  -6254995.30546  -4869318.55643  22061918.0474                   22061918.3364
 11  8 27 16 18 30.0000000  0 11G13G10G06G16G11G23G19G07G08G28G03
 -17401084.34046 -13550342.91745  20321775.3594                   20321774.4494
                                  24426923.9304                   24426927.4924
   3817615.44945   2999347.53942  24030528.1804   24030529.1174   22088482.289 4
                                  24539142.242    25056651.195 5  23706124.445
  -2120571.15246  -1634506.22244  21415012.9844                   21415009.8014
 -11511289.24246 -11215511.93544  20999446.6804                   20999443.2074
 -10266599.30546  -9047826.24844  21494818.5944                   21494817.7774
  29102781.76246                  22785005.46243                  23213347.9454
                                  23213348.5084                   26198884.87545
                                  20846585.90242  23831173.1414   23831174.3754
  -6289351.88346  -4896090.00643  22055380.3674                   22055380.7814
 11  8 27 16 19  0.0000000  0 11G13G10G06G16G11G23G19G07G08G28G03
 -17478514.30147 -13610677.97545  20307041.3524                   20307039.5744
  30196112.29345  17241181.87942  24412968.1804                   24412970.8364
   3793977.02045   2980927.92642  24026028.8984   24026030.9264
                                  24533480.758    24862705.879 5  23669218.508
  -2150611.26246  -1657914.16944  21409295.2194                   21409293.5944
 -11611898.06646 -11293908.43744  20980300.8984                   20980298.3874
 -10434022.43046  -9178285.80344  21462959.1724                   21462958.0124
  28915601.21946                  22639150.53543                  23177728.6094
                                  23177729.1844                   26026507.51645
                                  20712265.97342  23798371.2584   23798372.2854
  -6323342.66046  -4922576.41743  22048912.9454                   22048912.4884
 11  8 27 16 19 30.0000000  0 11G13G10G06G16G11G23G19G07G08G28G03
 -17555412.57846 -13670598.73345  20292407.9384                   20292406.3674
  30123006.40245  17184216.19542  24399056.8284                   24399058.7854
   3770540.62145   2962665.59442  24021569.6884   24021570.9734
                                  24527793.469    24668751.941 5  23632309.992
  -2180300.32046  -1681048.55544  21403646.9694                   21403644.3554
 -11711937.43446 -11371861.19545  20961265.0394                   20961261.4064
 -10601386.52746  -9308699.38844  21431111.2344                   21431109.5944
  28728330.22746                  22493225.13143                  23142092.7504
                                  23142092.5664                   25854305.27345
                                  20578082.39842  23765603.6484   23765603.3404
  -6356972.21546  -4948781.30143  22042512.3524                   22042512.3444
 11  8 27 16 20  0.0000000  0 11G13G10G06G16G11G23G19G07G08G28G03
 -17631775.73846 -13730102.51945  20277876.9144                   20277874.8834
  30050137.65655  17127435.21952  24385189.7814                   24385191.8484
   3747308.69945   2944562.71142  24017149.8284   24017149.9264
                                  24522083.328    24474796.926 5  23595400.875
  -2209636.04346  -1703907.66244  21398064.3134                   21398061.4574
 -11811403.07046 -11449366.89245  20942337.1954                   20942333.9734
 -10768685.50446  -9439062.15044  21399274.9774                   21399274.0124
  28540974.18846                  22347233.52143                  23106439.0864
                                  23106439.7464                   25682282.78945
                                  20444038.97742  23732868.1804   23732868.7934
  -6390238.25046  -4974702.88243  22036182.0164                   22036181.7734
 11  8 27 16 20 30.0000000  0 10G13G10G06G11G23G19G07G08G28G03
 -17707599.06646 -13789185.67345  20263447.8914                   20263446.4614
  29977509.52745  17070841.81642  24371369.6954                   24371371.5164
   3724284.37945   2926621.60242  24012770.1724   24012769.3284
                                  24280849.555 5                  23558494.602
  -2238615.38346  -1726489.02744  21392549.5784                   21392546.7464
 -11910289.46546 -11526421.23045  20923519.8134                   20923516.6454
 -10935912.00046  -9569368.47044  21367453.0864                   21367451.6094
  28353539.50846  22201180.56243  23070772.4064   23070772.0744   25510445.03545
                                  20310139.48842  23700168.2894   23700168.5044
  -6423138.14146  -5000339.22243  22029920.8594                   22029920.9964
 11  8 27 16 21  0.0000000  0 10G13G10G06G11G23G19G07G08G28G03
 -17782887.88346 -13847852.31745  20249120.8444                   20249119.1884
  29905114.816 5                  24357594.266
   3701460.68445   2908836.75042  24008425.2814   24008425.4224   24086908.38345
  18797906.55952                  23521588.6094                   23521589.0944
  -2267245.05546  -1748797.96544  21387102.7584                   21387099.1094
 -12008602.14146 -11603028.49745  20904811.2974                   20904807.8984
 -11103069.00046  -9699620.64944  21335643.8914                   21335642.3874
  28166022.78146  22055063.71843  23035088.0004   23035088.9224   25338787.50045
                                  20176380.44142  23667502.3134   23667502.7154
  -6455679.02046  -5025695.86443  22023728.4224                   22023728.4414
 11  8 27 16 21 30.0000000  0 10G13G10G06G11G23G19G07G08G28G03
 -17857639.76246 -13906100.55645  20234895.8054                   20234894.4534
  29832954.57015                  24343862.117
   3678838.51645   2891208.95342  24004120.3834   24004120.9024   23892979.68445
  18646793.35243                  23484685.0784                   23484685.5084
  -2295524.31646  -1770833.82444  21381721.1094                   21381717.7584
 -12106337.65246 -11679186.04844  20886213.3834                   20886209.8164
 -11270151.44946  -9829814.75644  21303849.7194                   21303847.6804
  27978428.14146  21908886.16443  22999390.5394   22999390.3524   25167313.49245
                                  20042764.38342  23634872.3054   23634872.3874
  -6487860.03946  -5050772.10043  22017605.5474                   22017605.2624
 11  8 27 16 22  0.0000000  0 10G13G10G06G11G23G19G07G08G28G03
 -17931857.03546 -13963932.21645  20220773.1804                   20220771.4654
                                  24330174.773
                                  23999850.2894   23999853.4534   23699065.06345
  18495691.17743                  23447784.3594                   23447784.7584
  -2323457.16446  -1792599.78644  21376405.3674                   21376402.4574
 -12203498.72746 -11754896.00044  20867723.8284                   20867720.4454
 -11437159.37546  -9959950.78744  21272068.4534                   21272067.1884
  27790755.00046  21762647.37043  22963677.6644   22963677.5824   24996021.14145
                                  19909289.88342  23602276.9924   23602276.6334
  -6519685.79346  -5075571.44143  22011549.4924                   22011549.2934
 11  8 27 16 22 30.0000000  0 10G13G10G06G11G23G19G07G08G28G03
 -18005538.40247 -14021346.32745  20206751.6954                   20206750.5004
  29689324.67614                  24316530.211
   3634187.29745   2856415.64842  23995622.4144   23995623.4104   23505169.90245
  18344604.08642                  23410886.5474                   23410887.2814
  -2351043.20746  -1814095.47044  21371155.8984                   21371153.5904
 -12300083.05146 -11830156.48744  20849344.1724                   20849340.9574
 -11604088.43446 -10090025.32444  21240302.8914                   21240301.7504
  27603006.96946  21616350.33943  22927951.1644   22927949.5514   24824913.01645
                                  19775958.91042  23569716.7504   23569715.6564
  -6551156.26646  -5100093.95643  22005561.1644                   22005560.5664
 11  8 27 16 23  0.0000000  0 10G13G10G06G11G23G19G07G08G28G03
 -18078685.83246 -14078344.35344  20192831.9614                   20192830.9844
  29617851.72314                  24302928.195
   3612155.00045   2839247.53542  23991431.2424   23991431.0124   23311296.53145
  18193534.00442                  23373994.4774                   23373994.2894
  -2378285.82046  -1835323.55044  21365972.0864                   21365969.1094
 -12396092.30146 -11904968.89144  20831074.0864                   20831070.8164
 -11770938.23046 -10220038.15644  21208552.9224                   21208551.1414
  27415183.81346  21469994.67643  22892208.9304   22892207.8484   24653988.05145
                                  19642770.72742  23537188.9534   23537189.5984
  -6582274.80146  -5124342.21943  21999639.4454                   21999639.1334
 11  8 27 16 23 30.0000000  0 10G13G10G06G11G23G19G07G08G28G03
 -16575878.08646 -12907325.35645  20478806.8204                   20478805.5314
  31122025.43014                  24589164.742
   5165735.17645   4049829.35942  24287068.8134   24287068.8094   24692874.21145
  19270088.14142                  23636900.6334                   23636899.3634
   -829767.15246   -628685.72344  21660644.9694                   21660642.7974
 -10916103.92646 -10751731.21544  21112706.5474                   21112703.2504
 -10362281.97346  -9122383.89944  21476610.7194                   21476609.1094
  28802712.59446  22551185.98343  23156246.4774   23156246.5904   26058671.06345
                                  20737328.95742  23804492.5314   23804492.0124
  -5037623.49246  -3920717.85243  22293577.1564                   22293577.0904
 11  8 27 16 24  0.0000000  0 10G13G10G06G11G23G19G07G08G28G03
 -16647960.48446 -12963493.49645  20465090.7194                   20465088.6254
  31050999.37914                  24575647.898
   5144084.70345   4032958.77342  24282948.2664   24282948.0744   24499053.55145
  19119059.11543                  23600017.1414                   23600017.1254
   -856330.49646   -649384.48144  21655590.6954                   21655588.1414
 -11010964.41046 -10825648.46444  21094655.2734                   21094652.5554
 -10528968.29346  -9252269.31744  21444891.7424                   21444889.9224
  28614742.33646  22404715.72843  23120477.4614   23120477.1644   25888111.07445
                                  20604425.19542  23772034.9924   23772035.0744
  -5068046.09046  -3944423.84043  22287787.1954                   22287787.7894
 11  8 27 16 24 30.0000000  0 10G13G10G06G11G23G19G07G08G28G03
 -16719510.34846 -13019246.67545  20451474.9384                   20451473.4694
  30980194.85914                  24562174.586
   5122623.17645   4016235.37542  24278864.2194   24278864.5704   24305265.41445
  18968055.46542                  23563140.1334                   23563140.3244
   -882556.02746   -669820.04444  21650600.0784                   21650597.5984
 -11105249.98446 -10899117.76544  21076714.2584                   21076710.8954
 -10695568.47746  -9382087.60944  21413188.5784                   21413187.1254
  28426701.58246  22258190.55643  23084693.5164   23084694.7344   25717735.17245
                                  20471664.84842  23739614.3054   23739614.0274
  -5098122.98445  -3967860.47943  22282063.1174                   22282063.8794
 11  8 27 16 25  0.0000000  0 10G13G10G06G11G23G19G07G08G28G03
 -16790530.18046 -13074586.83945  20437960.2664                   20437959.2114
  30909607.645 4                  24548743.961
   5101346.71545   3999656.27042  24274814.0784   24274816.1094   24111511.45745
  18817078.44542                  23526270.0314                   23526270.3754
   -908448.01246   -689995.71744  21645673.7034                   21645670.6134
 -11198962.57046 -10972140.56044  21058880.6804                   21058877.4064
 -10862082.39846  -9511838.67645  21381501.7974                   21381501.0744
  28238590.31646  22111610.38343  23048897.2664   23048898.0784   25547541.64145
                                  20339046.54342  23707227.0394   23707227.4804
  -5127858.76245  -3991031.22043  22276405.0554                   22276405.5944
 11  8 27 16 25 30.0000000  0 10G13G10G06G11G23G19G07G08G28G03
 -16861023.24646 -13129516.54345  20424546.2734                   20424544.3954
                                  24535350.383
   5080250.73845   3983217.71542  24270800.8364   24270801.3054   23917792.57045
  18666128.74642                  23489406.7814                   23489406.6214
   -934011.12546   -709915.10744  21640808.8444                   21640806.4414
 -11292105.20346 -11044719.25545  21041156.4144                   21041153.0984
 -11028510.70346  -9641523.05244  21349831.3984                   21349830.6174
  28050407.04346  21964974.17243  23013088.0944   23013087.4384   25377528.12545
                                  20206568.55142  23674874.8594   23674874.2384
  -5157257.69946  -4013939.53343  22270810.0634                   22270810.8954
 11  8 27 16 26  0.0000000  0 10G13G10G06G11G23G19G07G08G28G03
 -16930992.27346 -13184037.89745  20411231.4304                   20411229.9964
  30769066.781 5                  24521998.906
   5059331.37945   3966916.85542  24266820.9534   24266821.7154   23724110.41845
  18515207.73042                  23452549.3984                   23452549.2194
   -959249.41446   -729581.36244  21636006.6174                   21636004.1214
 -11384680.36546 -11116855.72345  21023540.0164                   21023536.9844
 -11194853.30546  -9771140.64444  21318178.0164                   21318176.4104
  27862151.19946  21818281.33243  22977263.0944   22977263.6374   25207692.55945
                                  20074229.23343  23642556.7974   23642556.0594
  -5186324.50846  -4036589.10843  22265279.9844                   22265279.5554
 11  8 27 16 26 30.0000000  0 10G13G10G06G11G23G19G07G08G28G03
 -17000440.53946 -13238153.46645  20398015.5164                   20398014.2704
  30699104.668 5                  24508683.727
   5038584.10955   3950750.00852  24262872.5004   24262873.4384   23530466.30545
  18364316.23842                  23415699.4144                   23415699.5474
   -984167.16046   -748997.87944  21631264.9694                   21631262.2584
 -11476690.77346 -11188552.20145  21006030.7114                   21006027.9844
 -11361110.03146  -9900691.32945  21286540.0004                   21286538.9384
  27673821.89846  21671531.32343  22941425.6334   22941425.5124   25038032.98845
                                  19942027.08143  23610270.5314   23610271.2504
  -5215063.83246  -4058983.44743  22259811.0004                   22259811.5044
 11  8 27 16 27  0.0000000  0 10G13G10G06G11G23G19G07G08G28G03
 -17069370.53546 -13291865.18245  20384898.7424                   20384897.9494
  30629342.801 5                  24495410.313
   5018005.20745   3934714.46142  24258956.5554   24258956.5594   23336861.55145
  18213455.49242                  23378858.5864                   23378857.8204
  -1008768.28946   -768167.67743  21626583.8914                   21626580.1884
 -11568138.23846 -11259809.97445  20988628.6564                   20988626.1254
 -11527281.00846 -10030175.18744  21254918.5164                   21254917.6724
  27485418.86346  21524723.85443  22905573.3204   22905573.6604   24868547.54345
                                  19809960.53942  23578018.6094   23578019.4694
  -5243479.42246  -4081125.59443  22254403.5164                   22254403.9184
 11  8 27 16 27 30.0000000  0 10G13G10G06G11G23G19G07G08G28G03
 -17137784.15246 -13345174.53045  20371880.3594                   20371878.8244
  30559777.840 5                  24482172.398
   4997591.86744   3918807.73842  24255070.8914   24255072.0044   23143298.67645
  18062627.34442                  23342024.3594                   23342024.8954
  -1033055.81246   -787093.13943  21621961.1884                   21621958.6914
 -11659024.48846 -11330630.45344  20971333.5394                   20971331.3444
 -11693365.16446 -10159591.41144  21223313.7114                   21223312.8164
  27296942.80946  21377859.45843  22869707.6334   22869707.5274   24699235.45745
                                  19678029.11342  23545799.6174   23545799.5664
  -5271575.12146  -4103018.38443  22249057.8984                   22249057.0554
 11  8 27 16 28  0.0000000  0 10G13G10G06G11G23G19G07G08G28G03
 -17205678.19946 -13398078.97544  20358960.5164                   20358959.4804
  30490411.867 5                  24468973.250
   4977345.73855   3903031.51252  24251216.7584   24251218.6914   22949785.26245
  17911837.74242                  23305200.7194                   23305200.6374
  -1057028.47746   -805773.21543  21617399.2584                   21617396.5044
 -11749346.07046 -11401010.91545  20954146.4774                   20954143.2424
 -11859356.40246 -10288935.21645  21191727.3524                   21191725.6414
  27108398.83646  21230942.15743  22833828.5084   22833828.3984   24530100.73445
                                  19546235.87542  23513614.0084   23513614.1414
  -5299348.91445  -4124660.37343  22243771.9384                   22243771.8594
 11  8 27 16 28 30.0000000  0 10G13G10G06G11G23G19G07G08G28G03
 -17273055.75446 -13450581.01645  20346139.5314                   20346137.9144
  30421240.543 5                  24455810.258
   4957262.84045   3887382.43442  24247397.3204   24247396.5944   22756322.37546
  17761087.56343                  23268385.6644                   23268386.1414
  -1080690.08646   -824210.94744  21612897.7344                   21612894.8594
 -11839105.60946 -11470953.42845  20937064.4694                   20937062.8914
 -12025254.55946 -10418206.50144  21160158.0864                   21160156.0164
  26919786.48046  21083971.57043  22797937.4534   22797936.5704   24361141.27745
                                  19414579.22342  23481462.7114   23481461.6954
  -5326805.41045  -4146055.14643  22238547.9064                   22238546.9884
 11  8 27 16 29  0.0000000  0 10G13G10G06G11G23G19G07G08G28G03
 -17339917.35947 -13502681.00645  20333415.7344                   20333414.3554
  30352262.172 5                  24442684.281
   4937341.70745   3871859.34442  24243606.4224   24243605.6174   22562914.38745
  17610380.05942                  23231581.8594                   23231581.5204
  -1104042.41446   -842407.64344  21608453.0004                   21608451.3634
 -11928302.91846 -11540457.85145  20920092.1334                   20920089.2034
 -12191057.19546 -10547403.33345  21128606.6024                   21128605.1214
  26731107.40646  20936948.97843  22762032.1644   22762031.8164   24192357.93845
                                  19283059.76642  23449345.1024   23449342.9024
  -5353946.23045  -4167203.85743  22233382.8674                   22233382.6294
 11  8 27 16 29 30.0000000  0 10G13G10G06G11G23G19G07G08G28G03
 -17406269.55147 -13554384.05945  20320789.7194                   20320787.5354
  30283469.004 5                  24429593.328
   4917574.62945   3856456.32042  24239845.0314   24239845.3204   22369558.96546
  17459713.51443                  23194786.6884                   23194786.8524
  -1127093.13346   -860369.36044  21604066.9224                   21604065.2734
 -12016944.12146 -11609528.94744  20903223.9694                   20903221.2854
 -12356767.76246 -10676528.45244  21097072.8984                   21097071.4884
  26542357.75446  20789871.40543  22726114.9144   22726114.4964   24023744.87545
                                  19151673.02042  23417258.2194   23417257.0274
  -5380779.38745  -4188112.89243  22228275.7424                   22228276.0234
 11  8 27 16 30  0.0000000  0 10G13G10G06G11G23G19G07G08G28G03
 -15896692.52747 -12378090.31845  20608052.5634                   20608050.7624
  31790279.598 5                  24716329.188
   6473378.75445   5068771.08243  24535905.6024   24535905.9694   23751684.59445
  18536694.63443                  23457795.8984                   23457796.6524
    425574.53546    349501.46644  21899529.9384                   21899527.7854
 -10529608.54346 -10450566.18044  21186255.0554                   21186251.8284
 -10946960.15646  -9577977.06044  21365350.3914                   21365349.1174
  27928963.87946  21870343.83443  22989976.3134   22989976.7384   25430726.46545
                                  20248022.41042  23684998.0394   23684996.9454
  -3831888.22345  -2981184.80943  22523020.9454                   22523021.1604
